     2              OBSERVATION DATA    GPS                 RINEX VERSION / TYPE
teqc 2000Jul20 Karen Wendt 20030304 00:25:52UTC             PGM / RUN BY / DATE
                                                            COMMENT
L2: 1 -> 1; 150 -> 5; 250 -> 9                              COMMENT
L2: 1 -> 1; 150 -> 5; 250 -> 9                              COMMENT
L2: 1 -> 1; 150 -> 5; 250 -> 9                              COMMENT
L2: 1 -> 1; 150 -> 5; 250 -> 9                              COMMENT
L2: 1 -> 1; 150 -> 5; 250 -> 9                              COMMENT
L2: 1 -> 1; 150 -> 5; 250 -> 9                              COMMENT
L2: 1 -> 1; 150 -> 5; 250 -> 9                              COMMENT
L2: 1 -> 1; 150 -> 5; 250 -> 9                              COMMENT
L2: 1 -> 1; 150 -> 5; 250 -> 9                              COMMENT
L2: 1 -> 1; 150 -> 5; 250 -> 9                              COMMENT
L2: 1 -> 1; 150 -> 5; 250 -> 9                              COMMENT
L2: 1 -> 1; 150 -> 5; 250 -> 9                              COMMENT
L2: 1 -> 1; 150 -> 5; 250 -> 9                              COMMENT
L2: 1 -> 1; 150 -> 5; 250 -> 9                              COMMENT
Original Marker Name: lae1 LAPE1__T6nR4e_S28S27_1919_GLO    COMMENT
Campaign Name: USGS 2003                                    COMMENT
4-Character Station Name: LAE1                              COMMENT
6-Character Antenna Code: DMRCHT                            COMMENT
Vertical Measurement Point: BCR                             COMMENT
Vertical Offset to Rinex Ref. Point: 0.0348                 COMMENT
Radial Measurement Point: ECF                               COMMENT
Radial Offset to Rinex Ref. Point: 0.1897                   COMMENT
Antenna Height from Field Measurement: 1.1890 m             COMMENT
Additional Antenna Identification Info.:                    COMMENT
Turborogue and Ashtech Choke Ring                           COMMENT
Original XYZ: -2350821.6978 -4703347.1177 3599611.7801      COMMENT
New XYZ position is based on association with SCEC monument COMMENT
E1F2J8I6+0011. Position of that monument is believed to be  COMMENT
valid to within 1 m horizontally; vertical accuracy         COMMENT
should be no worse than 3-times this value.                 COMMENT
                                                            COMMENT
Revised Rinex header created by UCSD GPS archive for        COMMENT
GSAC on 11-Jul-2003 (2003:192) 16:51:50 GMT                 COMMENT
For assistance contact dagnew@ucsd.edu                      COMMENT
or anderson@python.ucsd.edu                                 COMMENT
                                                            COMMENT
T6NR4E 1919                                                 MARKER NAME
CHS US GEOLOGICAL SURVEY                                    OBSERVER / AGENCY
LP03360 ASHTECH Z-XII3 CC00                                 REC # / TYPE / VERS
CR14244 DORNE-MARGOL. TYPE T                                ANT # / TYPE
 -2350839.6563 -4703318.5399  3599600.5209                  APPROX POSITION XYZ
        1.1390        0.0000        0.0000                  ANTENNA: DELTA H/E/N
     1     1     0                                          WAVELENGTH FACT L1/2
     5    C1    L1    L2    P1    P2                        # / TYPES OF OBSERV
    30                                                      INTERVAL
  2003     2    27     0     1    0.000000                  TIME OF FIRST OBS
  2003     2    27    23    59   30.000000                  TIME OF LAST OBS
                                                            END OF HEADER
 03  2 27  0  1  0.0000000  0 10G 6G10G17G16G26G30G15G29G18G23
  20420936.848   -29432600.75349 -22920651.86048  20420936.560    20420943.128
  24374333.328    -7235235.75649  -5612493.12945  24374332.151    24374343.433
  21118242.064   -24647856.29849 -19158926.01047  21118241.346    21118248.756
  23920495.078    -7241105.17149  -5332656.63145  23920494.637    23920503.572
  21756216.993   -21510211.36949 -16744361.73947  21756216.964    21756224.946
  23958789.608    -8508653.90849  -6600919.83145  23958789.634    23958799.937
  22513715.385   -16054192.74449 -12482926.15246  22513714.600    22513723.449
  22692346.689   -16053833.95749 -12485859.25346  22692346.525    22692354.330
  22005577.542   -18912179.62749 -14721564.06947  22005577.016    22005583.763
  20684583.795   -25331194.25249 -19712962.38348  20684583.161    20684590.103
 03  2 27  0  1 30.0000000  0 10G 6G10G17G16G26G30G15G29G18G23
  20426374.462   -29404026.18549 -22898386.01148  20426374.165    20426380.740
  24394415.664    -7129703.13649  -5530260.06045  24394414.448    24394425.770
  21113415.993   -24673217.45749 -19178687.95947  21113415.267    21113422.691
  23912192.184    -7284736.91849  -5366655.38045  23912191.814    23912200.651
  21749806.548   -21543898.23049 -16770611.21547  21749806.542    21749814.533
  23978140.630    -8406964.36749  -6521681.43345  23978140.698    23978151.052
  22501581.864   -16117954.77449 -12532610.81646  22501581.060    22501589.864
  22693245.472   -16049110.68149 -12482178.78946  22693245.343    22693253.145
  21990580.487   -18990989.53449 -14782974.33747  21990579.948    21990586.680
  20679830.638   -25356172.26649 -19732425.76548  20679830.012    20679836.928
 03  2 27  0  2  0.0000000  0 10G 6G10G17G16G26G30G15G29G18G23
  20431903.607   -29374970.49349 -22875745.25848  20431903.308    20431909.898
  24414504.674    -7024134.46549  -5447998.85545  24414503.701    24414514.927
  21108618.693   -24698427.48749 -19198332.14647  21108617.978    21108625.385
  23903985.240    -7327864.67849  -5400261.41645  23903984.776    23903993.634
  21743507.926   -21576997.61349 -16796402.91847  21743507.883    21743515.861
  23997487.790    -8305295.13749  -6442458.87645  23997487.784    23997498.243
  22489470.210   -16181601.90449 -12582205.95046  22489469.394    22489478.171
  22694247.446   -16043845.61049 -12478076.15846  22694247.250    22694255.053
  21975648.266   -19069458.63149 -14844119.03847  21975647.736    21975654.445
  20675166.628   -25380681.82049 -19751524.11748  20675166.000    20675172.924
 03  2 27  0  2 30.0000000  0 10G 6G10G17G16G26G30G15G29G18G23
  20437524.303   -29345433.64649 -22852729.57948  20437524.007    20437530.613
  24434600.099    -6918532.33649  -5365711.61945  24434599.248    24434610.360
  21103850.039   -24723487.00249 -19217859.04747  21103849.319    21103856.733
  23895874.455    -7370487.42149  -5433473.92345  23895873.921    23895882.842
  21737321.450   -21609507.70549 -16821735.43747  21737321.416    21737329.396
  24016830.598    -8203649.12949  -6363254.40845  24016830.593    24016841.100
  22477380.472   -16245134.05249 -12631711.48546  22477379.634    22477388.370
  22695352.562   -16038038.57549 -12473551.21146  22695352.285    22695360.143
  21960781.129   -19147585.72649 -14904997.24647  21960780.608    21960787.293
  20670591.694   -25404723.25149 -19770257.69848  20670591.068    20670598.000
 03  2 27  0  3  0.0000000  0 10G 6G10G17G16G26G30G15G29G18G23
  20443236.600   -29315415.44749 -22829338.82248  20443236.302    20443242.923
  24454701.602    -6812898.44749  -5283399.64045  24454700.813    24454711.961
  21099110.111   -24748395.47649 -19237268.25347  21099109.410    21099116.829
  23887859.933    -7412603.63949  -5466291.73545  23887859.499    23887868.245
  21731247.484   -21641426.42449 -16846607.14947  21731247.451    21731255.420
  24036168.483    -8102028.78349  -6284069.93945  24036168.516    24036179.060
  22465312.615   -16308550.93249 -12681127.19546  22465311.768    22465320.456
  22696560.817   -16031689.15149 -12468603.63746  22696560.518    22696568.447
  21945979.399   -19225369.35149 -14965607.81847  21945978.845    21945985.525
  20666105.805   -25428296.77249 -19788626.67548  20666105.173    20666112.101
 03  2 27  0  3 30.0000000  0 10G 6G10G17G16G26G30G15G29G18G23
  20449040.458   -29284916.04849 -22805573.09448  20449040.154    20449046.823
  24474808.782    -6707235.19649  -5201064.73845  24474808.012    24474819.040
  21094398.896   -24773153.29149 -19256560.06247  21094398.172    21094405.586
  23879941.903    -7454212.63049  -5498714.31345  23879941.480    23879950.370
  21725286.417   -21672751.95149 -16871016.62347  21725286.397    21725294.358
  24055500.852    -8000437.06149  -6204907.78245  24055500.923    24055511.634
  22453266.611   -16371852.71249 -12730453.21746  22453265.778    22453274.469
  22697872.270   -16024797.32749 -12463233.40346  22697871.990    22697879.907
  21931243.168   -19302808.53649 -15025949.98447  21931242.607    21931249.304
  20661708.807   -25451403.02849 -19806631.54548  20661708.177    20661715.103
 03  2 27  0  4  0.0000000  0 10G 6G10G17G16G26G30G15G29G18G23
  20454935.953   -29253935.10949 -22781432.15548  20454935.673    20454942.361
  24494921.128    -6601544.61849  -5118708.54045  24494920.400    24494931.552
  21089716.392   -24797759.99849 -19275734.13047  21089715.684    21089723.065
  23872120.786    -7495313.14349  -5530740.67445  23872120.285    23872129.137
  21719438.589   -21703482.32149 -16894962.35147  21719438.555    21719446.524
  24074827.320    -7898876.64849  -6125770.02345  24074827.393    24074838.120
  22441242.551   -16435039.41249 -12779689.56946  22441241.732    22441250.369
  22699287.083   -16017362.71149 -12457440.21546  22699286.781    22699294.679
  21916572.745   -19379901.80949 -15086022.62747  21916572.203    21916578.900
  20657400.707   -25474042.27949 -19824272.52148  20657400.089    20657407.005
 03  2 27  0  4 30.0000000  0 10G 6G10G17G16G26G30G15G29G18G23
  20460923.083   -29222472.70349 -22756916.04748  20460922.798    20460929.505
  24515038.360    -6495828.67549  -5036332.57745  24515037.572    24515048.774
  21085062.623   -24822215.70649 -19294790.53447  21085061.915    21085069.292
  23864396.574    -7535904.32949  -5562370.14645  23864396.042    23864404.869
  21713704.428   -21733615.63049 -16918442.83447  21713704.375    21713712.341
  24094147.399    -7797350.29149  -6046658.79345  24094147.518    24094158.179
  22429240.404   -16498111.00449 -12828836.23446  22429239.591    22429248.226
  22700805.155   -16009385.07949 -12451223.89846  22700804.920    22700812.800
  21901968.302   -19456648.27949 -15145825.03147  21901967.773    21901974.484
  20653181.396   -25496214.83449 -19841549.83248  20653180.770    20653187.703
 03  2 27  0  5  0.0000000  0 10G 6G10G17G16G26G30G15G29G18G23
  20467001.856   -29190528.70149 -22732024.66748  20467001.560    20467008.270
  24535159.974    -6390089.10449  -4953938.22445  24535159.272    24535170.390
  21080437.655   -24846520.12549 -19313729.04847  21080436.957    21080444.334
  23856769.483    -7575984.97749  -5593601.79745  23856768.913    23856777.816
  21708084.307   -21763149.76849 -16941456.42547  21708084.236    21708092.175
  24113460.479    -7695860.53149  -5967576.08345  24113460.628    24113471.239
  22417260.270   -16561067.05249 -12877892.86246  22417259.464    22417268.045
  22702426.643   -16000864.06149 -12444584.16646  22702426.438    22702434.303
  21887430.150   -19533046.67249 -15205356.20247  21887429.588    21887436.298
  20649050.904   -25517920.71549 -19858463.49948  20649050.290    20649057.220
 03  2 27  0  5 30.0000000  0 10G 6G10G17G16G26G30G15G29G18G23
  20473172.191   -29158103.52849 -22706758.34648  20473171.888    20473178.627
  24555285.632    -6284328.53749  -4871527.53345  24555285.050    24555296.140
  21075841.375   -24870673.71049 -19332550.03247  21075840.679    21075848.053
  23849239.649    -7615554.24549  -5624434.95945  23849239.126    23849248.043
  21702578.391   -21792083.33949 -16964002.04647  21702578.328    21702586.236
  24132766.041    -7594410.46049  -5888524.29145  24132766.243    24132776.782
  22405302.060   -16623907.68849 -12926859.54946  22405301.262    22405309.877
  22704151.376   -15991799.90449 -12437521.21746  22704151.253    22704159.192
  21872958.456   -19609095.72649 -15264615.16747  21872957.916    21872964.627
  20645009.003   -25539160.94549 -19875014.32348  20645008.378    20645015.310
 03  2 27  0  6  0.0000000  0 10G 6G10G17G16G26G30G15G29G18G23
  20479434.262   -29125196.15949 -22681116.28448  20479433.963    20479440.743
  24575415.159    -6178547.92949  -4789101.16945  24575414.465    24575425.655
  21071274.088   -24894674.95449 -19351252.30847  21071273.381    21071280.766
  23841807.584    -7654609.98849  -5654867.98245  23841807.100    23841815.969
  21697187.384   -21820413.38649 -16986077.38547  21697187.320    21697195.186
  24152063.691    -7493001.73649  -5809504.72745  24152063.804    24152074.454
  22393366.026   -16686631.84549 -12975735.47346  22393365.186    22393373.814
  22705979.790   -15982191.57049 -12430034.23246  22705979.697    22705987.612
  21858553.660   -19684793.29549 -15323600.24747  21858553.119    21858559.790
  20641055.836   -25559934.90649 -19891201.82248  20641055.205    20641062.146
 03  2 27  0  6 30.0000000  0 10G 6G10G17G16G26G30G15G29G18G23
  20485787.812   -29091808.08249 -22655099.65048  20485787.534    20485794.311
  24595547.735    -6072751.02849  -4706662.10945  24595547.037    24595558.127
  21066735.369   -24918526.18649 -19369837.68847  21066734.673    21066742.040
  23834473.222    -7693152.52849  -5684901.09945  23834472.758    23834481.503
  21691911.183   -21848139.72149 -17007682.28947  21691911.142    21691919.042
  24171352.576    -7391638.44349  -5730520.55445  24171352.640    24171363.396
  22381451.875   -16749241.05949 -13024521.83646  22381451.064    22381459.650
  22707911.573   -15972040.30849 -12422124.17046  22707911.460    22707919.341
  21844215.695   -19760139.78649 -15382311.75447  21844215.135    21844221.791
  20637191.026   -25580244.63049 -19907027.57448  20637190.390    20637197.342
 03  2 27  0  7  0.0000000  0 10G 6G10G17G16G26G30G15G29G18G23
  20492233.042   -29057938.45949 -22628707.78248  20492232.752    20492239.559
  24615683.469    -5966938.44449  -4624210.83545  24615682.618    24615693.729
  21062225.527   -24942225.57349 -19388304.74947  21062224.825    21062232.205
  23827236.868    -7731180.23249  -5714533.04745  23827236.357    23827245.129
  21686750.426   -21875259.44249 -17028814.51747  21686750.415    21686758.323
  24190632.592    -7290322.33849  -5651573.13945  24190632.703    24190643.359
  22369559.823   -16811734.25749 -13073217.80046  22369559.017    22369567.555
  22709946.797   -15961345.16649 -12413790.31846  22709946.681    22709954.572
  21829944.985   -19835132.70449 -15440747.75447  21829944.424    21829951.077
  20633414.627   -25600089.48849 -19922491.09848  20633414.025    20633420.965
 03  2 27  0  7 30.0000000  0 10G 6G10G17G16G26G30G15G29G18G23
  20498769.748   -29023587.93049 -22601941.18048  20498769.457    20498776.272
  24635821.530    -5861112.71649  -4541749.28345  24635820.726    24635831.746
  21057744.403   -24965774.14649 -19406654.29547  21057743.677    21057751.061
  23820098.468    -7768692.55549  -5743763.39645  23820097.979    23820106.808
  21681705.340   -21901771.55849 -17049473.28247  21681705.288    21681713.166
  24209903.010    -7189056.65849  -5572665.03045  24209903.053    24209913.725
  22357689.715   -16874111.98549 -13121823.79046  22357688.894    22357697.394
  22712085.477   -15950106.55449 -12405032.97546  22712085.321    22712093.200
  21815741.619   -19909771.51349 -15498907.83347  21815741.097    21815747.721
  20629726.528   -25619470.60949 -19937593.26948  20629725.918    20629732.894
 03  2 27  0  8  0.0000000  0 10G 6G10G17G16G26G30G15G29G18G23
  20505398.024   -28988756.15449 -22574799.58548  20505397.729    20505404.556
  24655961.656    -5755275.66049  -4459278.90745  24655960.883    24655972.026
  21053292.099   -24989171.13049 -19424885.72147  21053291.380    21053298.766
  23813058.494    -7805687.93849  -5772590.92545  23813057.973    23813066.869
  21676776.310   -21927673.81349 -17069656.82947  21676776.260    21676784.128
  24229163.315    -7087843.66349  -5493797.98045  24229163.449    24229174.031
  22345841.680   -16936373.70249 -13170339.38646  22345840.876    22345849.340
  22714327.560   -15938324.11849 -12395851.88046  22714327.448    22714335.291
  21801606.028   -19984054.68149 -15556790.78147  21801605.473    21801612.042
  20626126.655   -25638388.09349 -19952334.16548  20626126.030    20626133.004
 03  2 27  0  8 30.0000000  0 10G 6G10G17G16G26G30G15G29G18G23
  20512117.873   -28953443.44549 -22547283.22648  20512117.586    20512124.410
  24676103.495    -5649429.78549  -4376801.69545  24676102.630    24676113.983
  21048868.662   -25012416.59749 -19442999.08047  21048867.952    21048875.348
  23806116.909    -7842165.96849  -5801015.32845  23806116.439    23806125.334
  21671963.576   -21952964.87849 -17089364.11647  21671963.522    21671971.366
  24248413.001    -6986686.26249  -5414974.24045  24248413.203    24248423.984
  22334015.710   -16998519.42449 -13218764.58646  22334014.863    22334023.366
  22716673.187   -15925998.04249 -12386247.16546  22716673.064    22716680.887
  21787538.269   -20057981.21749 -15614395.83447  21787537.702    21787544.258
  20622614.861   -25656842.67849 -19966714.36048  20622614.241    20622621.206
 03  2 27  0  9  0.0000000  0 10G 6G10G17G16G26G30G15G29G18G23
  20518929.215   -28917649.73849 -22519392.07748  20518928.921    20518935.750
  24696246.676    -5543576.93049  -4294319.01945  24696245.735    24696257.251
  21044474.093   -25035510.14449 -19460994.05747  21044473.374    21044480.766
  23799273.954    -7878125.64049  -5829035.81945  23799273.536    23799282.433
  21667267.522   -21977642.69049 -17108593.55447  21667267.473    21667275.320
  24267651.641    -6885586.94949  -5336195.76145  24267651.826    24267662.473
  22322211.840   -17060548.69649 -13267099.06346  22322211.035    22322219.544
  22719122.243   -15913128.06349 -12376218.62546  22719122.159    22719129.966
  21773538.531   -20131550.05449 -15671722.16347  21773537.954    21773544.522
  20619191.095   -25674834.50449 -19980733.96448  20619190.472    20619197.431
 03  2 27  0  9 30.0000000  0 10G 6G10G17G16G26G30G15G29G18G23
  20525832.043   -28881375.39849 -22491126.40348  20525831.752    20525838.575
  24716390.764    -5437719.02449  -4211832.51345  24716389.879    24716401.471
  21040108.329   -25058452.32449 -19478871.09047  21040107.627    21040115.007
  23792529.775    -7913566.38549  -5856651.94645  23792529.345    23792538.251
  21662688.428   -22001706.05749 -17127344.20447  21662688.353    21662696.216
  24286878.724    -6784548.49449  -5257464.73045  24286878.903    24286889.801
  22310430.093   -17122461.88549 -13315343.07846  22310429.301    22310437.816
  22721674.732   -15899714.52749 -12365766.53046  22721674.682    22721682.496
  21759607.069   -20204760.17549 -15728768.96947  21759606.488    21759613.088
  20615855.268   -25692364.47049 -19994393.67948  20615854.651    20615861.597
 03  2 27  0 10  0.0000000  0  9G 6G17G16G26G30G15G29G18G23
  20532826.668   -28844618.65249 -22462484.82748  20532826.370    20532833.190
  21035771.812   -25081241.00449 -19496628.51247  21035771.109    21035778.499
  23785884.865    -7948485.07249  -5883861.27645  23785884.455    23785893.390
  21658226.916   -22025151.16649 -17145613.09647  21658226.872    21658234.725
  24306094.164    -6683571.60449  -5178781.68245  24306094.221    24306105.373
  22298670.879   -17184256.65049 -13363494.81146  22298670.112    22298678.657
  22724331.053   -15885755.56449 -12354889.43146  22724330.963    22724338.855
  21745744.469   -20277608.51249 -15785533.86747  21745743.885    21745750.494
  20612607.618   -25709431.12149 -20007692.36748  20612606.989    20612613.936
 03  2 27  0 10 30.0000000  0  9G 6G17G16G26G30G15G29G18G23
  20539912.667   -28807381.66849 -22433469.04248  20539912.364    20539919.179
  21031464.085   -25103878.17349 -19514267.87747  21031463.381    21031470.754
  23779339.084    -7982883.06749  -5910664.86345  23779338.646    23779347.649
  21653883.016   -22047978.52049 -17163400.61547  21653882.969    21653890.785
  24325297.036    -6582660.82449  -5100150.14345  24325297.037    24325308.431
  22286933.895   -17245934.68849 -13411555.60246  22286933.127    22286941.697
  22727090.813   -15871253.14449 -12343588.86946  22727090.702    22727098.561
  21731950.537   -20350095.98049 -15842017.57447  21731949.934    21731956.527
  20609447.609   -25726037.10449 -20020632.09948  20609446.987    20609453.923
 03  2 27  0 11  0.0000000  0  9G 6G17G16G26G30G15G29G18G23
  20547089.867   -28769665.43949 -22404079.81848  20547089.586    20547096.390
  21027185.151   -25126364.19949 -19531789.46447  21027184.443    21027191.834
  23772892.387    -8016760.43749  -5937062.78045  23772891.979    23772900.997
  21649656.788   -22070187.49049 -17180706.29647  21649656.714    21649664.552
  24344486.673    -6481819.63349  -5021572.82745  24344486.682    24344498.120
  22275218.974   -17307496.96549 -13459526.17346  22275218.217    22275226.812
  22729953.900   -15856208.07849 -12331865.44246  22729953.660    22729961.563
  21718225.307   -20422222.31449 -15898219.87147  21718224.736    21718231.278
  20606374.987   -25742183.83349 -20033213.96848  20606374.364    20606381.277
 03  2 27  0 11 30.0000000  0  9G 6G17G16G26G30G15G29G18G23
  20554358.306   -28731469.77049 -22374317.00848  20554358.014    20554364.838
  21022935.120   -25148698.30449 -19549192.67647  21022934.415    21022941.796
  23766545.064    -8050115.80549  -5963053.94345  23766544.614    23766553.615
  21645548.666   -22091775.83949 -17197528.36947  21645548.569    21645556.370
  24363662.750    -6381050.12149  -4943051.36345  24363662.767    24363674.188
  22263526.204   -17368942.77249 -13507405.98946  22263525.412    22263534.036
  22732920.284   -15840620.17449 -12319719.04046  22732919.937    22732927.880
  21704569.141   -20493985.87049 -15954139.48947  21704568.560    21704575.091
  20603389.757   -25757871.37949 -20045438.03548  20603389.131    20603396.037
 03  2 27  0 12  0.0000000  0  9G 6G17G16G26G30G15G29G18G23
  20561717.882   -28692795.23149 -22344181.05248  20561717.599    20561724.411
  21018713.961   -25170880.64049 -19566477.63047  21018713.258    21018720.637
  23760297.161    -8082948.53849  -5988637.86445  23760296.669    23760305.768
  21641558.795   -22112742.60849 -17213866.09347  21641558.711    21641566.488
  24382824.484    -6280355.35349  -4864588.15545  24382824.571    24382835.904
  22251855.545   -17430272.28149 -13555195.19646  22251854.771    22251863.390
  22735989.759   -15824489.87249 -12307149.98446  22735989.402    22735997.367
  21690982.147   -20565385.82649 -16009775.77847  21690981.566    21690988.098
  20600491.729   -25773100.59649 -20057304.96348  20600491.107    20600497.997
 03  2 27  0 12 30.0000000  0  9G 6G17G16G26G30G15G29G18G23
  20569168.684   -28653641.13049 -22313671.41548  20569168.401    20569175.215
  21014521.835   -25192910.44949 -19583643.73447  21014521.140    21014528.519
  23754149.106    -8115257.14249  -6013813.37445  23754148.565    23754157.584
  21637687.632   -22133085.34349 -17229717.56547  21637687.581    21637695.384
  24401971.703    -6179736.96649  -4786184.44945  24401971.816    24401983.275
  22240207.169   -17491484.64849 -13602893.11446  22240206.405    22240215.044
  22739162.568   -15807816.47249 -12294157.73546  22739162.266    22739170.300
  21677464.630   -20636420.46349 -16065127.40147  21677464.064    21677470.640
  20597680.951   -25787871.31849 -20068814.62348  20597680.323    20597687.244
 03  2 27  0 13  0.0000000  0  9G 6G17G16G26G30G15G29G18G23
  20576710.660   -28614008.10549 -22282788.59648  20576710.380    20576717.182
  21010358.694   -25214787.98849 -19600691.18747  21010357.982    21010365.361
  23748100.745    -8147041.31249  -6038580.23445  23748100.223    23748109.177
  21633935.494   -22152803.04749 -17245081.99047  21633935.418    21633943.192
  24421103.797    -6079197.93949  -4707842.60445  24421103.921    24421115.461
  22228581.101   -17552579.93549 -13650499.80846  22228580.344    22228588.954
  22742438.601   -15790600.62349 -12280742.80646  22742438.328    22742446.347
  21664016.777   -20707089.08549 -16120193.82347  21664016.214    21664022.803
  20594957.227   -25802184.60649 -20079967.84448  20594956.608    20594963.510
 03  2 27  0 13 30.0000000  0  9G 6G17G16G26G30G15G29G18G23
  20584343.784   -28573895.96549 -22251532.43548  20584343.505    20584350.307
  21006224.645   -25236512.78249 -19617619.61847  21006223.934    21006231.307
  23742152.395    -8178299.72249  -6062937.40945  23742151.880    23742160.914
  21630302.601   -22171893.81149 -17259957.89847  21630302.533    21630310.330
  24440220.439    -5978740.24449  -4629564.12945  24440220.607    24440232.214
  22216977.490   -17613557.46049 -13698014.72946  22216976.717    22216985.296
  22745818.008   -15772841.83649 -12266904.80746  22745817.768    22745825.743
  21650638.926   -20777390.09049 -16174973.78747  21650638.355    21650644.919
  20592320.534   -25816040.67249 -20090764.78348  20592319.904    20592326.816
 03  2 27  0 14  0.0000000  0  9G 6G17G16G26G30G15G29G18G23
  20592067.829   -28533306.01649 -22219903.95348  20592067.558    20592074.355
  21002119.551   -25258085.14149 -19634429.27048  21002118.836    21002126.214
  23736304.151    -8209032.69549  -6086885.15445  23736303.599    23736312.595
  21626789.117   -22190357.09449 -17274344.85947  21626789.056    21626796.867
  24459320.957    -5878367.35249  -4551351.72245  24459321.203    24459332.711
  22205396.110   -17674417.78649 -13745438.33746  22205395.365    22205403.929
  22749300.510   -15754541.49149 -12252644.82246  22749300.247    22749308.154
  21637331.037   -20847323.25149 -16229467.12447  21637330.478    21637337.010
  20589770.568   -25829440.88649 -20101206.51848  20589769.939    20589776.825
 03  2 27  0 14 30.0000000  0  9G 6G17G16G26G30G15G29G18G23
  20599882.821   -28492238.19249 -22187903.10548  20599882.558    20599889.374
  20998043.548   -25279504.93049 -19651120.03948  20998042.818    20998050.183
  23730555.980    -8239239.08649  -6110422.57845  23730555.528    23730564.539
  21623395.397   -22208191.01849 -17288241.41447  21623395.365    21623403.174
  24478404.985    -5778081.47749  -4473207.13945  24478405.222    24478416.720
  22193837.103   -17735160.38749 -13792770.21146  22193836.377    22193844.918
  22752886.067   -15735699.24049 -12237962.57646  22752885.785    22752893.726
  21624093.419   -20916887.28149 -16283672.82347  21624092.852    21624099.383
  20587307.242   -25842385.58649 -20111293.30748  20587306.614    20587313.508
 03  2 27  0 15  0.0000000  0  9G 6G17G16G26G30G15G29G18G23
  20607788.736   -28450692.54949 -22155529.92948  20607788.465    20607795.288
  20993996.620   -25300771.71449 -19667691.58048  20993995.889    20994003.281
  23724908.162    -8268918.25849  -6133549.17345  23724907.758    23724916.746
  21620121.715   -22225394.25749 -17301646.51847  21620121.671    21620129.495
  24497471.846    -5677884.99349  -4395132.22245  24497472.093    24497483.726
  22182300.692   -17795785.03949 -13840010.16646  22182299.914    22182308.414
  22756574.782   -15716315.30049 -12222858.23346  22756574.521    22756582.413
  21610926.250   -20986080.91849 -16337589.91247  21610925.688    21610932.217
  20584930.476   -25854875.37649 -20121025.61748  20584929.860    20584936.780
 03  2 27  0 15 30.0000000  0  9G 6G17G16G26G30G15G29G18G23
  20615785.475   -28408669.57149 -22122784.80148  20615785.189    20615792.033
  20989978.838   -25321885.41049 -19684143.83448  20989978.110    20989985.492
  23719360.860    -8298069.53149  -6156264.42845  23719360.428    23719369.476
  21616968.290   -22241965.68549 -17314559.31547  21616968.234    21616976.021
  24516521.292    -5577780.63949  -4317129.10445  24516521.484    24516533.186
  22170786.635   -17856291.80249 -13887158.27546  22170785.844    22170794.293
  22760366.380   -15696390.15249 -12207332.16846  22760366.186    22760374.032
  21597829.745   -21054903.23549 -16391217.65747  21597829.194    21597835.725
  20582640.169   -25866911.12349 -20130404.12448  20582639.555    20582646.498
 03  2 27  0 16  0.0000000  0  9G 6G17G16G26G30G15G29G18G23
  20623872.995   -28366169.64749 -22089668.02648  20623872.710    20623879.567
  20985990.302   -25342845.66449 -19700476.52048  20985989.572    20985996.920
  23713914.046    -8326692.42249  -6178567.95245  23713913.530    23713922.647
  21613935.333   -22257903.95249 -17326978.73747  21613935.284    21613943.067
  24535552.709    -5477770.95749  -4239199.75545  24535552.810    24535564.559
  22159295.006   -17916680.48349 -13934214.36246  22159294.250    22159302.646
  22764260.956   -15675924.08049 -12191384.60846  22764260.760    22764268.562
  21584804.052   -21123353.46549 -16444555.46847  21584803.521    21584810.029
  20580436.107   -25878493.52049 -20139429.37048  20580435.491    20580442.452
 03  2 27  0 16 30.0000000  0  9G 6G17G16G26G30G15G29G18G23
  20632051.150   -28323193.36449 -22056180.07048  20632050.868    20632057.719
  20982030.885   -25363652.52349 -19716689.67848  20982030.153    20982037.521
  23708567.824    -8354786.53149  -6200459.42745  23708567.390    23708576.464
  21611023.097   -22273208.06949 -17338904.02247  21611023.030    21611030.757
  24554565.501    -5377858.56549  -4161346.21945  24554565.607    24554577.534
  22147825.976   -17976950.71549 -13981178.14946  22147825.190    22147833.594
  22768258.355   -15654917.46249 -12175015.86546  22768258.173    22768265.959
  21571849.396   -21191430.80149 -16497602.71847  21571848.840    21571855.323
  20578318.120   -25889623.64249 -20148102.19848  20578317.517    20578324.479
 03  2 27  0 17  0.0000000  0  9G 6G17G16G26G30G15G29G18G23
  20640320.016   -28279740.47149 -22022320.72148  20640319.724    20640326.592
  20978100.899   -25384304.91549 -19732782.46548  20978100.163    20978107.544
  23703322.597    -8382350.50149  -6221937.82645  23703322.151    23703331.192
  21608231.822   -22287876.19849 -17350333.72547  21608231.752    21608239.488
  24573559.401    -5278045.34649  -4083569.96545  24573559.599    24573571.470
  22136379.588   -18037101.77549 -14028049.07746  22136378.804    22136387.190
  22772358.709   -15633370.34449 -12158225.92846  22772358.454    22772366.253
  21558965.909   -21259133.73749 -16550358.22147  21558965.379    21558971.831
  20576286.175   -25900301.65549 -20156422.72748  20576285.554    20576292.505
 03  2 27  0 17 30.0000000  0  9G 6G17G16G26G30G15G29G18G23
  20648679.366   -28235812.14249 -21988090.91247  20648679.067    20648685.939
  20974200.069   -25404803.90249 -19748755.72248  20974199.334    20974206.724
  23698178.117    -8409384.76149  -6243003.45445  23698177.663    23698186.713
  21605561.697   -22301907.81449 -17361267.45347  21605561.651    21605569.393
  24592533.869    -5178334.61849  -4005873.56045  24592533.922    24592546.086
  22124955.732   -18097134.47449 -14074827.78446  22124954.952    22124963.294
  22776561.658   -15611283.73749 -12141015.63346  22776561.434    22776569.233
  21546153.730   -21326462.04049 -16602821.81347  21546153.189    21546159.686
  20574339.978   -25910529.02449 -20164392.11448  20574339.361    20574346.310
 03  2 27  0 18  0.0000000  0  9G 6G17G16G26G30G15G29G18G23
  20657129.098   -28191408.64349 -21953490.84147  20657128.797    20657135.706
  20970328.564   -25425148.78849 -19764608.88948  20970327.824    20970335.230
  23693134.538    -8435888.50249  -6263655.68845  23693134.114    23693143.174
  21603012.956   -22315301.51049 -17371704.09647  21603012.915    21603020.640
  24611488.443    -5078728.49449  -3928258.67245  24611488.550    24611500.753
  22113554.466   -18157048.37849 -14121513.90546  22113553.715    22113562.028
  22780867.258   -15588657.84349 -12123385.09346  22780866.994    22780874.833
  21533413.056   -21393414.54449 -16654992.56947  21533412.529    21533419.019
  20572479.453   -25920306.23349 -20172010.72048  20572478.829    20572485.755
 03  2 27  0 18 30.0000000  0  9G 6G17G16G26G30G15G29G18G23
  20665669.131   -28146530.56549 -21918520.96647  20665668.835    20665675.757
  20966486.432   -25445339.35249 -19780341.81048  20966485.714    20966493.116
  23688192.189    -8461861.24349  -6283894.16445  23688191.687    23688200.715
  21600585.814   -22328056.39349 -17381642.96747  21600585.746    21600593.419
  24630422.580    -4979229.70049  -3850727.40245  24630422.652    24630434.941
  22102175.824   -18216843.38249 -14168107.38346  22102175.082    22102183.377
  22785275.370   -15565493.21249 -12105334.76546  22785275.112    22785282.959
  21520744.087   -21459990.38949 -16706869.82747  21520743.579    21520750.024
  20570704.418   -25929634.28449 -20179279.33948  20570703.778    20570710.695
 03  2 27  0 19  0.0000000  0  9G 6G17G16G26G30G15G29G18G23
  20674299.341   -28101178.65649 -21883181.87647  20674299.051    20674305.989
  20962673.607   -25465375.78749 -19795954.62548  20962672.893    20962680.289
  23683350.788    -8487302.70049  -6303718.65345  23683350.228    23683359.442
  21598280.389   -22340171.48249 -17391083.29247  21598280.292    21598287.989
  24649335.805    -4879840.82749  -3773281.81945  24649335.909    24649348.218
  22090819.843   -18276519.42949 -14214608.16346  22090819.054    22090827.366
  22789785.801   -15541790.45649 -12086865.12746  22789785.590    22789793.460
  21508146.982   -21526188.58249 -16758452.81347  21508146.470    21508152.875
  20569014.568   -25938514.27549 -20186198.81648  20569013.938    20569020.882
 03  2 27  0 19 30.0000000  0  9G 6G17G16G26G30G15G29G18G23
  20683019.702   -28055353.02949 -21847473.65547  20683019.414    20683026.358
  20958890.220   -25485257.66649 -19811447.00748  20958889.493    20958896.905
  23678610.543    -8512212.26349  -6323128.67345  23678610.060    23678619.314
  21596096.959   -22351645.46449 -17400024.05847  21596096.883    21596104.542
  24668227.830    -4780564.00149  -3695923.49945  24668228.070    24668240.278
  22079486.615   -18336075.63349 -14261015.55646  22079485.840    22079494.187
  22794398.693   -15517549.58849 -12067976.17846  22794398.496    22794406.364
  21495621.923   -21592008.20449 -16809740.80847  21495621.411    21495627.814
  20567409.949   -25946946.64149 -20192769.49948  20567409.339    20567416.266
 03  2 27  0 20  0.0000000  0  8G 6G17G16G26G15G29G18G23
  20691830.270   -28009053.29249 -21811396.00247  20691829.984    20691836.963
  20955136.552   -25504983.36349 -19826817.68848  20955135.801    20955143.262
  23673971.872    -8536588.61449  -6342123.22345  23673971.391    23673980.696
  21594035.863   -22362476.26049 -17408463.64247  21594035.800    21594043.491
  22068176.373   -18395510.96149 -14307328.76146  22068175.610    22068184.008
  22799114.046   -15492770.48249 -12048667.82546  22799113.832    22799121.732
  21483169.231   -21657447.56249 -16860732.50347  21483168.692    21483175.074
  20565890.542   -25954931.24149 -20198991.27148  20565889.931    20565896.849
 03  2 27  0 20 30.0000000  0  8G 6G17G16G26G15G29G18G23
  20700732.263   -27962273.09449 -21774943.95947  20700731.971    20700739.000
  20951413.919   -25524545.85549 -19842061.19348  20951413.168    20951420.661
  23669436.131    -8560424.28249  -6360696.47045  23669435.641    23669444.866
  21592098.709   -22372656.14649 -17416396.02247  21592098.621    21592106.342
  22056890.540   -18454818.42949 -14353542.33346  22056889.743    22056898.139
  22803933.003   -15467446.56149 -12028934.93746  22803932.775    22803940.773
  21470790.340   -21722498.90449 -16911421.83947  21470789.802    21470796.205
  20564457.410   -25962462.25949 -20204859.60348  20564456.793    20564463.738
 03  2 27  0 21  0.0000000  0  8G 6G17G16G26G15G29G18G23
  20709723.355   -27915024.86649 -21738127.21747  20709723.067    20709730.106
  20947720.152   -25543956.85549 -19857186.65648  20947719.405    20947726.903
  23665000.924    -8583731.02849  -6378857.57445  23665000.411    23665009.649
  21590283.351   -22382195.88849 -17423829.59047  21590283.258    21590290.987
  22045626.815   -18514009.59049 -14399665.28247  22045626.021    22045634.413
  22808853.296   -15441590.44649 -12008787.34946  22808853.059    22808861.104
  21458483.269   -21787173.10849 -16961817.30347  21458482.732    21458489.115
  20563108.193   -25969552.41649 -20210384.40848  20563107.577    20563114.523
 03  2 27  0 21 30.0000000  0  8G 6G17G16G26G15G29G18G23
  20718803.684   -27867307.59149 -21700944.99047  20718803.401    20718810.480
  20944055.459   -25563214.89949 -19872192.92848  20944054.723    20944062.204
  23660666.912    -8606506.76549  -6396604.90645  23660666.461    23660675.528
  21588590.271   -22391093.13549 -17430762.50747  21588590.170    21588597.899
  22034385.544   -18573082.79449 -14445696.31147  22034384.733    22034393.150
  22813874.976   -15415201.16249 -11988224.30046  22813874.753    22813882.851
  21446248.363   -21851467.95449 -17011917.16147  21446247.812    21446254.179
  20561843.001   -25976201.07649 -20215565.19148  20561842.403    20561849.344
 03  2 27  0 22  0.0000000  0  8G 6G17G16G26G15G29G18G23
  20727973.309   -27819120.98649 -21663397.03947  20727973.033    20727980.152
  20940420.249   -25582318.22049 -19887078.63748  20940419.519    20940426.966
  23656434.195    -8628750.25149  -6413937.49845  23656433.741    23656442.748
  21587019.812   -22399345.89249 -17437193.22047  21587019.707    21587027.455
  22023166.946   -18632036.65249 -14491634.34247  22023166.150    22023174.561
  22818998.285   -15388278.29549 -11967245.47546  22818998.036    22819006.140
  21434085.957   -21915381.69149 -17061720.04947  21434085.382    21434091.787
  20560661.858   -25982408.17249 -20220401.89048  20560661.240    20560668.187
 03  2 27  0 22 30.0000000  0  8G 6G17G16G26G15G29G18G23
  20737232.335   -27770464.45249 -21625482.91747  20737232.073    20737239.242
  20936814.685   -25601265.65349 -19901842.88248  20936813.945    20936821.429
  23652302.997    -8650460.13449  -6430854.29945  23652302.512    23652311.439
  21585572.360   -22406952.21549 -17443120.22447  21585572.269    21585580.032
  22011971.343   -18690869.93849 -14537478.42747  22011970.500    22011978.900
  22824223.226   -15360821.29049 -11945850.43346  22824222.969    22824231.111
  21421996.441   -21978912.27849 -17111224.38747  21421995.891    21422002.334
  20559564.748   -25988173.67549 -20224894.49948  20559564.140    20559571.063
 03  2 27  0 23  0.0000000  0  8G 6G17G16G26G15G29G18G23
  20746580.620   -27721339.10549 -21587203.48347  20746580.341    20746587.545
  20933238.659   -25620057.75549 -19916486.08748  20933237.921    20933245.412
  23648273.223    -8671636.57349  -6447355.41745  23648272.711    23648281.709
  21584247.972   -22413911.75149 -17448543.22747  21584247.906    21584255.697
  22000798.645   -18749582.81249 -14583228.68747  22000797.795    22000806.166
  22829549.521   -15332831.51649 -11924040.25446  22829549.232    22829557.475
  21409979.975   -22042059.30849 -17160429.84447  21409979.420    21409985.833
  20558551.410   -25993498.86149 -20229043.99848  20558550.781    20558557.694
 03  2 27  0 23 30.0000000  0  8G 6G17G16G26G15G29G18G23
  20756018.112   -27671745.16049 -21548558.90047  20756017.828    20756025.033
  20929692.435   -25638693.10149 -19931007.14548  20929691.696    20929699.210
  23644345.110    -8692278.76749  -6463440.24145  23644344.571    23644353.643
  21583046.943   -22420223.27549 -17453461.29147  21583046.857    21583054.641
  21989648.926   -18808174.80449 -14628884.74947  21989648.104    21989656.417
  22834977.121   -15304309.05949 -11901814.99546  22834976.894    22834985.150
  21398036.742   -22104821.62949 -17209335.52647  21398036.158    21398042.552
  20557621.729   -25998384.27049 -20232850.81348  20557621.105    20557628.029
 03  2 27  0 24  0.0000000  0  8G 6G17G16G26G15G29G18G23
  20765544.627   -27621683.12949 -21509549.57647  20765544.343    20765551.551
  20926175.998   -25657171.99549 -19945406.29248  20926175.270    20926182.796
  23640518.696    -8712386.42349  -6479108.54845  23640518.230    23640527.233
  21581969.314   -22425886.02649 -17457873.81747  21581969.264    21581977.058
  21978522.335   -18866645.19749 -14674446.05947  21978521.496    21978529.815
  22840506.126   -15275254.39049 -11879175.01746  22840505.877    22840514.130
  21386166.816   -22167198.37849 -17257940.76247  21386166.245    21386172.616
  20556775.579   -26002830.88249 -20236315.70948  20556774.951    20556781.884
 03  2 27  0 24 30.0000000  0  8G 6G17G16G26G15G29G18G23
  20775160.088   -27571153.77749 -21470176.10847  20775159.806    20775167.032
  20922689.464   -25675493.94449 -19959683.14348  20922688.714    20922696.252
  23636794.006    -8731959.66249  -6494360.40445  23636793.538    23636802.627
  21581015.324   -22430899.15249 -17461780.14647  21581015.264    21581023.069
  21967418.936   -18924993.76049 -14719912.44647  21967418.083    21967426.413
  22846136.179   -15245668.41649 -11856121.04746  22846135.929    22846144.123
  21374370.338   -22229188.97549 -17306245.09647  21374369.772    21374376.169
  20556012.746   -26006839.75049 -20239439.50648  20556012.109    20556019.052
 03  2 27  0 25  0.0000000  0  8G 6G17G16G26G15G29G18G23
  20784864.367   -27520157.76949 -21430439.00747  20784864.068    20784871.305
  20919232.938   -25693658.04149 -19973836.99448  20919232.197    20919239.745
  23633171.112    -8750997.93049  -6509195.40245  23633170.657    23633179.768
  21580185.116   -22435261.78949 -17465179.58347  21580185.079    21580192.895
  21956338.739   -18983220.41649 -14765283.83047  21956337.924    21956346.218
  22851867.277   -15215551.71149 -11832653.52046  22851867.021    22851875.170
  21362647.517   -22290792.59749 -17354247.89247  21362646.957    21362653.350
  20555332.988   -26010411.75349 -20242222.88348  20555332.360    20555339.291
 03  2 27  0 25 30.0000000  0  8G 6G17G16G26G15G29G18G23
  20794657.256   -27468696.00849 -21390338.98847  20794656.948    20794664.185
  20915806.355   -25711664.81149 -19987868.25548  20915805.629    20915813.196
  23629649.927    -8769500.97649  -6523613.34345  23629649.554    23629658.731
  21579478.816   -22438973.46549 -17468071.78847  21579478.768    21579486.573
  21945281.769   -19041325.01049 -14810560.10447  21945280.958    21945289.236
  22857699.150   -15184905.15849 -11808773.11746  22857698.874    22857707.047
  21350998.465   -22352008.70449 -17401948.72547  21350997.912    21351004.311
  20554736.186   -26013548.06449 -20244666.76448  20554735.563    20554742.483
 03  2 27  0 26  0.0000000  0  8G 6G17G16G26G15G29G18G23
  20804538.647   -27416769.28249 -21349876.66147  20804538.328    20804545.567
  20912409.826   -25729513.69049 -20001776.48248  20912409.130    20912416.689
  23626230.696    -8787469.18749  -6537614.52545  23626230.351    23626239.451
  21578896.488   -22442033.53049 -17470456.24447  21578896.451    21578904.251
  21934248.117   -19099307.13949 -14855740.95347  21934247.307    21934255.581
  22863631.665   -15153729.79449 -11784480.65046  22863631.388    22863639.561
  21339423.250   -22412836.60449 -17449347.06247  21339422.695    21339429.099
  20554222.057   -26016249.74249 -20246771.96648  20554221.449    20554228.358
 03  2 27  0 26 30.0000000  0  8G 6G17G16G26G15G29G18G23
  20814508.395   -27364378.02249 -21309052.35547  20814508.086    20814515.364
  20909043.461   -25747204.16349 -20015561.27148  20909042.751    20909050.302
  23622913.323    -8804901.95149  -6551198.49145  23622912.968    23622922.120
  21578438.360   -22444441.20649 -17472332.34747  21578438.298    21578446.067
  21923237.851   -19157166.42349 -14900826.08047  21923237.039    21923245.275
  22869664.737   -15122026.07849 -11759776.47146  22869664.491    22869672.613
  21327922.183   -22473275.06549 -17496441.93447  21327921.637    21327928.009
  20553790.535   -26018517.45949 -20248539.01448  20553789.917    20553796.825
 03  2 27  0 27  0.0000000  0  8G 6G17G16G26G15G29G18G23
  20824566.368   -27311523.10749 -21267866.77147  20824566.073    20824573.350
  20905707.185   -25764736.43549 -20029222.78548  20905706.481    20905714.022
  23619697.804    -8821799.50749  -6564365.41045  23619697.464    23619706.525
  21578104.441   -22446195.90649 -17473699.62047  21578104.379    21578112.129
  21912250.979   -19214902.61649 -14945815.28747  21912250.185    21912258.424
  22875798.153   -15089794.79949 -11734661.22146  22875797.904    22875806.022
  21316495.305   -22533323.59549 -17543232.96847  21316494.758    21316501.127
  20553441.348   -26020352.45349 -20249968.87648  20553440.729    20553447.633
 03  2 27  0 27 30.0000000  0  8G 6G17G16G26G15G29G18G23
  20834712.336   -27258205.82449 -21226320.89347  20834712.049    20834719.326
  20902401.113   -25782109.98249 -20042760.61648  20902400.409    20902407.971
  23616584.045    -8838162.13849  -6577115.50245  23616583.749    23616592.867
  21577894.817   -22447297.66149 -17474558.11947  21577894.744    21577902.459
  21901287.540   -19272515.73549 -14990708.58947  21901286.765    21901295.000
  22882031.666   -15057037.26249 -11709135.87946  22882031.460    22882039.600
  21305142.647   -22592982.20649 -17589720.16547  21305142.087    21305148.471
  20553174.214   -26021756.36349 -20251062.83248  20553173.584    20553180.497
 03  2 27  0 28  0.0000000  0  8G 6G17G16G26G15G29G18G23
  20844946.300   -27204426.37649 -21184414.88547  20844946.004    20844953.289
  20899125.389   -25799324.09449 -20056174.21048  20899124.667    20899132.252
  23613572.333    -8853989.07649  -6589448.17645  23613571.984    23613581.108
  21577809.640   -22447745.29149 -17474906.89947  21577809.553    21577817.279
  21890347.731   -19330004.81449 -15035505.24047  21890346.948    21890355.191
  22888365.351   -15023753.86749 -11683200.80246  22888365.104    22888373.237
  21293864.413   -22652249.66649 -17635902.57147  21293863.835    21293870.186
  20552989.005   -26022729.62149 -20251821.21748  20552988.382    20552995.261
 03  2 27  0 28 30.0000000  0  8G 6G17G16G26G15G29G18G23
  20855267.934   -27150186.19149 -21142149.86647  20855267.619    20855274.920
  20895880.044   -25816378.67649 -20069463.49048  20895879.314    20895886.889
  23610662.535    -8869280.78049  -6601363.79345  23610662.188    23610671.171
  21577848.905   -22447538.68549 -17474745.89047  21577848.836    21577856.565
  21879431.458   -19387370.18949 -15080205.49647  21879430.675    21879438.895
  22894798.826   -14989945.95849 -11656856.99046  22894798.551    22894806.676
  21282660.663   -22711125.46549 -17681779.78847  21282660.091    21282666.475
  20552885.435   -26023273.83549 -20252245.28248  20552884.804    20552891.697
 03  2 27  0 29  0.0000000  0  8G 6G17G16G26G15G29G18G23
  20865677.082   -27095486.05349 -21099526.45247  20865676.783    20865684.082
  20892664.951   -25833274.02849 -20082628.69948  20892664.210    20892671.791
  23607854.488    -8884037.47449  -6612862.51445  23607854.113    23607863.134
  21578012.776   -22446677.57549 -17474074.87647  21578012.733    21578020.418
  21868538.771   -19444611.52749 -15124809.09547  21868537.976    21868546.180
  22901331.927   -14955614.47949 -11630105.19946  22901331.658    22901339.830
  21271531.493   -22769609.39149 -17727351.64647  21271530.936    21271537.314
  20552863.284   -26023390.20849 -20252335.96548  20552862.669    20552869.576
 03  2 27  0 29 30.0000000  0  8G 6G17G16G26G15G29G18G23
  20876173.642   -27040326.36849 -21056544.93547  20876173.346    20876180.650
  20889480.440   -25850008.73949 -20095668.73248  20889479.714    20889487.282
  23605148.232    -8898258.80549  -6623944.08645  23605147.856    23605156.850
  21578301.363   -22445161.01949 -17472893.12747  21578301.323    21578308.983
  21857669.838   -19501728.15749 -15169315.52447  21857669.031    21857677.202
  22907964.499   -14920759.90549 -11602945.80746  22907964.257    22907972.480
  21260477.124   -22827700.36849 -17772617.31147  21260476.568    21260482.947
  20552922.407   -26023079.44949 -20252093.81948  20552921.788    20552928.712
 03  2 27  0 30  0.0000000  0  8G 6G17G16G26G15G29G18G23
  20886757.492   -26984708.03849 -21013206.04047  20886757.219    20886764.516
  20886326.462   -25866582.88149 -20108583.65248  20886325.738    20886333.316
  23602543.881    -8911944.70649  -6634608.42545  23602543.539    23602552.540
  21578714.751   -22442988.66149 -17471200.36647  21578714.697    21578722.316
  21846824.595   -19558719.92449 -15213724.65247  21846823.799    21846831.996
  22914696.380   -14885383.40449 -11575379.71846  22914696.166    22914704.419
  21249497.627   -22885397.90749 -17817576.40247  21249497.069    21249503.430
  20553062.582   -26022342.68149 -20251519.71948  20553061.971    20553068.900
 03  2 27  0 30 30.0000000  0  8G 6G17G16G26G15G29G18G23
  20897428.376   -26928632.52949 -20969510.90547  20897428.101    20897435.399
  20883203.090   -25882996.39449 -20121373.40448  20883202.360    20883209.936
  23600041.341    -8925095.98049  -6644856.17045  23600041.001    23600049.916
  21579252.884   -22440160.62349 -17468996.70047  21579252.854    21579260.457
  21836003.087   -19615586.93949 -15258036.57947  21836002.310    21836010.532
  22921527.360   -14849486.15149 -11547407.84046  22921527.197    22921535.455
  21238593.044   -22942701.77049 -17862228.72947  21238592.468    21238598.817
  20553283.549   -26021181.58849 -20250614.97248  20553282.928    20553289.855
 03  2 27  0 31  0.0000000  0  8G 6G17G16G26G15G29G18G23
  20908186.213   -26872100.05149 -20925459.67847  20908185.944    20908193.230
  20880110.395   -25899248.50049 -20134037.37848  20880109.661    20880117.251
  23597640.666    -8937711.79349  -6654686.66645  23597640.313    23597649.096
  21579915.925   -22436676.13749 -17466281.50147  21579915.925    21579923.504
  21825205.586   -19672328.25649 -15302250.55147  21825204.785    21825212.997
  22928457.391   -14813068.84849 -11519030.74146  22928457.199    22928465.404
  21227763.600   -22999610.76449 -17906573.36347  21227763.035    21227769.358
  20553585.088   -26019596.77749 -20249380.05048  20553584.470    20553591.418
 03  2 27  0 31 30.0000000  0  8G 6G17G16G26G15G29G18G23
  20919030.694   -26815112.15149 -20881053.57547  20919030.417    20919037.725
  20877048.418   -25915339.37449 -20146575.71948  20877047.671    20877055.248
  23595341.712    -8949793.14849  -6664100.70945  23595341.365    23595350.072
  21580703.908   -22432535.31049 -17463054.87347  21580703.889    21580711.452
  21814431.810   -19728944.43749 -15346367.01347  21814431.024    21814439.237
  22935486.154   -14776132.93249 -11490249.53546  22935485.913    22935494.080
  21217009.324   -23056124.90249 -17950610.31847  21217008.751    21217015.048
  20553966.956   -26017590.03249 -20247816.35348  20553966.345    20553973.316
 03  2 27  0 32  0.0000000  0  8G 6G17G16G26G15G29G18G23
  20929961.729   -26757669.22949 -20836292.91247  20929961.449    20929968.786
  20874017.284   -25931268.04649 -20158987.66948  20874016.559    20874024.132
  23593144.587    -8961339.33549  -6673097.72745  23593144.116    23593152.900
  21581616.948   -22427737.15249 -17459316.03947  21581616.918    21581624.506
  21803682.175   -19785434.02749 -15390384.84247  21803681.385    21803689.592
  22942613.468   -14738678.91349 -11461064.58246  22942613.209    22942621.378
  21206330.333   -23112243.24249 -17994338.86247  21206329.763    21206336.077
  20554429.014   -26015161.87649 -20245924.28248  20554428.405    20554435.368
 03  2 27  0 32 30.0000000  0  8G 6G17G16G26G15G29G18G23
  20940979.114   -26699772.77649 -20791178.84247  20940978.832    20940986.171
  20871017.021   -25947034.48349 -20171273.19948  20871016.306    20871023.860
  23591048.965    -8972351.35349  -6681678.51445  23591048.557    23591057.371
  21582654.957   -22422282.29049 -17455065.48447  21582654.919    21582662.521
  21792956.599   -19841797.31149 -15434304.23547  21792955.791    21792964.018
  22949838.977   -14700708.36349 -11431477.16046  22949838.738    22949846.970
  21195726.635   -23167965.72249 -18037758.93847  21195726.084    21195732.387
  20554970.936   -26012314.12049 -20243705.24648  20554970.330    20554977.295
 03  2 27  0 33  0.0000000  0  8G 6G17G16G26G15G29G18G23
  20952082.765   -26641422.86449 -20745711.43647  20952082.485    20952089.842
  20868047.876   -25962637.41749 -20183431.32048  20868047.152    20868054.712
  23589055.173    -8982828.58649  -6689842.57745  23589054.777    23589063.515
  21583818.183   -22416169.51249 -17450302.26747  21583818.124    21583825.754
  21782255.269   -19898033.00949 -15478124.21847  21782254.479    21782262.679
  22957162.827   -14662221.40549 -11401487.32446  22957162.597    22957170.858
  21185198.638   -23223290.87149 -18080869.41447  21185198.083    21185204.354
  20555592.609   -26009047.15349 -20241159.55748  20555591.990    20555598.945
 03  2 27  0 33 30.0000000  0  8G 6G17G16G26G15G29G18G23
  20963272.291   -26582621.75849 -20699892.44647  20963272.019    20963279.396
  20865109.662   -25978077.84649 -20195462.81248  20865108.956    20865116.528
  23587163.027    -8992772.19449  -6697590.83245  23587162.577    23587171.288
  21585106.382   -22409399.66449 -17445027.04847  21585106.362    21585113.978
  21771578.076   -19954141.98749 -15521845.45647  21771577.271    21771585.465
  22964584.518   -14623220.54749 -11371097.05946  22964584.239    22964592.503
  21174746.054   -23278219.33449 -18123670.78347  21174745.499    21174751.786
  20556293.629   -26005363.28349 -20238289.00948  20556293.005    20556299.961
 03  2 27  0 34  0.0000000  0  8G 6G17G16G26G15G29G18G23
  20974547.566   -26523369.84949 -20653722.18547  20974547.283    20974554.695
  20862202.608   -25993354.47749 -20207366.66748  20862201.888    20862209.462
  23585372.462    -9002181.68649  -6704922.89145  23585372.086    23585380.710
  21586519.823   -22401972.10949 -17439239.33047  21586519.783    21586527.385
  21760925.160   -20010123.34349 -15565467.24647  21760924.335    21760932.545
  22972103.951   -14583705.99349 -11340306.51546  22972103.654    22972111.899
  21164369.104   -23332750.21649 -18166162.34747  21164368.563    21164374.849
  20557073.844   -26001263.18149 -20235094.12148  20557073.234    20557080.194
 03  2 27  0 34 30.0000000  0  8G 6G17G16G26G15G29G18G23
  20985908.364   -26463668.70049 -20607201.86147  20985908.098    20985915.511
  20859326.590   -26008467.91149 -20219143.35348  20859325.859    20859333.454
  23583683.343    -9011058.04349  -6711839.54245  23583682.956    23583691.555
  21588058.304   -22393887.31649 -17432939.46947  21588058.278    21588065.861
  21750296.427   -20065977.32749 -15608989.78047  21750295.624    21750303.848
  22979720.685   -14543679.66249 -11309117.18246  22979720.401    22979728.696
  21154067.834   -23386883.60349 -18208344.17147  21154067.314    21154073.571
  20557932.933   -25996748.72549 -20231576.35448  20557932.310    20557939.282
 03  2 27  0 35  0.0000000  0  8G 6G17G16G26G15G29G18G23
  20997354.630   -26403518.63849 -20560331.74147  20997354.344    20997361.758
  20856481.868   -26023416.75449 -20230791.79148  20856481.149    20856488.738
  23582095.646    -9019401.02849  -6718340.56845  23582095.246    23582103.957
  21589721.995   -22385144.57949 -17426126.93547  21589721.947    21589729.556
  21739692.157   -20121702.82249 -15652412.20747  21739691.375    21739699.573
  22987434.764   -14503142.10549 -11277529.47646  22987434.490    22987442.747
  21143842.499   -23440618.07449 -18250215.15847  21143841.963    21143848.229
  20558870.725   -25991820.60849 -20227736.26348  20558870.100    20558877.082
 03  2 27  0 35 30.0000000  0  8G 6G17G16G26G15G29G18G23
  21008886.043   -26342920.90949 -20513112.78847  21008885.741    21008893.188
  20853668.594   -26038200.66549 -20242311.70848  20853667.876    20853675.465
  23580609.381    -9027211.10449  -6724426.33545  23580608.905    23580617.794
  21591510.814   -22375744.08749 -17418801.87247  21591510.748    21591518.379
  21729112.440   -20177299.56249 -15695734.29847  21729111.649    21729119.837
  22995245.878   -14462094.37849 -11245544.23246  22995245.583    22995253.919
  21133693.045   -23493953.70349 -18291775.35247  21133692.509    21133698.775
  20559886.971   -25986480.12949 -20223574.84548  20559886.347    20559893.339
 03  2 27  0 36  0.0000000  0  8G 6G17G16G26G15G29G18G23
  21020502.209   -26281877.52649 -20465546.57347  21020501.929    21020509.391
  20850886.595   -26052820.27749 -20253703.61148  20850885.882    20850893.454
  23579224.485    -9034489.41249  -6730097.73545  23579223.973    23579232.793
  21593424.718   -22365686.42449 -17410964.72947  21593424.643    21593432.294
  21718557.073   -20232767.99849 -15738956.41447  21718556.286    21718564.497
  23003153.598   -14420538.77149 -11213163.25346  23003153.357    23003161.659
  21123619.436   -23546890.63949 -18333024.88447  21123618.893    21123625.153
  20560981.265   -25980729.44849 -20219093.79448  20560980.659    20560987.629
 03  2 27  0 36 30.0000000  0  8G 6G17G16G26G15G29G18G23
  21032203.201   -26220388.69949 -20417633.25647  21032202.929    21032210.402
  20848136.130   -26067273.99649 -20264966.24148  20848135.406    20848142.967
  23577940.760    -9041235.39249  -6735354.35545  23577940.302    23577949.054
  21595463.827   -22354970.83249 -17402614.91947  21595463.742    21595471.376
  21708026.426   -20288106.80749 -15782077.52047  21708025.646    21708033.823
  23011158.009   -14378475.52849 -11180386.69946  23011157.737    23011166.006
  21113621.996   -23599427.54749 -18373962.70047  21113621.454    21113627.699
  20562153.618   -25974568.85949 -20214293.32548  20562153.008    20562159.966
 03  2 27  0 37  0.0000000  0  8G 6G17G16G26G15G29G18G23
  21043988.673   -26158455.80649 -20369373.91247  21043988.420    21043995.890
  20845417.268   -26081561.72349 -20276099.52748  20845416.548    20845424.116
  23576758.275    -9047449.49749  -6740196.51045  23576757.780    23576766.547
  21597628.113   -22343597.49149 -17393752.56947  21597628.043    21597635.688
  21697520.476   -20343315.92949 -15825097.56747  21697519.690    21697527.823
  23019258.622   -14335906.20949 -11147215.81146  23019258.339    23019266.614
  21103700.637   -23651564.44849 -18414588.81947  21103700.072    21103706.338
  20563403.607   -25967999.99249 -20209174.71848  20563402.992    20563409.961
 03  2 27  0 37 30.0000000  0  8G 6G17G16G26G15G29G18G23
  21055858.387   -26096080.10449 -20320769.52247  21055858.133    21055865.647
  20842730.011   -26095683.18849 -20287103.26448  20842729.289    20842736.872
  23575676.878    -9053132.52049  -6744624.83345  23575676.289    23575685.066
  21599917.431   -22331566.76049 -17384377.96547  21599917.358    21599925.035
  21687039.182   -20398395.08249 -15868016.34447  21687038.426    21687046.544
  23027455.279   -14292832.17649 -11113651.63446  23027455.005    23027463.289
  21093855.466   -23703301.02849 -18454903.00147  21093854.908    21093861.174
  20564731.035   -25961024.36249 -20203739.15148  20564730.413    20564737.375
 03  2 27  0 38  0.0000000  0  8G 6G17G16G26G15G29G18G23
  21067812.271   -26033262.13449 -20271820.50447  21067812.007    21067819.559
  20840074.703   -26109637.01049 -20297976.36148  20840073.987    20840081.570
  23574696.410    -9058284.30949  -6748639.19545  23574695.868    23574704.695
  21602331.970   -22318877.98949 -17374490.59747  21602331.927    21602339.615
  21676582.819   -20453343.26349 -15910833.05347  21676582.075    21676590.201
  23035747.945   -14249253.99049 -11079694.62346  23035747.694    23035755.897
  21084086.623   -23754636.35349 -18494904.51347  21084086.091    21084092.337
  20566135.738   -25953642.60849 -20197987.11948  20566135.121    20566142.059
 03  2 27  0 38 30.0000000  0  8G 6G17G16G26G15G29G18G23
  21079850.000   -25970003.72949 -20222528.30147  21079849.744    21079857.309
  20837451.138   -26123423.82949 -20308719.33548  20837450.413    20837457.993
  23573816.973    -9062905.94449  -6752240.46745  23573816.467    23573825.218
  21604871.593   -22305532.21549 -17364091.28447  21604871.569    21604879.227
  21666151.398   -20508160.54249 -15953547.77047  21666150.686    21666158.770
  23044136.141   -14205173.75249 -11045346.39546  23044135.867    23044144.065
  21074394.101   -23805570.63049 -18534593.52447  21074393.551    21074399.825
  20567617.304   -25945856.85649 -20191920.28648  20567616.685    20567623.613
 03  2 27  0 39  0.0000000  0  8G 6G17G16G26G15G29G18G23
  21091971.280   -25906306.15049 -20172893.88047  21091971.032    21091978.605
  20834859.455   -26137043.32849 -20319331.92248  20834858.727    20834866.291
  23573038.252    -9066998.12549  -6755429.17645  23573037.726    23573046.467
  21607536.243   -22291529.42249 -17353180.00247  21607536.204    21607543.886
  21655744.982   -20562846.69149 -15996160.30647  21655744.220    21655752.294
  23052619.568   -14160592.91149 -11010608.08946  23052619.313    23052627.505
  21064777.904   -23856103.75449 -18573969.94347  21064777.388    21064783.653
  20569175.485   -25937668.51949 -20185539.74948  20569174.877    20569181.787
 03  2 27  0 39 30.0000000  0  8G 6G17G16G26G15G29G18G23
  21104175.973   -25842170.26149 -20122917.91547  21104175.703    21104183.297
  20832299.731   -26150494.57449 -20329813.40548  20832299.000    20832306.571
  23572360.220    -9070560.97849  -6758205.41045  23572359.755    23572368.455
  21610325.841   -22276869.68249 -17341756.81247  21610325.823    21610333.500
  21645363.621   -20617400.99549 -16038670.09547  21645362.857    21645370.942
  23061198.153   -14115512.48349 -10975480.51146  23061197.835    23061206.052
  21055238.217   -23906234.94649 -18613033.16847  21055237.692    21055243.958
  20570810.048   -25929078.76349 -20178846.41748  20570809.435    20570816.341
 03  2 27  0 40  0.0000000  0  8G 6G17G16G26G15G29G18G23
  21116463.793   -25777597.63349 -20072601.64047  21116463.517    21116471.123
  20829772.119   -26163777.35149 -20340163.61448  20829771.389    20829778.966
  23571782.773    -9073595.34849  -6760569.85145  23571782.235    23571791.058
  21613240.422   -22261553.61949 -17329822.20347  21613240.415    21613248.021
  21635007.348   -20671823.28249 -16081077.01647  21635006.577    21635014.672
  23069871.331   -14069934.25049 -10939965.02346  23069871.080    23069879.363
  21045775.036   -23955964.23549 -18651783.21847  21045774.494    21045780.767
  20572520.656   -25920089.28949 -20171841.62148  20572520.051    20572526.961
 03  2 27  0 40 30.0000000  0  8G 6G17G16G26G15G29G18G23
  21128834.529   -25712589.18049 -20021945.75647  21128834.242    21128841.879
  20827276.649   -26176890.86549 -20350381.92848  20827275.937    20827283.505
  23571305.829    -9076101.43449  -6762522.64145  23571305.294    23571314.163
  21616279.876   -22245581.14249 -17317376.10247  21616279.851    21616287.421
  21624676.351   -20726112.97649 -16123380.62347  21624675.539    21624683.661
  23078639.094   -14023858.98149 -10904062.24546  23078638.891    23078647.228
  21036388.392   -24005291.16749 -18690219.74447  21036387.852    21036394.112
  20574307.169   -25910701.10449 -20164526.13948  20574306.544    20574313.469
 03  2 27  0 41  0.0000000  0  8G 6G17G16G26G15G29G18G23
  21141287.941   -25647146.22649 -19970951.30647  21141287.661    21141295.314
  20824813.536   -26189834.49749 -20360467.87148  20824812.832    20824820.396
  23570929.384    -9078079.81849  -6764064.23945  23570928.905    23570937.729
  21619444.220   -22228952.48049 -17304418.69447  21619444.180    21619451.727
  21614370.644   -20780269.55349 -16165580.50547  21614369.843    21614377.947
  23087501.317   -13977288.13949 -10867773.31146  23087501.106    23087509.363
  21027078.426   -24054215.20849 -18728342.33347  21027077.877    21027084.145
  20576169.293   -25900915.52849 -20156901.00548  20576168.685    20576175.602
 03  2 27  0 41 30.0000000  0  8G 6G17G16G26G15G29G18G23
  21153823.710   -25581270.64549 -19919619.73747  21153823.403    21153831.078
  20822382.778   -26202608.16949 -20370421.37248  20822382.065    20822389.640
  23570653.124    -9079531.63849  -6765195.52645  23570652.667    23570661.448
  21622733.214   -22211668.48249 -17290950.62647  21622733.163    21622740.747
  21604090.287   -20834293.01349 -16207676.65647  21604089.480    21604097.567
  23096457.400   -13930223.73449 -10831099.76546  23096457.166    23096465.461
  21017845.049   -24102736.88049 -18766151.38147  21017844.479    21017850.708
  20578106.673   -25890734.51949 -20148967.73948  20578106.054    20578112.976
 03  2 27  0 42  0.0000000  0  8G 6G17G16G26G15G29G18G23
  21166441.678   -25514962.96349 -19867951.47347  21166441.387    21166449.055
  20819984.532   -26215211.08449 -20380241.81748  20819983.815    20819991.397
  23570476.993    -9080457.00849  -6765916.59345  23570476.578    23570485.324
  21626147.021   -22193728.92249 -17276971.74347  21626146.970    21626154.525
  21593835.469   -20888182.26449 -16249668.23147  21593834.650    21593842.719
  23105507.136   -13882666.52749 -10794042.23346  23105506.990    23105515.297
  21008688.419   -24150855.13849 -18803646.08747  21008687.858    21008694.061
  20580119.143   -25880158.88949 -20140726.97848  20580118.510    20580125.433
 03  2 27  0 42 30.0000000  0  8G 6G17G16G26G15G29G18G23
  21179141.603   -25448224.72249 -19815947.70847  21179141.295    21179148.993
  20817618.875   -26227642.71549 -20389928.79448  20817618.143    20817625.701
  23570400.968    -9080856.74249  -6766228.06645  23570400.511    23570409.178
  21629685.417   -22175134.33349 -17262482.45147  21629685.380    21629692.923
  21583606.220   -20941937.13249 -16291555.09047  21583605.381    21583613.477
  23114650.426   -13834618.16649 -10756601.97346  23114650.290    23114658.580
  20999608.557   -24198569.99249 -18840826.45447  20999607.994    20999614.189
  20582206.396   -25869190.34349 -20132180.05348  20582205.775    20582212.683
 03  2 27  0 43  0.0000000  0  8G 6G17G16G26G15G29G18G23
  21191923.173   -25381057.25749 -19763609.48647  21191922.877    21191930.606
  20815285.847   -26239902.72649 -20399482.04048  20815285.118    20815292.680
  23570424.778    -9080731.60249  -6766130.55145  23570424.405    23570432.977
  21633348.341   -22155885.40949 -17247483.29047  21633348.315    21633355.907
  21573402.580   -20995557.15349 -16333336.88147  21573401.765    21573409.863
  23123886.939   -13786080.29849 -10718780.28946  23123886.736    23123895.086
  20990605.474   -24245881.35749 -18877692.41147  20990604.907    20990611.074
  20584368.078   -25857830.51349 -20123328.22948  20584367.459    20584374.352
 03  2 27  0 43 30.0000000  0  8G 6G17G16G26G15G29G18G23
  21204786.187   -25313461.83949 -19710937.78547  21204785.892    21204793.643
  20812985.521   -26251990.88749 -20408901.37648  20812984.800    20812992.370
  23570548.381    -9080082.20449  -6765624.52945  23570547.959    23570556.557
  21637135.700   -22135982.39449 -17231974.44847  21637135.692    21637143.280
  21563224.730   -21049041.98549 -16375013.32447  21563223.901    21563231.977
  23133216.239   -13737054.39349 -10680578.29446  23133216.028    23133224.420
  20981679.217   -24292788.89949 -18914243.70147  20981678.656    20981684.805
  20586603.969   -25846080.68749 -20114172.51048  20586603.351    20586610.266
 03  2 27  0 44  0.0000000  0  8G 6G17G16G26G15G29G18G23
  21217730.264   -25245440.25249 -19657934.00847  21217729.971    21217737.767
  20810717.997   -26263906.72749 -20418186.43648  20810717.280    20810724.860
  23570771.577    -9078909.50949  -6764710.73445  23570771.105    23570779.796
  21641047.375   -22115426.16749 -17215956.60747  21641047.414    21641054.997
  21553072.612   -21102391.56449 -16416584.37447  21553071.799    21553079.862
  23142638.130   -13687542.18849 -10641997.37446  23142637.885    23142646.286
  20972829.795   -24339292.79549 -18950480.46447  20972829.233    20972835.379
  20588913.799   -25833942.57249 -20104714.23348  20588913.172    20588920.083
 03  2 27  0 44 30.0000000  0  8G 6G17G16G26G15G29G18G23
  21230755.313   -25176993.33749 -19604598.80747  21230755.034    21230762.845
  20808483.467   -26275649.27549 -20427336.46448  20808482.757    20808490.334
  23571094.182    -9077213.95249  -6763389.52345  23571093.762    23571102.400
  21645083.387   -22094216.83649 -17199429.85247  21645083.411    21645091.027
  21542946.469   -21155604.69349 -16458049.10647  21542945.659    21542953.683
  23152152.362   -13637544.76049 -10603038.36246  23152152.109    23152160.500
  20964057.334   -24385392.26349 -18986402.09147  20964056.786    20964062.915
  20591297.277   -25821417.17249 -20094954.17948  20591296.652    20591303.575
 03  2 27  0 45  0.0000000  0  8G 6G17G16G26G15G29G18G23
  21243860.953   -25108122.92249 -19550933.59347  21243860.681    21243868.506
  20806281.905   -26287218.46849 -20436351.40948  20806281.181    20806288.780
  23571516.032    -9074996.79949  -6761661.87245  23571515.629    23571524.275
  21649243.498   -22072355.26249 -17182394.84847  21649243.531    21649251.115
  21532846.294   -21208681.39849 -16499407.52847  21532845.462    21532853.479
  23161758.518   -13587064.12249 -10563702.80846  23161758.308    23161766.654
  20955361.770   -24431087.66749 -19022008.86047  20955361.215    20955367.342
  20593754.077   -25808506.56149 -20084893.95548  20593753.461    20593760.386
 03  2 27  0 45 30.0000000  0  8G 6G17G16G26G15G29G18G23
  21257046.967   -25038830.16449 -19496939.28347  21257046.683    21257054.502
  20804113.504   -26298613.37549 -20445230.54948  20804112.812    20804120.402
  23572037.171    -9072258.39549  -6759528.03845  23572036.739    23572045.395
  21653527.694   -22049841.75349 -17164851.84447  21653527.704    21653535.305
  21522772.197   -21261620.71849 -16540658.90147  21522771.405    21522779.429
  23171456.369   -13536101.39549 -10523991.61246  23171456.204    23171464.566
  20946743.149   -24476378.57349 -19057300.44047  20946742.592    20946748.717
  20596283.947   -25795211.86649 -20074534.44148  20596283.340    20596290.274
 03  2 27  0 46  0.0000000  0  8G 6G17G16G26G15G29G18G23
  21270312.991   -24969116.77149 -19442617.21447  21270312.719    21270320.569
  20801978.329   -26309833.70449 -20453973.65948  20801977.631    20801985.234
  23572657.237    -9068999.72849  -6756988.81245  23572656.849    23572665.464
  21657935.769   -22026677.21349 -17146801.55347  21657935.753    21657943.371
  21512724.231   -21314422.73449 -16581803.28347  21512723.452    21512731.462
  23181245.784   -13484658.47749 -10483906.24246  23181245.577    23181253.877
  20938201.522   -24521265.07549 -19092276.90647  20938200.955    20938207.064
  20598886.572   -25781534.94449 -20063877.09348  20598885.958    20598892.892
 03  2 27  0 46 30.0000000  0  8G 6G17G16G26G15G29G18G23
  21283658.902   -24898983.89549 -19387968.27047  21283658.620    21283666.470
  20799876.534   -26320878.73349 -20462580.16548  20799875.836    20799883.407
  23573376.214    -9065221.57349  -6754044.79945  23573375.742    23573384.439
  21662467.636   -22002862.18049 -17128244.37047  21662467.606    21662475.219
  21502702.536   -21367086.65549 -16622840.05647  21502701.760    21502709.807
  23191126.202   -13432736.91849 -10443447.89146  23191125.947    23191134.212
  20929736.867   -24565746.95049 -19126938.07247  20929736.305    20929742.414
  20601561.698   -25767477.08449 -20052922.90948  20601561.096    20601568.045
 03  2 27  0 47  0.0000000  0  9G 6G 2G17G16G26G15G29G18G23
  21297083.804   -24828435.75249 -19332995.74047  21297083.516    21297091.385
  25117567.349    -4546312.93849  -3347594.59345  25117566.611    25117578.948
  20797807.661   -26331750.69049 -20471051.81048  20797806.958    20797814.543
  23574193.145    -9060928.13249  -6750699.25645  23574192.676    23574201.431
  21667122.587   -21978400.04549 -17109182.95647  21667122.563    21667130.178
  21492706.712   -21419614.80549 -16663771.03647  21492705.959    21492714.000
  23201096.840   -13380341.07749 -10402619.97346  23201096.575    23201104.823
  20921348.726   -24609826.70849 -19161285.90047  20921348.182    20921354.292
  20604308.486   -25753042.53449 -20041675.20048  20604307.894    20604314.815
 03  2 27  0 47 30.0000000  0  9G 6G 2G17G16G26G15G29G18G23
  21310587.229   -24757475.16949 -19277701.83247  21310586.938    21310594.778
  25112633.319    -4572241.26249  -3367798.41545  25112632.616    25112644.879
  20795771.613   -26342450.33649 -20479389.18848  20795770.887    20795778.477
  23575107.929    -9056121.04549  -6746953.47345  23575107.433    23575116.068
  21671900.352   -21953292.87649 -17089618.91847  21671900.316    21671907.941
  21482736.618   -21472007.87049 -16704596.75547  21482735.862    21482743.866
  23211157.085   -13327474.01549 -10361424.86946  23211156.830    23211165.147
  20913036.900   -24653505.63549 -19195321.39547  20913036.346    20913042.422
  20607126.388   -25738234.23849 -20030136.25748  20607125.794    20607132.713
 03  2 27  0 48  0.0000000  0  9G 6G 2G17G16G26G15G29G18G23
  21324170.152   -24686096.60849 -19222082.23147  21324169.854    21324177.707
  25107779.723    -4597746.90549  -3387672.88645  25107779.096    25107791.296
  20793769.749   -26352970.08049 -20487586.38848  20793769.023    20793776.592
  23576121.664    -9050794.15149  -6742802.64045  23576121.210    23576129.763
  21676802.011   -21927534.53849 -17069547.47447  21676801.952    21676809.590
  21472793.739   -21524258.11149 -16745311.17847  21472792.975    21472800.940
  23221308.083   -13274130.30249 -10319858.36246  23221307.783    23221316.205
  20904802.660   -24696776.76749 -19229039.12947  20904802.107    20904808.139
  20610016.512   -25723046.61549 -20018301.73948  20610015.923    20610022.824
 03  2 27  0 48 30.0000000  0  9G 6G 2G17G16G26G15G29G18G23
  21337832.151   -24614302.51349 -19166138.82847  21337831.846    21337839.707
  25103006.422    -4622830.52349  -3407218.51445  25103005.661    25103017.887
  20791802.057   -26363310.36949 -20495643.75048  20791801.335    20791808.904
  23577233.858    -9044949.77949  -6738248.57945  23577233.391    23577241.918
  21681827.228   -21901126.64349 -17048969.89147  21681827.164    21681834.834
  21462877.875   -21576366.28449 -16785914.90347  21462877.089    21462885.013
  23231549.266   -13220312.35249 -10277922.30046  23231549.033    23231557.457
  20896645.863   -24739640.93649 -19262439.74847  20896645.304    20896651.331
  20612978.343   -25707482.14049 -20006173.57148  20612977.752    20612984.651
 03  2 27  0 49  0.0000000  0  9G 6G 2G17G16G26G15G29G18G23
  21351572.690   -24542095.69049 -19109873.82447  21351572.384    21351580.248
  25098313.203    -4647493.20949  -3426436.15545  25098312.360    25098324.613
  20789868.358   -26373471.98749 -20503561.88548  20789867.644    20789875.173
  23578444.137    -9038589.76649  -6733292.72245  23578443.643    23578452.212
  21686975.732   -21874071.02049 -17027887.57147  21686975.679    21686983.352
  21452988.939   -21628332.95549 -16826408.36247  21452988.135    21452996.046
  23241880.120   -13166023.20149 -10235619.07646  23241879.901    23241888.359
  20888566.257   -24782099.29149 -19295524.14647  20888565.707    20888571.709
  20616011.303   -25691543.68349 -19993753.98548  20616010.703    20616017.616
 03  2 27  0 49 30.0000000  0  9G 6G 2G17G16G26G15G29G18G23
  21365391.476   -24469477.77149 -19053288.49647  21365391.167    21365399.035
  25093700.117    -4671734.87849  -3445325.73045  25093699.384    25093711.517
  20787968.823   -26383454.20749 -20511340.23348  20787968.099    20787975.642
  23579752.261    -9031715.32249  -6727935.99345  23579751.747    23579760.363
  21692247.288   -21846368.76749 -17006301.38947  21692247.220    21692254.914
  21443127.010   -21680157.63949 -16866791.18547  21443126.183    21443134.116
  23252300.298   -13111264.72149 -10192950.13946  23252300.088    23252308.536
  20880563.920   -24824151.85249 -19328292.34547  20880563.357    20880569.337
  20619115.146   -25675232.86549 -19981044.25648  20619114.554    20619121.436
 03  2 27  0 50  0.0000000  0  9G 6G 2G17G16G26G15G29G18G23
  21379288.113   -24396450.51749 -18996384.20647  21379287.817    21379295.715
  25089167.182    -4695555.37549  -3463887.14045  25089166.481    25089178.514
  20786103.480   -26393256.46849 -20518978.34748  20786102.760    20786110.319
  23581158.132    -9024327.69249  -6722179.39645  23581157.614    23581166.252
  21697641.608   -21818021.04849 -16984212.23347  21697641.575    21697649.292
  21433292.095   -21731840.07549 -16907063.16747  21433291.271    21433299.206
  23262809.458   -13056038.66349 -10149916.85046  23262809.243    23262817.739
  20872638.717   -24865798.81049 -19360744.48847  20872638.163    20872644.140
  20622289.508   -25658551.67149 -19968045.92248  20622288.897    20622295.776
 03  2 27  0 50 30.0000000  0  9G 6G 2G17G16G26G15G29G18G23
  21393262.358   -24323015.42949 -18939162.11147  21393262.093    21393270.000
  25084714.376    -4718954.75549  -3482120.42945  25084713.595    25084725.718
  20784272.412   -26402878.92349 -20526476.35348  20784271.688    20784279.222
  23582661.415    -9016427.94749  -6716023.73445  23582660.894    23582669.537
  21703158.697   -21789028.70049 -16961620.78147  21703158.646    21703166.350
  21423484.347   -21783379.89449 -16947224.01247  21423483.541    21423491.458
  23273407.161   -13000347.03449 -10106520.77546  23273406.965    23273415.545
  20864790.700   -24907040.21949 -19392880.61848  20864790.156    20864796.132
  20625533.988   -25641501.53249 -19954760.09548  20625533.380    20625540.288
 03  2 27  0 51  0.0000000  0  9G 6G 2G17G16G26G15G29G18G23
  21407313.811   -24249174.90449 -18881624.08847  21407313.525    21407321.437
  25080341.614    -4741933.53249  -3500025.93745  25080340.772    25080352.921
  20782475.603   -26412321.28849 -20533834.02448  20782474.872    20782482.390
  23584261.809    -9008017.94049  -6709470.47945  23584261.265    23584269.972
  21708798.121   -21759393.40049 -16938528.32447  21708798.072    21708805.737
  21413703.736   -21834777.04849 -16987273.68847  21413702.942    21413710.820
  23284093.110   -12944192.13949 -10062763.72746  23284092.907    23284101.416
  20857019.717   -24947876.76649 -19424701.26848  20857019.186    20857025.149
  20628848.299   -25624084.79349 -19941188.61148  20628847.686    20628854.583
 03  2 27  0 51 30.0000000  0  9G 6G 2G17G16G26G15G29G18G23
  21421442.231   -24174929.78949 -18823770.80647  21421441.954    21421449.855
  25076048.987    -4764490.75849  -3517602.99245  25076048.153    25076060.504
  20780713.315   -26421582.09149 -20541050.22548  20780712.592    20780720.101
  23585959.162    -8999098.04149  -6702519.90045  23585958.581    23585967.380
  21714559.837   -21729115.35349 -16914935.03347  21714559.803    21714567.422
  21403950.570   -21886030.19549 -17027211.15747  21403949.784    21403957.618
  23294866.999   -12887574.92449 -10018646.43146  23294866.839    23294875.288
  20849325.950   -24988307.83749 -19456205.97148  20849325.392    20849331.369
  20632232.192   -25606302.28649 -19927332.11848  20632231.573    20632238.467
 03  2 27  0 52  0.0000000  0  9G 6G 2G17G16G26G15G29G18G23
  21435647.230   -24100282.30849 -18765603.97547  21435646.950    21435654.856
  25071836.681    -4786626.89049  -3534851.88045  25071835.800    25071847.948
  20778985.632   -26430661.08149 -20548124.74348  20778984.908    20778992.417
  23587753.253    -8989669.86549  -6695173.26245  23587752.719    23587761.414
  21720443.600   -21698196.03349 -16890842.04247  21720443.550    21720451.135
  21394224.781   -21937139.43849 -17067036.48347  21394223.997    21394231.806
  23305728.440   -12830497.96749  -9974170.88046  23305728.290    23305736.668
  20841709.202   -25028333.82649 -19487395.01648  20841708.666    20841714.642
  20635685.298   -25588156.10549 -19913192.23248  20635684.683    20635691.590
 03  2 27  0 52 30.0000000  0  9G 6G 2G17G16G26G15G29G18G23
  21449928.580   -24025233.75149 -18707124.63047  21449928.274    21449936.181
  25067704.514    -4808341.61049  -3551772.41545  25067703.620    25067715.726
  20777292.613   -26439557.79449 -20555057.23748  20777291.890    20777299.409
  23589643.905    -8979734.15749  -6687431.13645  23589643.409    23589652.097
  21726449.212   -21666636.26549 -16866250.00547  21726449.182    21726456.737
  21384526.556   -21988104.01749 -17106749.09547  21384525.761    21384533.541
  23316676.987   -12772962.90449  -9929338.36046  23316676.810    23316685.259
  20834169.658   -25067954.34249 -19518268.11148  20834169.125    20834175.081
  20639207.330   -25569647.69249 -19898770.09248  20639206.705    20639213.604
 03  2 27  0 53  0.0000000  0  9G 6G 2G17G16G26G15G29G18G23
  21464285.893   -23949785.56449 -18648333.88447  21464285.614    21464293.526
  25063652.425    -4829634.84249  -3568364.49645  25063651.615    25063663.804
  20775634.475   -26448271.36249 -20561847.01548  20775633.758    20775641.265
  23591630.956    -8969292.01649  -6679294.41345  23591630.494    23591639.189
  21732576.512   -21634436.95049 -16841159.61947  21732576.490    21732584.069
  21374855.928   -22038923.19849 -17146348.40847  21374855.136    21374862.920
  23327712.447   -12714971.02149  -9884149.88946  23327712.251    23327720.687
  20826707.168   -25107169.78549 -19548825.56548  20826706.611    20826712.585
  20642797.994   -25550778.52449 -19884066.83948  20642797.379    20642804.274
 03  2 27  0 53 30.0000000  0  9G 6G 2G17G16G26G15G29G18G23
  21478718.848   -23873939.99749 -18589233.49747  21478718.563    21478726.502
  25059680.535    -4850506.95049  -3584628.43445  25059679.884    25059692.060
  20774011.206   -26456801.76449 -20568494.06748  20774010.472    20774017.982
  23593714.084    -8958345.19049  -6670764.42245  23593713.592    23593722.356
  21738825.205   -21601599.70049 -16815572.14147  21738825.175    21738832.752
  21365213.030   -22089596.73149 -17185834.22647  21365212.241    21365220.029
  23338834.368   -12656524.95449  -9838607.49346  23338834.182    23338842.572
  20819321.684   -25145980.69649 -19579067.80048  20819321.134    20819327.097
  20646456.906   -25531550.73249 -19869084.14048  20646456.296    20646463.184
 03  2 27  0 54  0.0000000  0  9G 6G 2G17G16G26G15G29G18G23
  21493227.443   -23797697.07449 -18529823.49147  21493227.148    21493235.100
  25055789.143    -4870956.46549  -3600563.07645  25055788.370    25055800.429
  20772423.112   -26465146.97749 -20574996.81948  20772422.401    20772429.911
  23595893.301    -8946893.24549  -6661840.82445  23595892.803    23595901.592
  21745195.422   -21568124.10949 -16789487.25147  21745195.364    21745202.952
  21355598.201   -22140122.67449 -17225205.04347  21355597.408    21355605.198
  23350042.674   -12597624.81649  -9792711.28946  23350042.512    23350050.868
  20812013.481   -25184385.34649 -19608993.47548  20812012.933    20812018.892
  20650184.057   -25511964.36349 -19853822.02948  20650183.455    20650190.359
 03  2 27  0 54 30.0000000  0  9G 6G 2G17G16G26G15G29G18G23
  21507810.843   -23721060.98249 -18470107.11847  21507810.572    21507818.518
  25051977.740    -4890985.85949  -3616170.36645  25051976.967    25051988.938
  20770869.949   -26473308.80749 -20581356.66548  20770869.236    20770876.731
  23598167.854    -8934940.04649  -6652526.64745  23598167.399    23598176.201
  21751686.328   -21534013.72649 -16762907.71447  21751686.271    21751693.898
  21346011.081   -22190503.13049 -17264462.49147  21346010.285    21346018.071
  23361336.682   -12538274.99049  -9746464.66646  23361336.443    23361344.827
  20804782.061   -25222386.61249 -19638604.81748  20804781.500    20804787.455
  20653978.627   -25492023.59249 -19838283.75048  20653978.019    20653984.963
 03  2 27  0 55  0.0000000  0  9G 6G 2G17G16G26G15G29G18G23
  21522469.104   -23644031.60849 -18410084.27847  21522468.815    21522476.802
  25048246.577    -4910593.24049  -3631448.81045  25048245.680    25048257.751
  20769352.195   -26481284.76649 -20587571.67948  20769351.477    20769358.950
  23600538.058    -8922484.76249  -6642821.24345  23600537.608    23600546.368
  21758298.201   -21499267.82049 -16735832.97547  21758298.193    21758305.834
  21336452.119   -22240735.27849 -17303604.38047  21336451.342    21336459.102
  23372716.181   -12478475.65449  -9699867.81146  23372715.955    23372724.280
  20797627.796   -25259982.45249 -19667900.24848  20797627.252    20797633.190
  20657840.705   -25471728.29949 -19822469.22648  20657840.095    20657847.040
 03  2 27  0 55 30.0000000  0  9G 6G 2G17G16G26G15G29G18G23
  21537201.767   -23566611.18649 -18349756.73947  21537201.486    21537209.488
  25044595.542    -4929779.32749  -3646398.99945  25044594.708    25044606.640
  20767869.883   -26489074.45149 -20593641.54048  20767869.143    20767876.600
  23603003.426    -8909529.44649  -6632726.20645  23603002.901    23603011.686
  21765030.722   -21463888.23549 -16708264.45647  21765030.683    21765038.312
  21326921.445   -22290819.10949 -17342630.70047  21326920.680    21326928.398
  23384180.677   -12418229.16749  -9652922.50846  23384180.509    23384188.838
  20790550.434   -25297173.99149 -19696880.63948  20790549.902    20790555.829
  20661769.782   -25451080.76049 -19806380.22548  20661769.175    20661776.112
 03  2 27  0 56  0.0000000  0  9G 6G 2G17G16G26G15G29G18G23
  21552008.454   -23488801.59649 -18289125.94147  21552008.155    21552016.198
  25041024.652    -4948544.03549  -3661020.83745  25041023.830    25041035.794
  20766423.104   -26496677.27749 -20599565.79948  20766422.385    20766429.811
  23605563.631    -8896075.49849  -6622242.61545  23605563.109    23605571.907
  21771883.601   -21427876.23949 -16680203.15347  21771883.569    21771891.189
  21317419.136   -22340754.24149 -17381541.14647  21317418.338    21317426.037
  23395729.917   -12357537.55749  -9605630.36546  23395729.683    23395738.091
  20783550.042   -25333961.11549 -19725545.90348  20783549.508    20783555.438
  20665765.584   -25430082.66849 -19790018.06548  20665764.979    20665771.922
 03  2 27  0 56 30.0000000  0  9G 6G 2G17G16G26G15G29G18G23
  21566888.920   -23410604.32649 -18228193.05747  21566888.624    21566896.678
  25037534.090    -4966887.33549  -3675314.30045  25037533.098    25037545.251
  20765011.804   -26504093.42849 -20605344.59848  20765011.082    20765018.533
  23608218.466    -8882124.04549  -6611371.36345  23608218.011    23608226.805
  21778856.632   -21391232.76049 -16651649.79147  21778856.581    21778864.163
  21307945.217   -22390539.81449 -17420335.05847  21307944.407    21307952.100
  23407363.498   -12296402.43749  -9557992.59346  23407363.280    23407371.761
  20776626.582   -25370343.91349 -19753896.10648  20776626.051    20776631.974
  20669827.848   -25408735.29149 -19773383.73548  20669827.236    20669834.181
 03  2 27  0 57  0.0000000  0  9G 6G 2G17G16G26G15G29G18G23
  21581842.966   -23332020.51849 -18166958.98647  21581842.661    21581850.756
  25034123.717    -4984808.62049  -3689278.91345  25034122.708    25034134.992
  20763636.542   -26511320.49349 -20610976.05748  20763635.824    20763643.278
  23610967.815    -8867675.64549  -6600112.90045  23610967.388    23610976.290
  21785949.638   -21353958.63049 -16622605.01247  21785949.601    21785957.179
  21298499.966   -22440174.69949 -17459011.54847  21298499.156    21298506.864
  23419081.266   -12234825.24049  -9510010.33446  23419081.018    23419089.513
  20769780.161   -25406321.89349 -19781930.87548  20769779.621    20769785.549
  20673956.310   -25387039.92649 -19756478.24848  20673955.698    20673962.645
 03  2 27  0 57 30.0000000  0  9G 6G 2G17G16G26G15G29G18G23
  21596869.984   -23253053.08349 -18105425.98447  21596869.688    21596877.806
  25030793.456    -5002309.20849  -3702915.74645  25030792.543    25030804.791
  20762297.108   -26518359.12549 -20616460.68948  20762296.391    20762303.840
  23613811.388    -8852732.82549  -6588469.15545  23613810.929    23613819.814
  21793162.208   -21316056.28149 -16593070.71547  21793162.188    21793169.703
  21289083.323   -22489659.33949 -17497570.97147  21289082.535    21289090.210
  23430882.571   -12172809.08349  -9461686.05246  23430882.298    23430890.835
  20763010.568   -25441896.36249 -19809651.22148  20763010.017    20763015.953
  20678150.503   -25364999.29949 -19739303.72548  20678149.905    20678156.837
 03  2 27  0 58  0.0000000  0  9G 6G 2G17G16G26G15G29G18G23
  21611969.835   -23173703.04649 -18043594.85147  21611969.525    21611977.681
  25027543.333    -5019388.46549  -3716224.27045  25027542.443    25027554.606
  20760993.634   -26525208.80049 -20621798.08548  20760992.914    20761000.387
  23616748.851    -8837296.56249  -6576440.91345  23616748.355    23616757.223
  21800494.184   -21277526.44449 -16563047.46247  21800494.182    21800501.719
  21279695.508   -22538992.53949 -17536012.38847  21279694.714    21279702.397
  23442767.125   -12110355.31049  -9413020.77946  23442766.870    23442775.379
  20756317.748   -25477067.02149 -19837056.91048  20756317.201    20756323.141
  20682410.213   -25342614.45849 -19721860.97648  20682409.586    20682416.518
 03  2 27  0 58 30.0000000  0  9G 6G 2G17G16G26G15G29G18G23
  21627142.109   -23093972.31349 -17981467.06747  21627141.801    21627149.966
  25024373.340    -5036046.73849  -3729204.72145  25024372.588    25024384.420
  20759726.307   -26531868.48149 -20626987.43448  20759725.601    20759733.053
  23619779.972    -8821368.06949  -6564029.11345  23619779.527    23619788.317
  21807945.373   -21238370.45649 -16532536.28747  21807945.393    21807952.869
  21270336.637   -22588173.46849 -17574335.15447  21270335.853    21270343.532
  23454734.579   -12047465.75149  -9364015.93946  23454734.345    23454742.847
  20749701.811   -25511833.96049 -19864148.00948  20749701.271    20749707.203
  20686735.034   -25319887.18649 -19704151.40048  20686734.422    20686741.373
 03  2 27  0 59  0.0000000  0  9G 6G 2G17G16G26G15G29G18G23
  21642386.454   -23013862.78449 -17919044.12647  21642386.148    21642394.357
  25021283.350    -5052284.03749  -3741857.16345  25021282.586    25021294.394
  20758495.348   -26538337.09949 -20632027.89948  20758494.633    20758502.080
  23622904.455    -8804948.76749  -6551234.85845  23622904.004    23622912.786
  21815515.435   -21198589.72749 -16501538.29647  21815515.413    21815522.898
  21261006.892   -22637201.55849 -17612538.82347  21261006.112    21261013.766
  23466784.519   -11984142.46749  -9314673.12446  23466784.323    23466792.858
  20743162.578   -25546197.70549 -19890924.92848  20743162.058    20743167.968
  20691124.733   -25296819.09149 -19686176.24748  20691124.123    20691131.066
 03  2 27  0 59 30.0000000  0  9G 6G 2G17G16G26G15G29G18G23
  21657702.499   -22933376.61549 -17856327.71047  21657702.225    21657710.421
  25018273.492    -5068101.21249  -3754182.22545  25018272.720    25018284.490
  20757300.755   -26544614.71649 -20636919.54748  20757300.030    20757307.487
  23626121.923    -8788040.78149  -6538059.81545  23626121.476    23626130.302
  21823203.942   -21158186.21949 -16470055.03247  21823203.920    21823211.413
  21251706.216   -22686076.90149 -17650623.48047  21251705.411    21251713.047
  23478916.515   -11920388.30649  -9264994.58446  23478916.295    23478924.900
  20736699.978   -25580158.79849 -19917388.09848  20736699.442    20736705.356
  20695578.853   -25273412.61849 -19667937.43248  20695578.259    20695585.179
 03  2 27  1  0  0.0000000  0  9G 6G 2G17G16G26G15G29G18G23
  21673090.149   -22852514.56849 -17793318.38847  21673089.832    21673098.037
  25015343.680    -5083497.31249  -3766179.16845  25015342.959    25015354.670
  20756142.840   -26550699.55249 -20641660.97548  20756142.112    20756149.585
  23629432.313    -8770644.41649  -6524504.22045  23629431.825    23629440.719
  21831010.907   -21117160.13649 -16438086.65047  21831010.895    21831018.383
  21242434.894   -22734797.75149 -17688587.75047  21242434.109    21242441.718
  23491130.486   -11856203.72849  -9214980.64646  23491130.189    23491138.751
  20730314.212   -25613716.21749 -19943536.71148  20730313.672    20730319.565
  20700097.190   -25249668.37149 -19649435.41148  20700096.591    20700103.539
 03  2 27  1  0 30.0000000  0  9G 6G 2G17G16G26G15G29G18G23
  21688548.696   -22771279.63149 -17730018.50547  21688548.410    21688556.596
  25012493.790    -5098473.62249  -3777849.00745  25012492.852    25012504.794
  20755021.488   -26556591.97849 -20646252.47248  20755020.808    20755028.262
  23632835.058    -8752762.22149  -6510570.05145  23632834.619    23632843.664
  21838935.880   -21075514.25849 -16405635.30947  21838935.839    21838943.342
  21233192.962   -22783364.19449 -17726431.70747  21233192.187    21233199.770
  23503425.780   -11791592.09949  -9164633.93446  23503425.467    23503433.924
  20724004.955   -25646871.52949 -19969371.99248  20724004.420    20724010.316
  20704679.356   -25225588.96249 -19630672.22848  20704678.749    20704685.694
 03  2 27  1  1  0.0000000  0  9G 6G 2G17G16G26G15G29G18G23
  21704078.160   -22689672.36649 -17666428.48847  21704077.830    21704086.024
  25009724.018    -5113029.07549  -3789190.90945  25009723.039    25009735.016
  20753937.096   -26562290.61449 -20650692.96348  20753936.409    20753943.826
  23636330.370    -8734394.28449  -6496257.38745  23636329.959    23636339.004
  21846978.747   -21033248.66649 -16372701.06747  21846978.711    21846986.239
  21223980.798   -22831774.39249 -17764153.91947  21223980.014    21223987.591
  23515802.092   -11726554.07349  -9113954.96646  23515801.819    23515810.302
  20717772.384   -25679623.74249 -19994893.17148  20717771.845    20717777.756
  20709325.175   -25201174.95749 -19611648.32148  20709324.553    20709331.499
 03  2 27  1  1 30.0000000  0  9G 6G 2G17G16G26G15G29G18G23
  21719677.775   -22607696.06149 -17602550.91647  21719677.460    21719685.660
  25007034.009    -5127165.45749  -3800206.24045  25007033.141    25007045.124
  20752889.573   -26567795.46449 -20654982.45848  20752888.884    20752896.302
  23639917.500    -8715543.79449  -6481568.70945  23639917.096    23639926.168
  21855138.975   -20990366.37049 -16339286.28746  21855138.922    21855146.459
  21214798.215   -22880029.06949 -17801754.95047  21214797.442    21214804.990
  23528258.852   -11661093.21649  -9062946.51646  23528258.595    23528267.053
  20711616.227   -25711974.44149 -20020101.48348  20711615.687    20711621.587
  20714034.011   -25176429.56949 -19592366.19948  20714033.393    20714040.362
 03  2 27  1  2  0.0000000  0  9G 6G 2G17G16G26G15G29G18G23
  21735347.468   -22525351.41649 -17538386.31847  21735347.162    21735355.374
  25004423.884    -5140881.75149  -3810894.23945  25004423.028    25004435.004
  20751879.240   -26573104.62649 -20659119.46548  20751878.563    20751885.977
  23643596.349    -8696210.99549  -6466504.20145  23643595.979    23643605.079
  21863416.496   -20946867.66349 -16305391.18846  21863416.462    21863424.009
  21205645.621   -22928126.32349 -17839233.30947  21205644.828    21205652.379
  23540795.958   -11595210.39149  -9011609.27746  23540795.766    23540804.168
  20705536.614   -25743922.84649 -20044996.31248  20705536.086    20705541.986
  20718805.879   -25151353.27249 -19572826.22648  20718805.260    20718812.240
 03  2 27  1  2 30.0000000  0  9G 6G 2G17G16G26G15G29G18G23
  21751086.810   -22442640.55049 -17473936.35647  21751086.526    21751094.791
  25001893.510    -5154178.50049  -3821255.31945  25001892.740    25001904.551
  20750906.150   -26578218.27749 -20663104.12748  20750905.467    20750912.884
  23647366.728    -8676397.71549  -6451065.29945  23647366.329    23647375.453
  21871810.968   -20902754.28049 -16271017.11846  21871810.920    21871818.463
  21196523.013   -22976065.74649 -17876588.67747  21196522.223    21196529.781
  23553412.899   -11528907.99749  -8959945.08046  23553412.662    23553421.127
  20699533.496   -25775469.35949 -20069577.97848  20699532.982    20699538.864
  20723640.347   -25125947.95649 -19553029.87048  20723639.743    20723646.698
 03  2 27  1  3  0.0000000  0  9G 6G 2G17G16G26G15G29G18G23
  21766895.558   -22359565.35249 -17409202.50047  21766895.262    21766903.546
  24999442.937    -5167056.08249  -3831289.76745  24999442.306    24999453.982
  20749970.428   -26583135.53749 -20666935.75548  20749969.735    20749977.132
  23651228.132    -8656105.61249  -6435253.28545  23651227.716    23651236.942
  21880322.085   -20858028.05249 -16236165.51246  21880322.038    21880329.588
  21187430.562   -23023846.80549 -17913820.64847  21187429.788    21187437.340
  23566109.271   -11462187.93349  -8907955.43446  23566109.062    23566117.590
  20693606.766   -25806614.43249 -20093846.83948  20693606.245    20693612.117
  20728537.088   -25100215.46849 -19532978.57948  20728536.463    20728543.411
 03  2 27  1  3 30.0000000  0  9G 6G 2G17G16G26G15G29G18G23
  21782773.245   -22276127.76049 -17344186.26347  21782772.940    21782781.272
  24997072.075    -5179514.73649  -3840997.77745  24997071.497    24997083.101
  20749072.287   -26587855.26749 -20670613.46348  20749071.607    20749079.003
  23655180.377    -8635336.25549  -6419069.38045  23655179.969    23655189.199
  21888949.538   -20812690.40249 -16200837.46346  21888949.495    21888957.076
  21178368.346   -23071468.81049 -17950928.68147  21178367.591    21178375.156
  23578884.715   -11395052.39049  -8855642.03646  23578884.498    23578893.060
  20687756.336   -25837358.61449 -20117803.31548  20687755.795    20687761.651
  20733495.758   -25074157.53949 -19512673.69848  20733495.130    20733502.081
 03  2 27  1  4  0.0000000  0  9G 6G 2G17G16G26G15G29G18G23
  21798719.474   -22192329.87249 -17278889.27747  21798719.181    21798727.521
  24994780.842    -5191554.96349  -3850379.75045  24994780.204    24994791.869
  20748211.778   -26592377.25449 -20674137.09048  20748211.102    20748218.499
  23659223.155    -8614091.43849  -6402515.00045  23659222.711    23659232.004
  21897692.987   -20766743.25049 -16165034.48246  21897692.943    21897700.557
  21169336.520   -23118931.21749 -17987912.35247  21169335.764    21169343.344
  23591738.875   -11327503.56349  -8803006.57246  23591738.689    23591747.165
  20681982.133   -25867702.14749 -20141447.60348  20681981.582    20681987.435
  20738515.991   -25047776.08249 -19492116.71448  20738515.384    20738522.302
 03  2 27  1  4 30.0000000  0 10G 6G 2G17G16G26G15G 3G29G18G23
  21814733.672   -22108175.00049 -17213314.11047  21814733.384    21814741.752
  24992568.922    -5203178.39749  -3859436.95645  24992568.315    24992579.940
  20747388.832   -26596701.84849 -20677506.90548  20747388.132    20747395.530
  23663355.799    -8592374.27149  -6385592.54545  23663355.390    23663364.628
  21906551.806   -20720189.67649 -16128758.96946  21906551.760    21906559.384
  21160334.981   -23166234.48249 -18024772.01447  21160334.225    21160341.815
  24579835.663    -3782054.02449  -2303842.98445  24579835.154    24579846.028
  23604670.934   -11259545.21049  -8750052.01146  23604670.707    23604679.267
  20676283.826   -25897646.93349 -20164781.18048  20676283.277    20676289.126
  20743597.163   -25021074.22049 -19471310.06648  20743596.567    20743603.465
 03  2 27  1  5  0.0000000  0 10G 6G 2G17G16G26G15G 3G29G18G23
  21830815.761   -22023663.24549 -17147460.85947  21830815.481    21830823.899
  24990436.509    -5214383.71749  -3868168.33745  24990435.951    24990447.634
  20746603.848   -26600826.90849 -20680721.23948  20746603.155    20746610.549
  23667578.424    -8570184.66849  -6368301.97845  23667577.957    23667587.224
  21915526.063   -20673029.49149 -16092010.76746  21915526.027    21915533.710
  21151364.162   -23213376.32149 -18061505.88947  21151363.386    21151370.985
  24560921.733    -3881447.20949  -2381292.08545  24560921.218    24560931.985
  23617680.873   -11191177.40249  -8696778.40946  23617680.670    23617689.189
  20670661.637   -25927191.59749 -20187802.98148  20670661.079    20670666.909
  20748739.344   -24994051.95749 -19450253.75848  20748738.757    20748745.645
 03  2 27  1  5 30.0000000  0 10G 6G 2G17G16G26G15G 3G29G18G23
  21846965.401   -21938796.59449 -17081331.05747  21846965.130    21846973.579
  24988383.652    -5225171.49949  -3876574.38245  24988382.933    24988394.929
  20745856.971   -26604751.80349 -20683779.59848  20745856.273    20745863.682
  23671890.600    -8547524.19549  -6350644.49245  23671890.121    23671899.391
  21924615.438   -20625264.53049 -16054791.30946  21924615.385    21924623.057
  21142424.184   -23260356.06449 -18098113.45647  21142423.405    21142430.982
  24542037.789    -3980682.52349  -2458618.15845  24542037.281    24542047.983
  23630768.349   -11122402.38449  -8643187.50446  23630768.220    23630776.665
  20665115.552   -25956336.44449 -20210513.23448  20665114.999    20665120.826
  20753942.138   -24966710.94849 -19428949.07448  20753941.545    20753948.445
 03  2 27  1  6  0.0000000  0 10G 6G 2G17G16G26G15G 3G29G18G23
  21863182.180   -21853577.06349 -17014926.29147  21863181.924    21863190.391
  24986410.098    -5235542.15149  -3884655.38145  24986409.318    24986421.307
  20745148.388   -26608475.48149 -20686681.16248  20745147.703    20745155.107
  23676292.033    -8524394.64949  -6332621.49645  23676291.565    23676300.766
  21933819.498   -20576896.55349 -16017101.96646  21933819.463    21933827.160
  21133515.200   -23307173.02649 -18134594.17947  21133514.422    21133521.957
  24523184.327    -4079757.65449  -2535819.41345  24523183.814    24523194.497
  23643932.839   -11053222.42649  -8589281.06546  23643932.676    23643941.155
  20659645.449   -25985081.87049 -20232912.25048  20659644.895    20659650.734
  20759205.279   -24939053.06449 -19407397.47248  20759204.672    20759211.558
 03  2 27  1  6 30.0000000  0 10G 6G 2G17G16G26G15G 3G29G18G23
  21879465.817   -21768006.21849 -16948247.79047  21879465.581    21879474.043
  24984515.987    -5245495.71349  -3892411.39345  24984515.110    24984527.112
  20744478.338   -26611996.73449 -20689424.99348  20744477.637    20744485.046
  23680782.472    -8500797.47549  -6314234.12045  23680782.036    23680791.147
  21943138.079   -20527926.95149 -15978943.82546  21943138.042    21943145.732
  21124637.478   -23353825.69949 -18170946.88847  21124636.709    21124644.236
  24504361.877    -4178669.72449  -2612893.60745  24504361.354    24504372.044
  23657174.024   -10983639.21249  -8535060.38646  23657173.889    23657182.425
  20654251.365   -26013427.90749 -20255000.05748  20654250.830    20654256.642
  20764528.462   -24911079.70649 -19385600.05048  20764527.837    20764534.725
 03  2 27  1  7  0.0000000  0 10G 6G 2G17G16G26G15G 3G29G18G23
  21895815.825   -21682086.73749 -16881297.62147  21895815.572    21895824.068
  24982701.061    -5255033.31149  -3899843.26045  24982700.277    24982712.109
  20743846.733   -26615315.74649 -20692011.24248  20743846.024    20743853.438
  23685361.456    -8476734.73649  -6295483.96345  23685361.045    23685370.179
  21952570.746   -20478358.06349 -15940318.71146  21952570.692    21952578.389
  21115790.998   -23400314.10649 -18207171.59847  21115790.223    21115797.760
  24485570.789    -4277417.04049  -2689839.41045  24485570.193    24485580.821
  23670491.379   -10913655.72749  -8480527.83045  23670491.270    23670499.833
  20648933.040   -26041375.83249 -20276777.64748  20648932.492    20648938.303
  20769911.202   -24882793.23949 -19363558.65748  20769910.600    20769917.454
 03  2 27  1  7 30.0000000  0 10G 6G 2G17G16G26G15G 3G29G18G23
  21912231.771   -21595820.54649 -16814077.28547  21912231.508    21912240.023
  24980965.290    -5264155.10749  -3906951.14745  24980964.538    24980976.344
  20743253.786   -26618431.72349 -20694439.27548  20743253.065    20743260.503
  23690028.759    -8452208.35249  -6276372.52945  23690028.305    23690037.439
  21962117.036   -20428191.73649 -15901228.06146  21962116.993    21962124.678
  21106975.955   -23446637.45849 -18243267.69647  21106975.175    21106982.683
  24466811.438    -4375997.27549  -2766654.99145  24466810.899    24466821.492
  23683884.550   -10843273.85949  -8425684.83645  23683884.508    23683892.995
  20643690.427   -26068925.77049 -20298245.11948  20643689.891    20643695.715
  20775353.222   -24854195.31349 -19341274.55848  20775352.603    20775359.445
 03  2 27  1  8  0.0000000  0 10G 6G 2G17G16G26G15G 3G29G18G23
  21928713.274   -21509209.82649 -16746588.47747  21928713.008    21928721.553
  24979308.580    -5272861.80749  -3913735.57745  24979307.885    24979319.539
  20742699.541   -26621344.06049 -20696708.62348  20742698.838    20742706.299
  23694783.901    -8427220.27349  -6256901.34445  23694783.453    23694792.540
  21971776.709   -20377429.91949 -15861673.39446  21971776.685    21971784.325
  21098192.430   -23492795.09049 -18279234.65447  21098191.636    21098199.153
  24448084.254    -4474408.05049  -2843338.53745  24448083.764    24448094.463
  23697353.293   -10772495.99549  -8370533.27345  23697353.194    23697361.548
  20638523.451   -26096078.29449 -20319402.91248  20638522.928    20638528.726
  20780854.118   -24825287.82649 -19318749.24348  20780853.504    20780860.330
 03  2 27  1  8 30.0000000  0 10G 6G 2G17G16G26G15G 3G29G18G23
  21945260.102   -21422255.96149 -16678832.28047  21945259.833    21945268.363
  24977730.648    -5281153.34849  -3920196.50245  24977730.026    24977741.664
  20742184.465   -26624050.96049 -20698817.89348  20742183.755    20742191.216
  23699626.538    -8401771.72249  -6237071.33945  23699626.070    23699635.287
  21981549.387   -20326073.85049 -15821655.68546  21981549.390    21981557.046
  21089440.679   -23538785.62549 -18315071.40947  21089439.895    21089447.431
  24429389.912    -4572646.28949  -2919887.63945  24429389.565    24429400.099
  23710896.914   -10701323.83849  -8315074.47445  23710896.788    23710905.165
  20633432.114   -26122833.34349 -20340250.98748  20633431.573    20633437.369
  20786413.712   -24796071.92049 -19295983.60648  20786413.106    20786419.929
 03  2 27  1  9  0.0000000  0 10G 6G 2G17G16G26G15G 3G29G18G23
  21961871.741   -21334961.50649 -16610810.68747  21961871.453    21961879.982
  24976231.677    -5289030.66949  -3926334.64845  24976231.085    24976242.666
  20741708.391   -26626552.56049 -20700767.18748  20741707.695    20741715.164
  23704556.421    -8375864.96949  -6216884.28245  23704555.987    23704565.179
  21991434.723   -20274125.90749 -15781176.76746  21991434.747    21991442.419
  21080720.772   -23584608.97949 -18350777.88647  21080720.001    21080727.540
  24410728.712    -4670710.16849  -2996300.86345  24410728.355    24410738.973
  23724515.143   -10629760.04849  -8259310.52945  23724514.990    23724523.299
  20628416.218   -26149191.91449 -20360790.11548  20628415.685    20628421.490
  20792031.584   -24766549.91249 -19272979.43848  20792030.986    20792037.808
 03  2 27  1  9 30.0000000  0 10G 6G 2G17G16G26G15G 3G29G18G23
  21978547.833   -21247328.35349 -16542525.19147  21978547.558    21978556.096
  24974811.528    -5296494.34249  -3932150.48145  24974810.958    24974822.309
  20741271.603   -26628848.01749 -20702555.85348  20741270.887    20741278.363
  23709573.255    -8349501.68749  -6196341.50645  23709572.824    23709582.002
  22001432.358   -20221587.99049 -15740238.14646  22001432.385    22001440.029
  21072032.889   -23630264.11849 -18386353.28847  21072032.096    21072039.645
  24392101.354    -4768596.85449  -3072576.02945  24392100.811    24392111.704
  23738207.472   -10557806.74749  -8203243.08745  23738207.281    23738215.634
  20623475.708   -26175154.30949 -20381020.54048  20623475.175    20623480.978
  20797707.320   -24736723.55749 -19249738.12648  20797706.717    20797713.553
 03  2 27  1 10  0.0000000  0 10G 6G 2G17G16G26G15G 3G29G18G23
  21995287.919   -21159358.66749 -16473977.46247  21995287.679    21995296.213
  24973469.826    -5303545.12349  -3937644.57745  24973469.177    24973480.611
  20740874.196   -26630936.41349 -20704183.17548  20740873.492    20740880.951
  23714676.493    -8322683.75249  -6175444.44545  23714676.121    23714685.310
  22011541.934   -20168462.06649 -15698841.32646  22011541.926    22011549.538
  21063377.098   -23675750.46449 -18421797.15747  21063376.318    21063383.834
  24373508.010    -4866304.37349  -3148711.60345  24373507.432    24373518.470
  23751973.408   -10485466.33449  -8146873.95945  23751973.310    23751981.600
  20618610.484   -26200721.20549 -20400942.78148  20618609.943    20618615.755
  20803440.621   -24706594.88349 -19226261.23448  20803440.028    20803446.879
 03  2 27  1 10 30.0000000  0 10G 6G 2G17G16G26G15G 3G29G18G23
  22012091.847   -21071053.87249 -16405168.59747  22012091.586    22012100.102
  24972206.746    -5310182.83449  -3942816.80245  24972206.051    24972217.602
  20740516.385   -26632816.70549 -20705648.33148  20740515.690    20740523.133
  23719866.064    -8295412.79149  -6154194.37545  23719865.729    23719874.780
  22021763.160   -20114749.48049 -15656987.36446  22021763.121    22021770.694
  21054753.732   -23721066.51649 -18457108.32947  21054752.948    21054760.437
  24354949.387    -4963829.79949  -3224705.27845  24354948.730    24354959.937
  23765812.750   -10412740.26549  -8090204.34945  23765812.631    23765820.978
  20613820.515   -26225892.58649 -20420556.83348  20613819.990    20613825.801
  20809231.280   -24676164.90049 -19202549.55948  20809230.669    20809237.527
 03  2 27  1 11  0.0000000  0 10G 6G 2G17G16G26G15G 3G29G18G23
  22028958.992   -20982416.88749 -16336100.89647  22028958.719    22028967.217
  24971021.936    -5316408.69049  -3947668.11245  24971021.252    24971032.887
  20740198.308   -26634488.20549 -20706950.78448  20740197.600    20740205.056
  23725141.303    -8267691.31749  -6132593.25445  23725140.887    23725150.107
  22032095.383   -20060453.02749 -15614678.44846  22032095.378    22032102.950
  21046162.775   -23766212.19549 -18492286.73847  21046161.985    21046169.455
  24336425.768    -5061171.21949  -3300555.57845  24336425.123    24336436.360
  23779724.917   -10339631.71449  -8033236.69645  23779724.740    23779733.019
  20609105.617   -26250669.44249 -20439863.46648  20609105.093    20609110.893
  20815078.784   -24645436.03949 -19178604.99148  20815078.181    20815085.033
 03  2 27  1 11 30.0000000  0 10G 6G 2G17G16G26G15G 3G29G18G23
  22045889.069   -20893449.05149 -16266775.37747  22045888.808    22045897.297
  24969915.591    -5322222.64649  -3952198.46545  24969914.838    24969926.546
  20739920.157   -26635949.90649 -20708089.76648  20739919.443    20739926.911
  23730502.031    -8239520.45049  -6110641.96245  23730501.635    23730510.869
  22042538.580   -20005573.85349 -15571915.46346  22042538.568    22042546.108
  21037604.515   -23811185.98449 -18527331.20847  21037603.720    21037611.182
  24317937.818    -5158325.48949  -3376260.05345  24317937.243    24317948.289
  23793709.550   -10266142.09349  -7975972.10345  23793709.407    23793717.610
  20604465.836   -26275051.83749 -20458862.72448  20604465.296    20604471.087
  20820982.948   -24614409.44649 -19154428.42348  20820982.344    20820989.178
 03  2 27  1 12  0.0000000  0 10G 6G 2G17G16G26G15G 3G29G18G23
  22062881.522   -20804153.33349 -16197194.36747  22062881.275    22062889.770
  24968887.403    -5327626.05049  -3956408.90245  24968886.530    24968898.319
  20739681.860   -26637202.20949 -20709065.57948  20739681.148    20739688.623
  23735947.885    -8210902.82249  -6088342.53845  23735947.455    23735956.662
  22053092.119   -19950114.89649 -15528700.69946  22053092.062    22053099.615
  21029078.981   -23855987.80249 -18562241.67547  21029078.202    21029085.665
  24299485.919    -5255290.92749  -3451817.38345  24299485.266    24299496.211
  23807766.179   -10192274.59349  -7918413.04445  23807765.927    23807774.167
  20599900.836   -26299040.99149 -20477555.56848  20599900.296    20599906.054
  20826943.307   -24583087.57549 -19130021.76748  20826942.688    20826949.533
 03  2 27  1 12 30.0000000  0 10G 6G 2G17G16G26G15G 3G29G18G23
  22079936.105   -20714531.23749 -16127359.05247  22079935.838    22079944.368
  24967937.205    -5332619.23249  -3960299.69945  24967936.337    24967948.172
  20739483.719   -26638243.28249 -20709876.80248  20739483.005    20739490.473
  23741478.337    -8181840.14649  -6065696.32445  23741477.867    23741487.140
  22063755.629   -19894077.84849 -15485035.47646  22063755.530    22063763.147
  21020586.404   -23900616.49149 -18597017.23247  21020585.592    21020593.069
  24281070.373    -5352064.75349  -3527225.41645  24281069.786    24281080.600
  23821894.263   -10118030.95549  -7860560.89945  23821894.036    23821902.261
  20595410.624   -26322637.04049 -20495942.08948  20595410.094    20595415.876
  20832959.536   -24551471.93849 -19105386.20348  20832958.923    20832965.777
 03  2 27  1 13  0.0000000  0 10G 6G 2G17G16G26G15G 3G29G18G23
  22097052.436   -20624584.38049 -16057270.68246  22097052.169    22097060.759
  24967065.002    -5337202.20549  -3963870.84445  24967064.211    24967076.145
  20739326.023   -26639072.03449 -20710522.58348  20739325.314    20739332.745
  23747093.155    -8152333.73649  -6042704.34845  23747092.809    23747102.007
  22074528.837   -19837464.12649 -15440920.90646  22074528.752    22074536.343
  21012127.012   -23945070.65149 -18631656.79947  21012126.218    21012133.694
  24262691.897    -5448643.84649  -3602481.69145  24262691.368    24262702.060
  23836093.612   -10043413.08049  -7802417.17545  23836093.356    23836101.671
  20590995.234   -26345840.04049 -20514022.34448  20590994.711    20591000.482
  20839031.438   -24519563.79149 -19080522.71148  20839030.829    20839037.715
 03  2 27  1 13 30.0000000  0 10G 6G 2G17G16G26G15G 3G29G18G23
  22114230.016   -20534315.87349 -15986931.66246  22114229.767    22114238.407
  24966270.529    -5341376.85049  -3967123.80445  24966269.741    24966281.682
  20739208.703   -26639688.67549 -20711003.07548  20739207.985    20739215.391
  23752791.970    -8122386.70049  -6019369.02345  23752791.605    23752800.832
  22085411.181   -19780276.91149 -15396359.45446  22085411.078    22085418.686
  21003700.750   -23989350.56649 -18666160.58547  21003699.961    21003707.442
  24244350.721    -5545026.89549  -3677585.20045  24244350.226    24244360.778
  23850363.559    -9968424.18549  -7743984.32345  23850363.287    23850371.678
  20586654.359   -26368651.53549 -20531797.52148  20586653.836    20586659.595
  20845158.481   -24487365.77549 -19055433.34648  20845157.878    20845164.789
 03  2 27  1 14  0.0000000  0 10G 6G 2G17G16G26G15G 3G29G18G23
  22131468.677   -20443726.55149 -15916342.66446  22131468.413    22131477.054
  24965553.913    -5345142.53449  -3970058.10345  24965553.117    24965565.085
  20739132.117   -26640091.04849 -20711316.61148  20739131.388    20739138.793
  23758574.356    -8091999.79749  -5995690.95645  23758574.031    23758583.280
  22096402.517   -19722516.98849 -15351351.74146  22096402.449    22096410.029
  20995308.115   -24033454.02149 -18700526.88347  20995307.341    20995314.811
  24226047.477    -5641210.49549  -3752533.29945  24226047.057    24226057.476
  23864703.867    -9893065.18849  -7685263.08645  23864703.639    23864712.109
  20582388.089   -26391071.04349 -20549267.25548  20582387.550    20582393.305
  20851340.598   -24454878.52249 -19030118.61048  20851339.988    20851346.901
 03  2 27  1 14 30.0000000  0 10G 6G 2G17G16G26G15G 3G29G18G23
  22148767.812   -20352819.11349 -15845505.78846  22148767.557    22148776.235
  24964914.927    -5348500.49849  -3972674.68845  24964914.220    24964926.151
  20739096.345   -26640278.95049 -20711463.02448  20739095.613    20739103.023
  23764440.099    -8061175.33249  -5971671.92345  23764439.701    23764448.996
  22107502.377   -19664186.99049 -15305899.80846  22107502.285    22107509.886
  20986949.122   -24077380.71649 -18734755.45247  20986948.358    20986955.755
  24207782.643    -5737192.38849  -3827324.20845  24207782.271    24207792.548
  23879114.016    -9817339.09449  -7626255.82045  23879113.863    23879122.410
  20578196.204   -26413099.45949 -20566432.24248  20578195.682    20578201.418
  20857577.270   -24422104.43549 -19004580.35048  20857576.670    20857583.595
 03  2 27  1 15  0.0000000  0 10G 6G 2G17G16G26G15G 3G29G18G23
  22166126.928   -20261596.53649 -15774423.34346  22166126.700    22166135.369
  24964353.155    -5351452.13649  -3974974.66245  24964352.519    24964364.417
  20739101.368   -26640252.39349 -20711442.32248  20739100.649    20739108.075
  23770388.524    -8029916.38149  -5947314.32945  23770388.142    23770397.418
  22118710.121   -19605289.86449 -15260005.97246  22118710.036    22118717.628
  20978623.786   -24121130.76249 -18768846.37247  20978623.021    20978630.383
  24189556.451    -5832970.90349  -3901956.65545  24189556.069    24189566.269
  23893593.441    -9741249.02349  -7566964.93745  23893593.319    23893601.912
  20574078.457   -26434738.16049 -20583293.55248  20574077.932    20574083.700
  20863868.060   -24389046.04249 -18978820.55348  20863867.465    20863874.417
 03  2 27  1 15 30.0000000  0 10G 6G 2G17G16G26G15G 3G29G18G23
  22183545.760   -20170060.17349 -15703096.39446  22183545.541    22183554.198
  24963868.735    -5353997.49549  -3976958.05045  24963868.174    24963880.061
  20739147.515   -26640009.94249 -20711253.39648  20739146.807    20739154.242
  23776419.478    -7998224.13149  -5922619.09845  23776419.058    23776428.245
  22130025.512   -19545827.04149 -15213671.32446  22130025.432    22130033.065
  20970332.390   -24164702.32149 -18802798.21147  20970331.612    20970338.976
  24171369.512    -5928543.17949  -3976428.38845  24171369.170    24171379.186
  23908141.874    -9664796.50249  -7507391.62445  23908141.727    23908150.432
  20570034.924   -26455986.97149 -20599851.04848  20570034.421    20570040.184
  20870212.777   -24355704.30649 -18952839.97348  20870212.183    20870219.147
 03  2 27  1 16  0.0000000  0 10G 6G 2G17G16G26G15G 3G29G18G23
  22201023.941   -20078212.08449 -15631526.54346  22201023.721    22201032.399
  24963461.703    -5356137.05849  -3978625.25845  24963461.026    24963472.854
  20739234.940   -26639550.43649 -20710895.33848  20739234.237    20739241.671
  23782532.465    -7966100.57449  -5897587.79145  23782532.035    23782541.143
  22141448.099   -19485800.59549 -15166897.50846  22141448.085    22141455.738
  20962075.113   -24208094.42349 -18836610.22847  20962074.328    20962081.688
  24153222.370    -6023906.26249  -4050737.14545  24153222.023    24153231.959
  23922758.952    -9587983.54349  -7447537.44045  23922758.809    23922767.582
  20566065.419   -26476846.67749 -20616105.35348  20566064.910    20566070.685
  20876611.069   -24322080.97249 -18926639.97648  20876610.463    20876617.458
 03  2 27  1 16 30.0000000  0 10G 6G 2G17G16G26G15G 3G29G18G23
  22218560.916   -19986054.87149 -15559715.81546  22218560.681    22218569.380
  24963131.490    -5357872.21049  -3979977.32645  24963130.745    24963142.654
  20739363.722   -26638873.56849 -20710367.90048  20739363.028    20739370.458
  23788726.993    -7933548.38749  -5872222.48845  23788726.588    23788735.629
  22152977.507   -19425213.10449 -15119686.50146  22152977.483    22152985.182
  20953852.022   -24251306.72149 -18870282.13247  20953851.251    20953858.632
  24135115.430    -6119058.25449  -4124881.42145  24135115.058    24135124.860
  23937444.117    -9510813.07549  -7387404.67545  23937443.922    23937452.730
  20562169.773   -26497318.24949 -20632057.20648  20562169.276    20562175.041
  20883062.507   -24288178.21149 -18900222.23448  20883061.907    20883068.913
 03  2 27  1 17  0.0000000  0 10G 6G 2G17G16G26G15G 3G29G18G23
  22236156.349   -19893590.68349 -15487665.89046  22236156.100    22236164.864
  24962878.082    -5359203.48849  -3981014.69945  24962877.350    24962889.446
  20739534.120   -26637978.15949 -20709670.17448  20739533.420    20739540.828
  23795002.811    -7900568.97449  -5846524.29045  23795002.383    23795011.487
  22164613.379   -19364066.65749 -15072039.94246  22164613.307    22164621.021
  20945663.407   -24294338.02249 -18903813.00147  20945662.650    20945670.030
  24117049.065    -6213996.64149  -4198859.24945  24117048.625    24117058.552
  23952196.831    -9433287.31149  -7326995.06745  23952196.639    23952205.431
  20558348.031   -26517401.64549 -20647706.58848  20558347.542    20558353.286
  20889566.836   -24253997.57949 -18873587.97248  20889566.264    20889573.267
 03  2 27  1 17 30.0000000  0 10G 6G 2G17G16G26G15G 3G29G18G23
  22253809.847   -19800821.40449 -15415378.22046  22253809.558    22253818.375
  24962701.581    -5360131.70149  -3981737.97745  24962700.832    24962712.853
  20739746.234   -26636863.34549 -20708801.48248  20739745.543    20739752.954
  23801359.467    -7867164.63349  -5820494.96645  23801358.982    23801368.157
  22176355.117   -19302363.49549 -15023959.58946  22176355.009    22176362.733
  20937509.470   -24337187.23449 -18937201.97647  20937508.694    20937516.056
  24099023.852    -6308718.64549  -4272668.47845  24099023.513    24099033.316
  23967016.805    -9355408.49849  -7266310.34245  23967016.610    23967025.279
  20554599.969   -26537097.80549 -20663054.22648  20554599.457    20554605.208
  20896123.745   -24219540.83849 -18846738.55747  20896123.155    20896130.175
 03  2 27  1 18  0.0000000  0 10G 6G 2G17G16G26G15G 3G29G18G23
  22271520.967   -19707749.31049 -15342854.60146  22271520.677    22271529.499
  24962601.610    -5360657.68849  -3982147.85545  24962600.711    24962612.607
  20740000.228   -26635528.48249 -20707761.33048  20739999.537    20740006.966
  23807796.498    -7833337.42649  -5794136.15545  23807796.036    23807805.236
  22188202.310   -19240105.92449 -14975447.22046  22188202.237    22188209.980
  20929390.337   -24379853.65749 -18970448.52847  20929389.535    20929396.909
  24081040.241    -6403221.85349  -4346307.19845  24081039.964    24081049.777
  23981903.360    -9277179.07449  -7205352.42245  23981903.224    23981911.958
  20550925.426   -26556407.54149 -20678100.75448  20550924.921    20550930.664
  20902732.817   -24184809.85149 -18819675.45147  20902732.240    20902739.248
 03  2 27  1 18 30.0000000  0 10G 6G 2G17G16G26G15G 3G29G18G23
  22289289.329   -19614376.08949 -15270096.32346  22289289.076    22289297.910
  24962577.970    -5360781.88449  -3982244.63345  24962576.997    24962588.855
  20740296.424   -26633971.93149 -20706548.42748  20740295.722    20740303.163
  23814313.753    -7799089.29249  -5767449.33745  23814313.274    23814322.476
  22200154.726   -19177295.58449 -14926504.12946  22200154.673    22200162.400
  20921306.172   -24422336.01449 -19003551.64747  20921305.372    20921312.756
  24063098.876    -6497503.41049  -4419773.20945  24063098.594    24063108.604
  23996856.264    -9198600.82849  -7144122.70645  23996856.142    23996864.966
  20547324.413   -26575330.90249 -20692846.20548  20547323.924    20547329.655
  20909393.828   -24149805.95049 -18792399.68447  20909393.228    20909400.251
 03  2 27  1 19  0.0000000  0 10G 6G 2G17G16G26G15G 3G29G18G23
  22307114.533   -19520704.37649 -15197105.45446  22307114.276    22307123.134
  24962630.546    -5360505.58049  -3982029.35145  24962629.600    24962641.530
  20740634.871   -26632193.40149 -20705162.55948  20740634.198    20740641.608
  23820910.672    -7764422.91849  -5740436.62645  23820910.117    23820919.302
  22212211.892   -19113935.26249 -14877132.48446  22212211.836    22212219.551
  20913257.182   -24464633.72249 -19036510.88747  20913256.374    20913263.762
  24045200.060    -6591561.28949  -4493064.90645  24045199.905    24045209.872
  24011875.181    -9119676.35649  -7082623.15245  24011875.074    24011883.861
  20543796.700   -26593868.99849 -20707291.44948  20543796.196    20543801.936
  20916106.368   -24114531.25949 -18764912.91147  20916105.781    20916112.800
 03  2 27  1 19 30.0000000  0 10G 6G 2G17G16G26G15G 3G29G18G23
  22324996.078   -19426736.75749 -15123884.01746  22324995.807    22325004.607
  24962759.079    -5359830.12949  -3981503.03745  24962758.273    24962769.997
  20741015.621   -26630192.53449 -20703603.44448  20741014.924    20741022.339
  23827586.667    -7729340.61149  -5713099.81545  23827586.155    23827595.289
  22224373.085   -19050027.71949 -14827334.42946  22224373.066    22224380.806
  20905243.422   -24506746.18049 -19069325.77447  20905242.622    20905249.996
  24027344.269    -6685393.51149  -4566180.77245  24027344.166    24027354.177
  24026959.320    -9040408.93849  -7020856.36945  24026959.212    24026968.020
  20540342.119   -26612023.06649 -20721437.45048  20540341.598    20540347.346
  20922870.028   -24078988.06449 -18737216.91647  20922869.429    20922876.431
 03  2 27  1 20  0.0000000  0 10G 6G 2G17G16G26G15G 3G29G18G23
  22342933.549   -19332475.00649 -15050433.39446  22342933.289    22342942.095
  24962963.478    -5358755.75949  -3980665.86345  24962962.771    24962974.523
  20741438.887   -26627968.14549 -20701870.16848  20741438.191    20741445.623
  23834341.439    -7693844.06849  -5685440.21845  23834340.949    23834350.020
  22236638.066   -18985574.73049 -14777111.34546  22236638.046    22236645.800
  20897265.233   -24548671.88349 -19101995.14447  20897264.435    20897271.792
  24009532.207    -6778996.73049  -4639118.19945  24009531.967    24009541.964
  24042108.456    -8960799.88549  -6958823.37745  24042108.395    24042117.106
  20536960.517   -26629793.27249 -20735284.34048  20536959.999    20536965.754
  20929684.495   -24043177.64549 -18709312.69947  20929683.901    20929690.936
 03  2 27  1 20 30.0000000  0 10G 6G 2G17G16G26G15G 3G29G18G23
  22360926.579   -19237921.22849 -14976755.21446  22360926.373    22360935.205
  24963243.550    -5357283.52149  -3979518.67345  24963242.946    24963254.659
  20741904.870   -26625519.31149 -20699961.99248  20741904.188    20741911.617
  23841174.640    -7657935.45449  -5657459.53045  23841174.138    23841183.242
  22249006.444   -18920578.66549 -14726465.09646  22249006.433    22249014.176
  20889322.749   -24590409.95449 -19134518.30047  20889321.943    20889329.282
  23991764.077    -6872368.59349  -4711875.35645  23991763.838    23991773.812
  24057322.145    -8880851.76549  -6896526.15545  24057322.112    24057330.695
  20533651.886   -26647180.14549 -20748832.52648  20533651.369    20533657.112
  20936549.535   -24007101.53849 -18681201.45247  20936548.939    20936555.986
 03  2 27  1 21  0.0000000  0 10G 6G 2G17G16G26G15G 3G29G18G23
  22378974.766   -19143077.79849 -14902851.33146  22378974.548    22378983.416
  24963599.264    -5355414.28049  -3978062.13245  24963598.660    24963610.489
  20742413.821   -26622844.87749 -20697878.02248  20742413.126    20742420.558
  23848085.795    -7621617.19249  -5629159.62845  23848085.303    23848094.473
  22261477.711   -18855041.91949 -14675397.53746  22261477.660    22261485.399
  20881416.088   -24631959.71249 -19166894.72347  20881415.277    20881422.602
  23974040.352    -6965506.82549  -4784450.45645  23974040.107    23974050.081
  24072599.888    -8800567.16849  -6833966.74045  24072599.836    24072608.380
  20530416.068   -26664184.58149 -20762082.70848  20530415.529    20530421.275
  20943464.749   -23970761.81949 -18652884.79947  20943464.171    20943471.223
 03  2 27  1 21 30.0000000  0  9G 6G17G16G26G15G 3G29G18G23
  22397078.250   -19047943.71849 -14828720.96846  22397078.005    22397086.893
  20742966.434   -26619940.86449 -20695615.15748  20742965.724    20742973.175
  23855075.184    -7584888.13649  -5600539.64845  23855074.656    23855083.846
  22274052.026   -18788963.67149 -14623908.03346  22274052.005    22274059.757
  20873546.020   -24673316.92349 -19199121.11147  20873545.225    20873552.562
  23956362.293    -7058405.61449  -4856838.98345  23956362.036    23956371.873
  24087941.813    -8719945.13049  -6771144.41145  24087941.725    24087950.259
  20527253.473   -26680803.97849 -20775032.86148  20527252.959    20527258.703
  20950430.459   -23934156.79949 -18624361.42347  20950429.869    20950436.922
 03  2 27  1 22  0.0000000  0  9G 6G17G16G26G15G 3G29G18G23
  22415236.055   -18952524.15449 -14754368.14946  22415235.805    22415244.690
  20743562.386   -26616809.23849 -20693174.92748  20743561.681    20743569.089
  23862141.717    -7547753.43649  -5571603.57745  23862141.163    23862150.241
  22286728.311   -18722349.29249 -14572000.76146  22286728.309    22286736.079
  20865712.311   -24714483.43949 -19231198.89947  20865711.529    20865718.836
  23938729.688    -7151065.42049  -4929041.30645  23938729.383    23938739.168
  24103346.896    -8638991.02749  -6708063.30845  24103346.751    24103355.489
  20524163.419   -26697042.07349 -20787685.89948  20524162.898    20524168.653
  20957445.733   -23897291.28849 -18595635.06347  20957445.153    20957452.192
 03  2 27  1 22 30.0000000  0  9G 6G17G16G26G15G 3G29G18G23
  22433447.477   -18856822.73749 -14679795.71046  22433447.227    22433456.158
  20744201.424   -26613451.04949 -20690558.15748  20744200.719    20744208.161
  23869284.729    -7510216.96449  -5542354.43845  23869284.199    23869293.239
  22299505.941   -18655202.58849 -14519678.68746  22299505.914    22299513.735
  20857914.780   -24755459.67949 -19263128.41147  20857913.987    20857921.292
  23921142.651    -7243485.19349  -5001056.58945  23921142.368    23921152.089
  24118814.445    -8557708.42149  -6644726.18445  24118814.242    24118823.026
  20521145.569   -26712900.93649 -20800043.43548  20521145.057    20521150.791
  20964509.990   -23860168.63949 -18566708.32947  20964509.402    20964516.423
 03  2 27  1 23  0.0000000  0  9G 6G17G16G26G15G 3G29G18G23
  22451711.974   -18760842.22149 -14605005.79246  22451711.763    22451720.755
  20744883.724   -26609865.41549 -20687764.15948  20744883.026    20744890.483
  23876503.653    -7472281.32349  -5512794.26645  23876503.180    23876512.218
  22312384.286   -18587526.41549 -14466944.04746  22312384.268    22312392.127
  20850153.584   -24796244.86649 -19294909.05947  20850152.790    20850160.094
  23903601.798    -7335662.90949  -5072883.27846  23903601.541    23903611.140
  24134343.946    -8476100.58049  -6581135.64345  24134343.761    24134352.460
  20518199.674   -26728381.67049 -20812106.32248  20518199.166    20518204.890
  20971622.733   -23822790.91549 -18537582.83847  20971622.148    20971629.167
 03  2 27  1 23 30.0000000  0  9G 6G17G16G26G15G 3G29G18G23
  22470029.361   -18664583.85849 -14529999.36646  22470029.192    22470038.221
  20745609.597   -26606050.88549 -20684791.79548  20745608.904    20745616.359
  23883798.325    -7433947.73949  -5482924.01545  23883797.861    23883806.912
  22325363.086   -18519322.27949 -14413798.00946  22325363.102    22325370.979
  20842429.076   -24836837.27349 -19326539.48247  20842428.287    20842435.588
  23886107.688    -7427595.00549  -5144518.58346  23886107.382    23886116.964
  24149935.046    -8394168.64849  -6517292.54345  24149934.818    24149943.563
  20515325.691   -26743484.41449 -20823874.67448  20515325.176    20515330.898
  20978783.843   -23785158.99949 -18508259.27847  20978783.270    20978790.280
 03  2 27  1 24  0.0000000  0  9G 6G17G16G26G15G 3G29G18G23
  22488399.358   -18568049.61749 -14454777.97746  22488399.125    22488408.157
  20746379.278   -26602006.20449 -20681640.08948  20746378.581    20746386.022
  23891168.345    -7395218.27349  -5452745.27145  23891167.898    23891176.953
  22338442.021   -18450592.10349 -14360242.07046  22338442.088    22338449.957
  20834741.497   -24877235.76049 -19358018.79447  20834740.719    20834748.002
  23868660.764    -7519278.60149  -5215960.25545  23868660.431    23868670.022
  24165587.368    -8311914.80449  -6453198.61745  24165587.212    24165595.944
  20512523.621   -26758209.33349 -20835348.61348  20512523.096    20512528.830
  20985993.090   -23747274.21449 -18478738.66847  20985992.500    20985999.514
 03  2 27  1 24 30.0000000  0  9G 6G17G16G26G15G 3G29G18G23
  22506821.422   -18471241.53449 -14379343.20746  22506821.162    22506830.209
  20747193.071   -26597729.57149 -20678307.64848  20747192.398    20747199.812
  23898613.284    -7356094.99849  -5422259.68345  23898612.924    23898621.871
  22351620.655   -18381338.30249 -14306278.10846  22351620.695    22351628.465
  20827091.115   -24917438.91049 -19389345.89947  20827090.325    20827097.590
  23851261.634    -7610711.01849  -5287206.20645  23851261.276    23851270.922
  24181300.674    -8229341.10849  -6388855.43645  24181300.453    24181309.065
  20509793.290   -26772557.17549 -20846528.73648  20509792.766    20509798.494
  20993250.161   -23709138.16849 -18449022.27547  20993249.566    20993256.594
 03  2 27  1 25  0.0000000  0  9G 6G17G16G26G15G 3G29G18G23
  22525295.054   -18374162.35249 -14303697.17546  22525294.783    22525303.852
  20748051.034   -26593221.00149 -20674794.47548  20748050.344    20748057.792
  23906132.628    -7316580.71549  -5391469.41045  23906132.249    23906141.326
  22364898.343   -18311563.84649 -14251908.43846  22364898.343    22364906.136
  20819477.906   -24957446.40249 -19420520.54447  20819477.096    20819484.377
  23833910.634    -7701890.32449  -5358254.94345  23833910.278    23833919.972
  24197074.211    -8146450.79149  -6324265.52945  24197074.014    24197082.511
  20507134.522   -26786528.94349 -20857415.81348  20507134.007    20507139.729
  21000554.620   -23670753.11849 -18419111.85447  21000554.019    21000561.021
 03  2 27  1 25 30.0000000  0  9G 6G17G16G26G15G 3G29G18G23
  22543819.878   -18276813.84649 -14227841.29246  22543819.649    22543828.783
  20748953.427   -26588478.91349 -20671099.33748  20748952.739    20748960.163
  23913726.025    -7276677.20649  -5360375.84045  23913725.623    23913734.681
  22378274.738   -18241270.67149 -14197134.56046  22378274.693    22378282.503
  20811902.211   -24997256.77449 -19451541.58447  20811901.421    20811908.711
  23816608.468    -7792813.23349  -5429103.89145  23816608.116    23816617.814
  24212907.561    -8063245.43749  -6259430.18045  24212907.373    24212916.038
  20504547.278   -26800124.95749 -20868010.09748  20504546.768    20504552.474
  21007906.205   -23632120.30749 -18389008.37247  21007905.600    21007912.588
 03  2 27  1 26  0.0000000  0  9G 6G17G16G26G15G 3G29G18G23
  22562395.446   -18179198.68849 -14151777.63446  22562395.238    22562404.386
  20749900.296   -26583503.05749 -20667222.04147  20749899.593    20749907.010
  23921393.120    -7236386.99249  -5328980.94245  23921392.625    23921401.757
  22391749.234   -18170461.68849 -14141958.74046  22391749.214    22391757.036
  20804364.235   -25036868.97049 -19482408.20647  20804363.439    20804370.736
  23799355.536    -7883477.77849  -5499751.50345  23799355.109    23799364.783
  24228800.311    -7979727.88649  -6194351.53445  24228800.080    24228808.783
  20502031.363   -26813346.38249 -20878312.49448  20502030.829    20502036.531
  21015304.541   -23593241.77049 -18358713.41847  21015303.948    21015310.945
 03  2 27  1 26 30.0000000  0 10G 6G14G17G16G26G15G 3G29G18G23
  22581021.072   -18081320.87149 -14075509.31446  22581020.854    22581030.011
  24660410.568    -4547022.84349  -3513427.56345  24660409.874    24660422.580
  20750891.489   -26578294.25749 -20663163.23147  20750890.807    20750898.215
  23929132.854    -7195714.45149  -5297288.13445  23929132.406    23929141.568
  22405321.076   -18099141.14849 -14086384.31646  22405321.079    22405328.874
  20796863.828   -25076283.75249 -19513120.99647  20796863.021    20796870.320
  23782151.867    -7973883.16349  -5570197.17545  23782151.450    23782161.132
  24244751.762    -7895902.13949  -6129032.72745  24244751.618    24244760.202
  20499586.152   -26826195.80349 -20888325.01848  20499585.632    20499591.322
  21022748.981   -23554121.00949 -18328229.71447  21022748.384    21022755.377
 03  2 27  1 27  0.0000000  0 10G 6G14G17G16G26G15G 3G29G18G23
  22599695.576   -17983186.22649 -13999040.85446  22599695.317    22599704.526
  24638772.883    -4660728.77349  -3602029.23045  24638772.213    24638784.561
  20751926.535   -26572855.03949 -20658924.87947  20751925.841    20751933.269
  23936944.276    -7154665.34749  -5265301.89245  23936943.719    23936952.984
  22418989.145   -18027315.15849 -14030416.02546  22418989.127    22418996.978
  20789400.510   -25115503.64249 -19543681.93947  20789399.708    20789406.980
  23764997.333    -8064030.39049  -5640441.69445  23764996.936    23765006.560
  24260760.641    -7811774.48749  -6063478.67945  24260760.515    24260769.286
  20497210.944   -26838677.47149 -20898050.97748  20497210.427    20497216.130
  21030238.515   -23514763.33249 -18297561.40047  21030237.919    21030244.912
 03  2 27  1 27 30.0000000  0 10G 6G14G17G16G26G15G 3G29G18G23
  22618420.212   -17884787.98249 -13922366.99246  22618419.934    22618429.156
  24617135.836    -4774431.14649  -3690628.15245  24617135.093    24617147.243
  20753007.275   -26567175.84549 -20654499.52647  20753006.573    20753013.990
  23944828.481    -7113233.09549  -5233017.09145  23944827.900    23944837.235
  22432754.589   -17954977.23049 -13974048.81546  22432754.627    22432762.442
  20781976.170   -25154518.70649 -19574083.25747  20781975.398    20781982.657
  23747894.136    -8153907.73849  -5710475.91245  23747893.795    23747903.320
  24276828.317    -7727338.09349  -5997684.01745  24276828.172    24276837.023
  20494907.272   -26850783.25049 -20907484.03448  20494906.761    20494912.458
  21037774.498   -23475161.44149 -18266702.79047  21037773.902    21037780.879
 03  2 27  1 28  0.0000000  0 10G 6G14G17G16G26G15G 3G29G18G23
  22637194.249   -17786129.97149 -13845490.72246  22637193.977    22637203.221
  24595499.632    -4888128.81149  -3779223.42745  24595499.061    24595511.069
  20754133.688   -26561256.32649 -20649886.90247  20754132.993    20754140.418
  23952784.935    -7071421.57749  -5200436.75445  23952784.473    23952793.727
  22446616.689   -17882131.36549 -13917285.81346  22446616.721    22446624.550
  20774590.702   -25193329.39949 -19604325.32947  20774589.921    20774597.189
  23730842.506    -8243514.45849  -5780299.25445  23730842.180    23730851.678
  24292953.907    -7642597.02949  -5931652.00545  24292953.878    24292962.794
  20492674.714   -26862515.31849 -20916625.88648  20492674.207    20492679.897
  21045356.369   -23435318.49749 -18235656.34547  21045355.763    21045362.756
 03  2 27  1 28 30.0000000  0 10G 6G14G17G16G26G15G 3G29G18G23
  22656017.018   -17687216.23649 -13768415.18546  22656016.736    22656026.011
  24573864.421    -5001821.01549  -3867814.45644  24573863.639    24573875.574
  20755305.574   -26555097.92249 -20645088.14247  20755304.882    20755312.313
  23960812.898    -7029234.95049  -5167564.12645  23960812.435    23960821.707
  22460574.603   -17808782.06049 -13860130.51846  22460574.658    22460582.469
  20767243.987   -25231936.48249 -19634408.75047  20767243.217    20767250.487
  23713842.572    -8332849.86949  -5849911.17545  23713842.129    23713851.654
  24309136.883    -7557555.27349  -5865385.66545  24309136.795    24309145.608
  20490512.783   -26873876.35649 -20925478.63048  20490512.264    20490517.941
  21052983.403   -23395238.06349 -18204424.84247  21052982.813    21052989.790
 03  2 27  1 29  0.0000000  0 10G 6G14G17G16G26G15G 3G29G18G23
  22674887.953   -17588048.77449 -13691141.93946  22674887.702    22674897.018
  24552230.718    -5115505.03549  -3956399.11044  24552230.175    24552242.090
  20756523.122   -26548699.59049 -20640102.41947  20756522.448    20756529.845
  23968911.810    -6986675.26449  -5134400.80645  23968911.338    23968920.759
  22474627.917   -17734931.46049 -13802584.59646  22474627.978    22474635.760
  20759936.312   -25270338.47249 -19664332.35747  20759935.526    20759942.801
  23696894.822    -8421910.82049  -5919309.22445  23696894.362    23696903.906
  24325376.599    -7472215.34049  -5798886.97245  24325376.442    24325385.280
  20488421.338   -26884866.88049 -20934042.66148  20488420.801    20488426.496
  21060655.410   -23354921.53149 -18173009.36347  21060654.822    21060661.787
 03  2 27  1 29 30.0000000  0 10G 6G14G17G16G26G15G 3G29G18G23
  22693806.707   -17488630.18949 -13613673.01546  22693806.455    22693815.839
  24530599.068    -5229178.39649  -4044975.46145  24530598.491    24530610.378
  20757786.604   -26542060.00749 -20634928.71247  20757785.924    20757793.298
  23977081.081    -6943745.30549  -5100948.96645  23977080.672    23977090.130
  22488776.009   -17660582.61849 -13744650.42146  22488776.065    22488783.854
  20752667.812   -25308534.61349 -19694095.57347  20752667.028    20752674.275
  23679999.663    -8510695.32049  -5988491.85045  23679999.227    23680008.720
  24341672.576    -7386579.82649  -5732157.99045  24341672.361    24341681.170
  20486400.198   -26895487.99549 -20942318.84348  20486399.681    20486405.367
  21068371.928   -23314370.99549 -18141411.54747  21068371.330    21068378.268
 03  2 27  1 30  0.0000000  0 10G 6G14G17G16G26G15G 3G29G18G23
  22712772.801   -17388963.02249 -13536010.39646  22712772.544    22712781.949
  24508969.950    -5342838.58249  -4133541.56145  24508969.274    24508981.267
  20759095.990   -26535179.09649 -20629566.96447  20759095.297    20759102.675
  23985320.370    -6900447.78549  -5067210.70845  23985319.998    23985329.492
  22503018.444   -17585738.26749 -13686330.16246  22503018.455    22503026.300
  20745438.677   -25346523.99049 -19723697.67447  20745437.882    20745445.116
  23663157.544    -8599201.03649  -6057457.23445  23663157.187    23663166.552
  24358024.262    -7300651.25449  -5665200.65145  24358024.080    24358032.781
  20484449.089   -26905740.97149 -20950308.16948  20484448.581    20484454.271
  21076132.630   -23273588.31349 -18109632.83747  21076132.027    21076138.988
 03  2 27  1 30 30.0000000  0 10G 6G14G17G16G26G15G 3G29G18G23
  22731785.759   -17289049.75649 -13458156.00646  22731785.472    22731794.969
  24487343.773    -5456483.34249  -4222095.63545  24487343.175    24487355.103
  20760451.490   -26528055.88149 -20624016.39847  20760450.809    20760458.180
  23993629.135    -6856785.25049  -5033188.01745  23993628.786    23993638.272
  22517354.592   -17510401.25749 -13627626.00046  22517354.630    22517362.443
  20738249.029   -25384305.65549 -19753137.90547  20738248.230    20738255.502
  23646368.826    -8687425.62849  -6126203.57345  23646368.539    23646377.813
  24374431.011    -7214432.41149  -5598017.15445  24374430.853    24374439.663
  20482567.931   -26915626.64549 -20958011.28148  20482567.414    20482573.087
  21083937.118   -23232575.39549 -18077674.72147  21083936.534    21083943.473
 03  2 27  1 31  0.0000000  0 10G 6G14G17G16G26G15G 3G29G18G23
  22750845.009   -17188893.09549 -13380111.96046  22750844.737    22750854.222
  24465721.153    -5570110.03149  -4310635.66145  24465720.654    24465732.333
  20761853.276   -26520689.56949 -20618276.41947  20761852.569    20761859.930
  24002006.801    -6812760.39049  -4998883.00645  24002006.417    24002016.026
  22531783.922   -17434574.38149 -13568540.12146  22531783.961    22531791.849
  20731099.084   -25421878.68449 -19782415.57047  20731098.289    20731105.571
  23629634.084    -8775366.82849  -6194729.07045  23629633.775    23629643.106
  24390892.735    -7127925.68849  -5530609.35645  24390892.547    24390901.355
  20480756.435   -26925146.04449 -20965428.98448  20480755.918    20480761.577
  21091785.055   -23191334.25649 -18045538.77547  21091784.461    21091791.383
 03  2 27  1 31 30.0000000  0 10G 6G14G17G16G26G15G 3G29G18G23
  22769950.217   -17088495.03449 -13301879.80646  22769949.991    22769959.403
  24444102.425    -5683716.02249  -4399159.54945  24444102.020    24444113.599
  20763301.446   -26513079.44149 -20612346.44847  20763300.756    20763308.134
  24010453.031    -6768375.53249  -4964297.47245  24010452.749    24010462.172
  22546306.071   -17358260.13049 -13509074.45346  22546306.107    22546313.986
  20723989.028   -25459242.02649 -19811529.84547  20723988.262    20723995.532
  23612953.755    -8863021.87449  -6263031.59145  23612953.432    23612962.744
  24407408.727    -7041133.49649  -5462979.13245  24407408.513    24407417.408
  20479014.535   -26934299.77449 -20972561.74948  20479014.014    20479019.675
  21099676.155   -23149866.24949 -18013226.04347  21099675.569    21099682.489
 03  2 27  1 32  0.0000000  0 10G 6G14G17G16G26G15G 3G29G18G23
  22789100.923   -16987858.09249 -13223461.50246  22789100.694    22789110.080
  24422488.121    -5797298.70749  -4487665.25945  24422487.655    24422499.260
  20764796.248   -26505224.17449 -20606225.45548  20764795.551    20764802.912
  24018967.338    -6723633.19349  -4929433.38145  24018967.055    24018976.424
  22560920.397   -17281461.34049 -13449231.22846  22560920.440    22560928.293
  20716919.090   -25496394.67749 -19840479.93647  20716918.316    20716925.595
  23596328.342    -8950388.32649  -6331109.22845  23596327.933    23596337.377
  24423978.604    -6954058.49049  -5395128.51445  24423978.302    24423987.215
  20477341.960   -26943089.08549 -20979410.54948  20477341.442    20477347.104
  21107610.074   -23108173.26249 -17980738.00247  21107609.486    21107616.419
 03  2 27  1 32 30.0000000  0 10G 6G14G17G16G26G15G 3G29G18G23
  22808296.478   -16886985.13849 -13144859.32246  22808296.225    22808305.651
  24400878.677    -5910856.02249  -4576151.22845  24400878.174    24400889.870
  20766337.767   -26497123.43049 -20599913.18748  20766337.064    20766344.442
  24027549.031    -6678536.59849  -4894293.24245  24027548.675    24027558.110
  22575626.356   -17204181.20949 -13389012.93546  22575626.329    22575634.207
  20709889.384   -25533335.99249 -19869265.35647  20709888.613    20709895.889
  23579758.212    -9037464.40149  -6398960.61945  23579757.793    23579767.270
  24440601.651    -6866703.43449  -5327059.73245  24440601.384    24440610.321
  20475738.503   -26951515.37449 -20985976.48048  20475738.002    20475743.639
  21115586.343   -23066257.70349 -17948076.53547  21115585.754    21115592.695
 03  2 27  1 33  0.0000000  0 10G 6G14G17G16G26G15G 3G29G18G23
  22827536.813   -16785877.05049 -13066073.90746  22827536.555    22827546.014
  24379274.847    -6024383.89849  -4664614.27545  24379274.380    24379285.949
  20767926.419   -26488775.11949 -20593408.00248  20767925.724    20767933.079
  24036197.975    -6633086.49449  -4858877.64945  24036197.626    24036207.108
  22590423.575   -17126420.95349 -13328420.49646  22590423.575    22590431.488
  20702900.392   -25570063.34749 -19897884.05847  20702899.621    20702906.895
  23563244.209    -9124246.03349  -6466582.57946  23563243.836    23563253.215
  24457277.806    -6779069.61749  -5258773.68945  24457277.480    24457286.538
  20474204.249   -26959577.96049 -20992258.99948  20474203.744    20474209.379
  21123604.939   -23024119.57949 -17915241.63847  21123604.353    21123611.294
 03  2 27  1 33 30.0000000  0 10G 6G14G17G16G26G15G 3G29G18G23
  22846821.008   -16684538.39849 -12987108.82546  22846820.725    22846830.231
  24357676.722    -6137882.02949  -4753054.14745  24357676.242    24357687.728
  20769561.873   -26480180.65549 -20586711.01548  20769561.172    20769568.531
  24044913.318    -6587287.89149  -4823190.48345  24044912.923    24044922.428
  22605311.296   -17048185.68149 -13267457.92446  22605311.249    22605319.152
  20695951.912   -25606577.90549 -19926336.94147  20695951.131    20695958.394
  23546786.287    -9210732.78749  -6533974.75646  23546785.889    23546795.277
  24474006.205    -6691161.62749  -5190274.01745  24474005.888    24474014.839
  20472738.585   -26967279.95249 -20998260.54448  20472738.058    20472743.722
  21131665.130   -22981762.88349 -17882236.42247  21131664.553    21131671.505
 03  2 27  1 34  0.0000000  0 10G 6G14G17G16G26G15G 3G29G18G23
  22866148.961   -16582970.00949 -12907964.73846  22866148.645    22866158.140
  24336085.121    -6251346.15449  -4841467.53145  24336084.569    24336095.836
  20771244.832   -26471336.75149 -20579819.65248  20771244.137    20771251.493
  24053694.680    -6541141.61449  -4787232.42045  24053694.344    24053703.845
  22620289.219   -16969476.27949 -13206125.88346  22620289.179    22620297.043
  20689044.447   -25642876.76549 -19954621.74247  20689043.673    20689050.921
  23530385.214    -9296920.53049  -6601133.95646  23530384.854    23530394.201
  24490786.633    -6602980.27649  -5121561.32045  24490786.401    24490795.312
  20471341.641   -26974620.80049 -21003980.67248  20471341.125    20471346.804
  21139766.914   -22939187.69449 -17849060.95447  21139766.334    21139773.273
 03  2 27  1 34 30.0000000  0 10G 6G14G17G16G26G15G 3G29G18G23
  22885519.963   -16481174.67049 -12828643.81146  22885519.644    22885529.226
  24314500.372    -6364774.14249  -4929852.78045  24314499.823    24314510.842
  20772975.274   -26462243.43349 -20572733.93748  20772974.569    20772981.876
  24062541.655    -6494650.69449  -4751005.80445  24062541.329    24062550.785
  22635356.648   -16890296.13749 -13144427.05346  22635356.649    22635364.476
  20682178.111   -25678959.43649 -19982738.08447  20682177.347    20682184.575
  23514041.350    -9382807.54149  -6668058.81646  23514041.048    23514050.342
  24507618.642    -6514528.37849  -5052637.78545  24507618.348    24507627.164
  20470013.183   -26981601.74749 -21009420.35848  20470012.665    20470018.363
  21147909.852   -22896396.29449 -17815717.00347  21147909.277    21147916.218
 03  2 27  1 35  0.0000000  0 10G 6G14G17G16G26G15G 3G29G18G23
  22904933.661   -16379155.09749 -12749148.14346  22904933.424    22904943.062
  24292922.870    -6478163.33649  -5018207.78545  24292922.221    24292933.271
  20774753.253   -26452900.01049 -20565453.33948  20774752.548    20774759.885
  24071453.680    -6447817.93949  -4714512.82645  24071453.270    24071462.832
  22650513.127   -16810648.19949 -13082363.68846  22650513.127    22650521.000
  20675353.108   -25714824.91649 -20010685.18747  20675352.352    20675359.597
  23497755.266    -9468391.53649  -6734747.56646  23497754.883    23497764.153
  24524501.459    -6425808.77949  -4983505.64845  24524501.011    24524510.068
  20468752.999   -26988224.18349 -21014580.68848  20468752.478    20468758.153
  21156093.558   -22853390.56849 -17782206.04547  21156092.992    21156099.942
 03  2 27  1 35 30.0000000  0 10G 6G14G17G16G26G15G 3G29G18G23
  22924389.825   -16276912.84749 -12669478.96846  22924389.575    22924399.259
  24271353.382    -6591510.59049  -5106530.14645  24271352.722    24271363.798
  20776579.110   -26443305.01149 -20557976.70048  20776578.414    20776585.715
  24080430.367    -6400645.25449  -4677754.95345  24080429.965    24080439.566
  22665758.270   -16730534.48749 -13019937.38946  22665758.292    22665766.114
  20668569.772   -25750471.49349 -20038461.71448  20668568.998    20668576.243
  23481527.451    -9553669.05949  -6801197.47346  23481527.027    23481536.275
  24541434.751    -6336823.27949  -4914166.31145  24541434.329    24541443.444
  20467560.999   -26994487.99649 -21019461.57148  20467560.473    20467566.180
  21164317.894   -22810171.48549 -17748528.83247  21164317.308    21164324.264
 03  2 27  1 36  0.0000000  0 10G 6G14G17G16G26G15G 3G29G18G23
  22943887.785   -16174450.72549 -12589638.46146  22943887.547    22943897.275
  24249792.251    -6704813.72249  -5194818.12045  24249791.729    24249802.660
  20778452.932   -26433457.95449 -20550303.65648  20778452.247    20778459.537
  24089471.221    -6353135.62749  -4640734.53545  24089470.777    24089480.389
  22681091.394   -16649958.23049 -12957150.67046  22681091.397    22681099.200
  20661828.249   -25785898.65849 -20066067.25948  20661827.454    20661834.672
  23465358.294    -9638638.36149  -6867407.21346  23465357.831    23465367.011
  24558418.084    -6247574.68649  -4844621.99545  24558417.631    24558426.801
  20466436.918   -27000394.90849 -21024064.34648  20466436.401    20466442.114
  21172582.385   -22766741.31649 -17714687.13447  21172581.777    21172588.763
 03  2 27  1 36 30.0000000  0 10G 6G14G17G16G26G15G 3G29G18G23
  22963427.048   -16071771.58349 -12509628.83446  22963426.850    22963436.538
  24228239.999    -6818070.39449  -5283069.90745  24228239.560    24228250.573
  20780374.922   -26423357.81849 -20542433.40848  20780374.216    20780381.529
  24098575.645    -6305292.09449  -4603453.92545  24098575.233    24098584.787
  22696511.928   -16568922.65049 -12894006.05446  22696511.941    22696519.747
  20655128.574   -25821105.44949 -20093501.08848  20655127.783    20655135.007
  23449248.183    -9723297.14449  -6933374.98246  23449247.684    23449256.894
  24575450.980    -6158065.89849  -4774874.89845  24575450.609    24575459.680
  20465380.543   -27005946.10849 -21028389.94548  20465380.032    20465385.762
  21180886.658   -22723101.92049 -17680682.40447  21180886.058    21180893.073
 03  2 27  1 37  0.0000000  0 10G 6G14G17G16G26G15G 3G29G18G23
  22983007.296   -15968877.37349 -12429451.62546  22983007.035    22983016.757
  24206697.183    -6931277.63949  -5371283.21445  24206696.743    24206707.669
  20782345.257   -26413003.58249 -20534365.15648  20782344.552    20782351.897
  24107743.237    -6257116.69749  -4565914.72445  24107742.847    24107752.417
  22712019.410   -16487430.16249 -12830505.37846  22712019.406    22712027.197
  20648471.089   -25856090.56049 -20120762.17348  20648470.301    20648477.520
  23433197.633    -9807642.43149  -6999098.45646  23433197.175    23433206.420
  24592533.068    -6068299.10649  -4704926.75745  24592532.754    24592541.750
  20464391.747   -27011142.21449 -21032438.83848  20464391.227    20464396.957
  21189230.505   -22679254.74849 -17646515.76547  21189229.921    21189236.916
 03  2 27  1 37 30.0000000  0 10G 6G14G17G16G26G15G 3G29G18G23
  23002628.017   -15865770.46249 -12349108.68946  23002627.791    23002637.477
  24185164.345    -7044432.78749  -5459455.92945  24185163.930    24185174.746
  20784364.104   -26402394.34249 -20526098.20148  20784363.405    20784370.739
  24116973.363    -6208612.17549  -4528119.05845  24116972.998    24116982.544
  22727613.347   -16405483.49049 -12766650.81746  22727613.351    22727621.099
  20641856.046   -25890852.72449 -20147849.54148  20641855.271    20641862.484
  23417207.237    -9891672.12749  -7064576.00146  23417206.775    23417216.034
  24609663.879    -5978276.67649  -4634779.45745  24609663.485    24609672.523
  20463470.319   -27015984.18149 -21036211.78448  20463469.805    20463475.537
  21197613.562   -22635201.49849 -17612188.54747  21197612.968    21197619.978
 03  2 27  1 38  0.0000000  0 10G 6G14G17G16G26G15G 3G29G18G23
  23022288.600   -15762453.91249 -12268602.38446  23022288.351    23022298.044
  24163641.923    -7157533.65549  -5547586.35345  24163641.489    24163652.303
  20786431.690   -26391529.15749 -20517631.80748  20786430.973    20786438.320
  24126265.501    -6159781.65049  -4490069.38145  24126265.104    24126274.806
  22743293.002   -16323085.92949 -12702444.90946  22743293.056    22743300.834
  20635283.560   -25925391.24849 -20174762.63548  20635282.771    20635289.978
  23401277.262    -9975384.08249  -7129805.95246  23401276.783    23401286.042
  24626842.661    -5888001.82349  -4564435.50145  24626842.241    24626851.173
  20462616.047   -27020473.40249 -21039709.86748  20462615.536    20462621.232
  21206035.450   -22590944.24149 -17577702.35947  21206034.858    21206041.872
 03  2 27  1 38 30.0000000  0 10G 6G14G17G16G26G15G 3G29G18G23
  23041988.595   -15658929.86249 -12187934.41846  23041988.333    23041998.148
  24142130.322    -7270577.23149  -5635672.12345  24142129.901    24142140.630
  20788548.072   -26380407.23349 -20508965.35047  20788547.358    20788554.723
  24135619.258    -6110627.45949  -4451767.48745  24135618.789    24135628.648
  22759058.027   -16240240.13149 -12637889.72046  22759058.082    22759065.810
  20628753.915   -25959704.61949 -20201500.28248  20628753.121    20628760.311
  23385408.283   -10058775.31249  -7194785.98146  23385407.809    23385417.125
  24644069.091    -5797476.34349  -4493896.19345  24644068.726    24644077.622
  20461828.739   -27024610.52049 -21042933.58248  20461828.221    20461833.923
  21214495.870   -22546484.38749 -17543058.30447  21214495.271    21214502.300
 03  2 27  1 39  0.0000000  0 10G 6G14G17G16G26G15G 3G29G18G23
  23061727.813   -15555199.99449 -12107106.06146  23061727.558    23061737.338
  24120630.273    -7383560.29949  -5723710.74945  24120629.895    24120640.382
  20790713.568   -26369027.37349 -20500097.90047  20790712.879    20790720.218
  24145034.223    -6061151.70849  -4413215.03645  24145033.771    24145043.576
  22774908.012   -16156948.23049 -12572986.93146  22774908.059    22774915.770
  20622267.446   -25993791.13849 -20228061.16348  20622266.672    20622273.846
  23369600.944   -10141842.73749  -7259513.71746  23369600.542    23369609.814
  24661342.830    -5706702.27449  -4423163.17645  24661342.518    24661351.444
  20461108.422   -27028395.91549 -21045883.22948  20461107.920    20461113.597
  21222994.595   -22501823.07049 -17508257.25847  21222994.007    21223001.047
 03  2 27  1 39 30.0000000  0 10G 6G14G17G16G26G15G 3G29G18G23
  23081505.498   -15451268.07849 -12026120.27146  23081505.216    23081515.003
  24099142.050    -7496481.39149  -5811701.04745  24099141.602    24099152.083
  20792928.130   -26357389.65449 -20491029.51947  20792927.436    20792934.790
  24154509.654    -6011358.12449  -4374414.92145  24154509.281    24154519.037
  22790842.003   -16073214.40549 -12507739.80346  22790842.039    22790849.766
  20615824.162   -26027650.72849 -20254445.21548  20615823.382    20615830.523
  23353855.442   -10224585.41949  -7323988.41246  23353855.013    23353864.255
  24678663.109    -5615683.51549  -4352239.50145  24678662.857    24678671.803
  20460454.548   -27031832.04849 -21048560.71648  20460454.032    20460459.702
  21231531.103   -22456963.22349 -17473301.51647  21231530.517    21231537.562
 03  2 27  1 40  0.0000000  0 10G 6G14G17G16G26G15G 3G29G18G23
  23101321.342   -15347135.52949 -11944978.12846  23101321.058    23101330.822
  24077666.241    -7609336.97949  -5899640.30545  24077665.779    24077676.217
  20795192.051   -26345492.36049 -20481758.86647  20795191.369    20795198.723
  24164045.292    -5961248.69649  -4335368.67745  24164044.850    24164054.600
  22806859.731   -15989040.46649 -12442149.71046  22806859.780    22806867.548
  20609424.420   -26061281.37249 -20280650.86648  20609423.653    20609430.778
  23338172.393   -10307000.01949  -7388207.46246  23338171.980    23338181.123
  24696029.613    -5524421.56249  -4281126.39845  24696029.395    24696038.452
  20459867.161   -27034918.79749 -21050965.95548  20459866.649    20459872.313
  21240105.280   -22411905.59149 -17438191.64747  21240104.692    21240111.738
 03  2 27  1 40 30.0000000  0 10G 6G14G17G16G26G15G 3G29G18G23
  23121174.741   -15242805.59449 -11863682.18646  23121174.414    23121184.221
  24056203.204    -7722125.24649  -5987527.08945  24056202.768    24056213.229
  20797505.521   -26333334.88249 -20472285.46347  20797504.837    20797512.156
  24173640.319    -5910826.59049  -4296078.80545  24173639.857    24173649.659
  22822960.543   -15904430.07249 -12376219.53046  22822960.543    22822968.348
  20603068.343   -26094682.46249 -20306677.63848  20603067.583    20603074.734
  23322552.043   -10389084.86749  -7452169.55746  23322551.664    23322560.753
  24713441.868    -5432919.45949  -4209826.05745  24713441.680    24713450.772
  20459345.896   -27037657.92849 -21053100.32548  20459345.380    20459351.054
  21248716.661   -22366652.33049 -17402929.33147  21248716.070    21248723.119
 03  2 27  1 41  0.0000000  0 10G 6G14G17G16G26G15G 3G29G18G23
  23141065.492   -15138279.51549 -11782233.40846  23141065.204    23141074.998
  24034753.714    -7834842.26849  -6075358.36145  24034753.227    24034763.803
  20799868.909   -26320915.13749 -20462607.69547  20799868.231    20799875.536
  24183294.562    -5860093.20949  -4256546.38745  24183294.143    24183303.965
  22839144.057   -15819385.06549 -12309950.69446  22839144.129    22839151.815
  20596756.349   -26127851.91849 -20332523.91848  20596755.593    20596762.751
  23306995.225   -10470835.92749  -7515871.57446  23306994.854    23307003.886
  24730899.568    -5341178.77749  -4138339.87245  24730899.395    24730908.645
  20458890.820   -27040049.24949 -21054963.67348  20458890.295    20458895.989
  21257365.194   -22321203.98149 -17367514.99847  21257364.613    21257371.631
 03  2 27  1 41 30.0000000  0 10G 6G14G17G16G26G15G 3G29G18G23
  23160992.834   -15033560.99149 -11700634.66646  23160992.598    23161002.398
  24013318.006    -7947486.66049  -6163133.02745  24013317.566    24013328.165
  20802282.205   -26308233.14549 -20452725.58247  20802281.520    20802288.802
  24193007.362    -5809052.84149  -4216774.74845  24193006.890    24193016.764
  22855409.512   -15733909.51549 -12243346.38246  22855409.529    22855417.227
  20590488.427   -26160789.79249 -20358189.73448  20590487.662    20590494.847
  23291502.150   -10552252.13549  -7579312.65146  23291501.819    23291510.768
  24748402.039    -5249203.16149  -4066670.62845  24748401.768    24748411.103
  20458501.423   -27042095.28249 -21056557.96248  20458500.905    20458506.605
  21266050.295   -22275563.60549 -17331951.03547  21266049.690    21266056.679
 03  2 27  1 42  0.0000000  0 10G 6G14G17G16G26G15G 3G29G18G23
  23180956.385   -14928651.98949 -11618887.48746  23180956.127    23180965.975
  23991896.687    -8060055.42449  -6250848.76345  23991896.296    23991906.960
  20804745.548   -26295288.14349 -20442638.52047  20804744.845    20804752.108
  24202778.050    -5757707.61749  -4176765.55745  24202777.626    24202787.466
  22871756.408   -15648005.79749 -12176408.41146  22871756.393    22871764.163
  20584264.907   -26193494.42149 -20383673.80148  20584264.141    20584271.298
  23276073.310   -10633330.74649  -7642490.66746  23276072.970    23276081.842
  24765948.864    -5156994.38149  -3994819.55745  24765948.580    24765957.731
  20458177.701   -27043796.40049 -21057883.48248  20458177.179    20458182.872
  21274771.686   -22229732.39949 -17296238.37247  21274771.093    21274778.077
 03  2 27  1 42 30.0000000  0 10G 6G14G17G16G26G15G 3G29G18G23
  23200955.895   -14823554.53649 -11536993.47946  23200955.632    23200965.503
  23970490.434    -8172545.36549  -6338503.07545  23970489.945    23970500.702
  20807259.225   -26282078.64349 -20432345.36747  20807258.515    20807265.778
  24212606.331    -5706059.87549  -4136520.64045  24212605.902    24212615.728
  22888184.260   -15561676.43449 -12109138.79646  22888184.250    22888192.103
  20578086.088   -26225964.10149 -20408974.80148  20578085.328    20578092.462
  23260709.257   -10714068.95849  -7705403.44846  23260708.867    23260717.699
  24783539.620    -5064554.73249  -3922788.58445  24783539.322    24783548.512
  20457919.460   -27045153.22449 -21058940.72748  20457918.947    20457924.650
  21283529.162   -22183711.43749 -17260377.85947  21283528.570    21283535.524
 03  2 27  1 43  0.0000000  0 10G 6G14G17G16G26G15G 3G29G18G23
  23220990.564   -14718271.93849 -11454955.20146  23220990.353    23221000.247
  23949099.536    -8284954.56449  -6426094.49045  23949099.004    23949109.794
  20809823.199   -26268604.68649 -20421846.14247  20809822.480    20809829.733
  24222491.505    -5654113.09349  -4096042.69645  24222491.068    24222500.887
  22904692.450   -15474925.34449 -12041540.55146  22904692.441    22904700.290
  20571951.997   -26258198.84549 -20434092.73148  20571951.235    20571958.373
  23245410.319   -10794465.21749  -7768049.75446  23245409.878    23245418.700
  24801173.585    -4971887.63749  -3850580.42245  24801173.335    24801182.550
  20457726.402   -27046167.77949 -21059731.25748  20457725.891    20457731.584
  21292322.231   -22137503.52949 -17224371.67947  21292321.633    21292328.580
 03  2 27  1 43 30.0000000  0 10G 6G14G17G16G26G15G 3G29G18G23
  23241060.155   -14612805.88649 -11372773.95946  23241059.959    23241069.905
  23927724.642    -8397279.78449  -6513620.45645  23927724.102    23927734.728
  20812437.792   -26254864.68249 -20411139.61047  20812437.090    20812444.348
  24232433.157    -5601869.58349  -4055333.52945  24232432.766    24232442.459
  22921280.523   -15387754.53149 -11973615.26246  22921280.448    22921288.345
  20565862.954   -26290196.62249 -20459026.01048  20565862.210    20565869.335
  23230177.067   -10874516.29849  -7830427.10546  23230176.623    23230185.340
  24818850.525    -4878995.05549  -3778196.56545  24818850.188    24818859.281
  20457598.386   -27046840.31949 -21060255.27348  20457597.880    20457603.565
  21301150.700   -22091109.43849 -17188220.42047  21301150.111    21301157.043
 03  2 27  1 44  0.0000000  0 10G 6G14G17G16G26G15G 3G29G18G23
  23261164.027   -14507159.66749 -11290452.34746  23261163.781    23261173.863
  23906366.071    -8509519.20749  -6601079.58845  23906365.528    23906376.134
  20815103.046   -26240858.48649 -20400225.66247  20815102.354    20815109.582
  24242430.714    -5549332.60749  -4014395.69845  24242430.275    24242439.921
  22937947.722   -15300167.78749 -11905365.85646  22937947.669    22937955.598
  20559819.201   -26321956.80449 -20483774.15748  20559818.434    20559825.554
  23215009.776   -10954220.60049  -7892534.23146  23215009.314    23215017.998
  24836569.712    -4785879.96449  -3705639.34445  24836569.471    24836578.509
  20457535.132   -27047172.51249 -21060514.09648  20457534.634    20457540.291
  21310014.180   -22044531.53249 -17151925.93347  21310013.575    21310020.508
 03  2 27  1 44 30.0000000  0 10G 6G14G17G16G26G15G 3G29G18G23
  23281301.894   -14401334.82449 -11207991.53946  23281301.660    23281311.799
  23885024.595    -8621668.95249  -6688468.85545  23885024.092    23885034.517
  20817819.387   -26226584.00649 -20389102.66247  20817818.704    20817825.903
  24252483.605    -5496503.93449  -3973230.58145  24252483.314    24252493.142
  22954693.764   -15212166.99149 -11836793.80846  22954693.666    22954701.610
  20553820.992   -26353477.33149 -20508335.56248  20553820.216    20553827.318
  23199909.166   -11033574.60649  -7954368.40546  23199908.678    23199917.373
  24854330.853    -4692543.94949  -3632909.99845  24854330.615    24854339.795
  20457536.612   -27047164.68249 -21060507.95048  20457536.102    20457541.746
  21318912.489   -21997770.56549 -17115488.80047  21318911.885    21318918.786
 03  2 27  1 45  0.0000000  0 10G 6G14G17G16G26G15G 3G29G18G23
  23301473.241   -14295334.14149 -11125393.69946  23301472.986    23301483.175
  23863700.539    -8733726.97849  -6775786.66445  23863700.075    23863710.425
  20820586.780   -26212040.99149 -20377770.42247  20820586.088    20820593.283
  24262591.511    -5443386.79349  -3931840.66145  24262591.218    24262601.028
  22971517.875   -15123755.74349 -11767901.95246  22971517.819    22971525.722
  20547868.530   -26384757.55149 -20532709.72148  20547867.757    20547874.861
  23184875.429   -11112576.64949  -8015928.32046  23184874.965    23184883.656
  24872133.416    -4598990.02749  -3560010.86345  24872133.321    24872142.553
  20457602.533   -27046818.10649 -21060237.84448  20457602.047    20457607.676
  21327845.235   -21950828.48749 -17078910.55147  21327844.620    21327851.525
 03  2 27  1 45 30.0000000  0 10G 6G14G17G16G26G15G 3G29G18G23
  23321677.898   -14189158.50549 -11042659.53646  23321677.609    23321687.834
  23842394.718    -8845689.07949  -6863029.72045  23842394.264    23842404.535
  20823405.798   -26197226.65949 -20366226.77047  20823405.117    20823412.325
  24272754.100    -5389982.38249  -3890226.90245  24272753.782    24272763.655
  22988419.823   -15034935.28749 -11698691.22946  22988419.798    22988427.691
  20541962.334   -26415794.51049 -20556894.33148  20541961.586    20541968.666
  23169909.452   -11191222.66249  -8077210.80546  23169909.006    23169917.769
  24889977.363    -4505219.03449  -3486942.53245  24889977.298    24889986.670
  20457732.967   -27046132.48149 -21059703.55048  20457732.496    20457738.096
  21336812.445   -21903705.27149 -17042191.15147  21336811.862    21336818.759
 03  2 27  1 46  0.0000000  0  9G 6G14G17G16G26G15G 3G18G23
  23341914.675   -14082813.78349 -10959793.61546  23341914.419    23341924.638
  23821107.032    -8957556.00949  -6950198.64245  23821106.691    23821116.716
  20826275.961   -26182143.70249 -20354473.78647  20826275.270    20826282.480
  24282970.203    -5336296.86049  -3848394.09545  24282969.889    24282979.744
  23005398.462   -14945712.00249 -11629166.61646  23005398.424    23005406.316
  20536102.055   -26446590.40249 -20580891.08248  20536101.293    20536108.370
  23155011.012   -11269513.52649  -8138216.55446  23155010.610    23155019.392
  20457927.100   -27045112.39649 -21058908.62548  20457926.592    20457932.183
  21345813.166   -21856406.16249 -17005334.68047  21345812.572    21345819.470
 03  2 27  1 46 30.0000000  0  9G 6G14G17G16G26G15G 3G18G23
  23362183.839   -13976299.10949 -10876795.27146  23362183.617    23362193.834
  23799838.612    -9069321.76049  -7037288.70745  23799838.216    23799848.184
  20829198.043   -26166787.86649 -20342508.18047  20829197.357    20829204.570
  24293239.863    -5282329.83149  -3806341.93145  24293239.570    24293249.349
  23022453.717   -14856085.70049 -11559327.98646  23022453.727    23022461.599
  20530288.438   -26477140.85249 -20604696.59048  20530287.678    20530294.774
  23140181.334   -11347443.57749  -8198941.17146  23140180.917    23140189.726
  20458185.245   -27043755.52249 -21057851.28548  20458184.754    20458190.351
  21354847.643   -21808929.44449 -16968339.82447  21354847.057    21354853.952
 03  2 27  1 47  0.0000000  0  9G 6G14G17G16G26G15G 3G18G23
  23382484.491   -13869619.14149 -10793668.12446  23382484.303    23382494.461
  23778589.571    -9180985.79049  -7124299.52645  23778589.155    23778599.081
  20832171.894   -26151160.03449 -20330330.62647  20832171.228    20832178.426
  24303562.056    -5228085.96249  -3764074.06145  24303561.824    24303571.653
  23039584.857   -14766061.21749 -11489179.07746  23039584.907    23039592.721
  20524521.369   -26507446.71049 -20628311.50748  20524520.620    20524527.725
  23125420.403   -11425012.35949  -8259384.25846  23125419.975    23125428.775
  20458506.892   -27042065.07549 -21056534.01248  20458506.401    20458512.002
  21363915.253   -21761278.60749 -16931209.28947  21363914.670    21363921.566
 03  2 27  1 47 30.0000000  0  9G 6G14G17G16G26G15G 3G18G23
  23402816.068   -13762776.21449 -10710413.99845  23402815.868    23402826.044
  23757360.462    -9292545.18849  -7211228.79645  23757360.092    23757369.922
  20835197.608   -26135259.57649 -20317940.63647  20835196.943    20835204.130
  24313936.588    -5173568.18449  -3721592.76245  24313936.222    24313946.112
  23056791.304   -14675641.54949 -11418722.23446  23056791.276    23056799.101
  20518801.052   -26537506.83849 -20651734.94948  20518800.310    20518807.419
  23110728.575   -11502217.75349  -8319544.19946  23110728.116    23110736.945
  20458891.836   -27040042.05249 -21054957.59448  20458891.334    20458896.928
  21373015.707   -21713455.33349 -16893944.39147  21373015.110    21373022.044
 03  2 27  1 48  0.0000000  0  9G 6G14G17G16G26G15G 3G18G23
  23423178.167   -13655772.94349 -10627034.92345  23423177.991    23423188.228
  23736151.798    -9403997.53249  -7298074.65045  23736151.365    23736161.154
  20838275.436   -26119085.47949 -20305337.42047  20838274.743    20838281.944
  24324362.564    -5118779.46749  -3678900.33845  24324362.114    24324372.310
  23074072.298   -14584829.82649 -11347959.89146  23074072.212    23074080.026
  20513127.775   -26567320.06549 -20674966.00048  20513127.038    20513134.107
  23096106.371   -11579057.41449  -8379419.15046  23096105.939    23096114.734
  20459339.828   -27037687.59349 -21053122.91348  20459339.334    20459344.919
  21382148.650   -21665461.28749 -16856546.42647  21382148.057    21382154.984
 03  2 27  1 48 30.0000000  0  9G 6G14G17G16G26G15G 3G18G23
  23443570.418   -13548611.49749 -10543532.59045  23443570.134    23443580.457
  23714964.043    -9515339.61049  -7384834.58645  23714963.612    23714973.294
  20841405.604   -26102636.29549 -20292519.85247  20841404.916    20841412.106
  24334839.631    -5063722.05649  -3635998.53645  24334839.252    24334849.366
  23091427.354   -14493628.35849 -11276893.81746  23091427.318    23091435.162
  20507501.818   -26596884.65149 -20698003.30748  20507501.072    20507508.129
  23081554.357   -11655528.58449  -8439006.97246  23081553.903    23081562.599
  20459850.816   -27035002.18749 -21051030.34948  20459850.320    20459855.898
  21391313.878   -21617297.59849 -16819016.27047  21391313.292    21391320.195
 03  2 27  1 49  0.0000000  0  9G 6G14G17G16G26G15G 3G18G23
  23463992.315   -13441293.83549 -10459908.53645  23463992.056    23464002.373
  23693797.838    -9626568.38549  -7471506.23145  23693797.406    23693807.084
  20844588.356   -26085910.68949 -20279486.89147  20844587.672    20844594.863
  24345367.483    -5008398.32949  -3592889.22645  24345367.113    24345377.140
  23108856.068   -14402039.90349 -11205526.20146  23108855.992    23108863.840
  20501923.490   -26626198.85149 -20720845.51048  20501922.744    20501929.808
  23067072.962   -11731628.54949  -8498305.54446  23067072.498    23067081.156
  20460424.617   -27031986.59249 -21048680.50348  20460424.123    20460429.703
  21400511.178   -21568965.55549 -16781354.93547  21400510.595    21400517.496
 03  2 27  1 49 30.0000000  0  9G 6G14G17G16G26G15G 3G18G23
  23484443.373   -13333822.85749 -10376165.01645  23484443.138    23484453.504
  23672653.573    -9737681.53349  -7558087.76845  23672653.183    23672662.867
  20847823.754   -26068908.53649 -20266238.44147  20847823.072    20847830.245
  24355945.513    -4952811.52049  -3549574.91345  24355944.990    24355954.915
  23126357.718   -14310067.88749 -11133859.72146  23126357.705    23126365.542
  20496392.957   -26655261.76249 -20743491.89848  20496392.223    20496399.276
  23052662.574   -11807355.17149  -8557313.20946  23052662.164    23052670.732
  20461060.971   -27028642.50749 -21046074.68748  20461060.473    20461066.008
  21409740.111   -21520466.97549 -16743563.82947  21409739.546    21409746.460
 03  2 27  1 50  0.0000000  0  9G 6G14G17G16G26G15G 3G18G23
  23504923.219   -13226200.74549 -10292303.72045  23504923.000    23504933.374
  23651531.930    -9848675.96649  -7644576.79945  23651531.466    23651541.186
  20851111.995   -26051628.68049 -20252773.60547  20851111.306    20851118.494
  24366573.095    -4896963.91049  -3506057.39345  24366572.513    24366582.418
  23143931.872   -14217714.97149 -11061896.44446  23143931.899    23143939.813
  20490910.543   -26684071.81349 -20765941.26048  20490909.798    20490916.851
  23038323.797   -11882705.68249  -8616027.79446  23038323.451    23038331.892
  20461759.687   -27024970.65049 -21043213.46348  20461759.199    20461764.719
  21419000.557   -21471803.19049 -16705643.99447  21418999.985    21419006.865
 03  2 27  1 50 30.0000000  0  9G 6G14G17G16G26G15G 3G18G23
  23525431.315   -13118430.72949 -10208327.17045  23525431.072    23525441.456
  23630433.261    -9959549.94549  -7730971.94745  23630432.732    23630442.517
  20854453.178   -26034070.46749 -20239091.86747  20854452.493    20854459.677
  24377249.478    -4840859.47349  -3462339.72545  24377248.851    24377258.852
  23161577.884   -14124984.76949 -10989639.15546  23161577.913    23161585.779
  20485476.369   -26712628.61949 -20788193.28748  20485475.600    20485482.649
  23024056.894   -11957678.51649  -8674448.09246  23024056.498    23024064.921
  20462520.412   -27020972.91349 -21040098.31548  20462519.922    20462525.428
  21428291.939   -21422976.54549 -16667597.25347  21428291.353    21428298.237
 03  2 27  1 51  0.0000000  0  9G 6G14G17G16G26G15G 3G18G23
  23545967.221   -13010514.39849 -10124236.61545  23545967.006    23545977.358
  23609358.122   -10070299.74549  -7817270.33045  23609357.552    23609367.438
  20857847.625   -26016232.54349 -20225192.17047  20857846.923    20857854.124
  24387974.358    -4784499.89649  -3418423.25745  24387973.927    24387983.828
  23179295.249   -14031879.59449 -10917089.69146  23179295.268    23179303.124
  20480090.761   -26740929.98149 -20810246.27248  20480089.979    20480097.024
  23009862.389   -12032270.71649  -8732571.81146  23009861.984    23009870.423
  20463343.094   -27016649.45849 -21036729.36348  20463342.603    20463348.097
  21437614.196   -21373987.68649 -16629424.10847  21437613.619    21437620.511
 03  2 27  1 51 30.0000000  0  9G 6G14G17G16G26G15G 3G18G23
  23566530.387   -12902454.93249 -10040034.54645  23566530.201    23566540.496
  23588307.002   -10180923.34349  -7903470.39045  23588306.495    23588316.293
  20861295.292   -25998114.69149 -20211074.35247  20861294.596    20861301.808
  24398747.194    -4727888.82549  -3374310.78745  24398746.699    24398756.606
  23197083.245   -13938403.19449 -10844250.98246  23197083.203    23197091.027
  20474753.849   -26768975.57949 -20832099.96048  20474753.073    20474760.112
  22995740.700   -12106480.64049  -8790397.64146  22995740.281    22995748.680
  20464227.413   -27012002.18649 -21033108.08948  20464226.921    20464232.408
  21446966.895   -21324838.71549 -16591126.20347  21446966.324    21446973.209
 03  2 27  1 52  0.0000000  0  9G 6G14G17G16G26G15G 3G18G23
  23587120.249   -12794255.10349  -9955723.09445  23587119.957    23587130.344
  23567280.306   -10291418.67549  -7989570.48245  23567279.832    23567289.618
  20864796.396   -25979716.28549 -20196737.91547  20864795.693    20864802.909
  24409567.196    -4671029.39249  -3330004.80345  24409566.698    24409576.686
  23214941.332   -13844558.72749 -10771125.41745  23214941.291    23214949.078
  20469465.795   -26796764.22549 -20853753.42948  20469465.024    20469472.055
  22981692.052   -12180306.28349  -8847924.06446  22981691.646    22981700.030
  20465173.108   -27007032.46349 -21029235.56348  20465172.616    20465178.058
  21456349.733   -21275531.50949 -16552704.98947  21456349.159    21456356.041
 03  2 27  1 52 30.0000000  0  9G 6G14G17G16G26G15G 3G18G23
  23607736.498   -12685916.36849  -9871303.39545  23607736.135    23607746.638
  23546278.691   -10401781.71449  -8075567.47445  23546278.291    23546288.090
  20868351.281   -25961035.07149 -20182181.10247  20868350.581    20868357.799
  24420434.215    -4613923.20549  -3285506.53645  24420433.656    24420443.792
  23232868.992   -13750348.02049 -10697714.47645  23232868.979    23232876.762
  20464227.096   -26824293.60649 -20875204.86948  20464226.341    20464233.357
  22967717.189   -12253744.17049  -8905148.33946  22967716.811    22967725.135
  20466180.140   -27001740.32149 -21025111.79848  20466179.649    20466185.081
  21465762.632   -21226066.45149 -16514160.77447  21465762.052    21465768.952
 03  2 27  1 53  0.0000000  0 10G 6G14G17G16G26G 9G15G 3G18G23
  23628378.516   -12577441.60849  -9786777.70545  23628378.194    23628388.756
  23525302.759   -10512010.17849  -8161459.60645  23525302.323    23525312.128
  20871960.103   -25942070.55449 -20167403.53647  20871959.393    20871966.626
  24431347.504    -4556573.72549  -3240818.68345  24431346.990    24431357.086
  23250865.694   -13655774.85649 -10624021.11145  23250865.641    23250873.408
  24473258.195    -9054307.82549  -6536911.63345  24473257.797    24473267.960
  20459037.880   -26851563.04349 -20896453.75848  20459037.113    20459044.117
  22953816.506   -12326792.32549  -8962068.91946  22953816.104    22953824.463
  20467248.245   -26996127.21249 -21020737.93148  20467247.749    20467253.203
  21475205.152   -21176445.60249 -16475495.16147  21475204.555    21475211.463
 03  2 27  1 53 30.0000000  0 10G 6G14G17G16G26G 9G15G 3G18G23
  23649046.096   -12468832.94249  -9702147.67545  23649045.776    23649056.435
  23504353.037   -10622101.16849  -8247244.61645  23504352.596    23504362.226
  20875623.033   -25922821.54749 -20152404.28247  20875622.328    20875629.564
  24442306.638    -4498983.51049  -3195943.24645  24442306.184    24442316.270
  23268930.975   -13560841.74449 -10550047.22545  23268930.934    23268938.590
  24459981.565    -9124076.88449  -6591276.98745  24459981.188    24459991.469
  20453898.447   -26878570.78549 -20917498.72248  20453897.691    20453904.694
  22939990.427   -12399448.28049  -9018683.89846  22939990.086    22939998.443
  20468377.307   -26990194.00549 -21016114.64248  20468376.798    20468382.257
  21484677.114   -21126670.12249 -16436709.05647  21484676.508    21484683.415
 03  2 27  1 54  0.0000000  0 10G 6G14G17G16G26G 9G15G 3G18G23
  23669738.549   -12360093.42549  -9617415.66345  23669738.281    23669748.992
  23483429.929   -10732052.66449  -8332920.92145  23483429.450    23483438.952
  20879340.152   -25903287.79549 -20137183.15247  20879339.464    20879346.698
  24453310.927    -4441156.04749  -3150882.94645  24453310.416    24453320.529
  23287063.936   -13465552.34749 -10475795.72645  23287063.861    23287071.500
  24446740.011    -9193661.42249  -6645498.57945  24446739.624    24446749.986
  20448808.938   -26905316.13249 -20938339.22648  20448808.185    20448815.177
  22926239.378   -12471710.23249  -9074991.86246  22926239.025    22926247.359
  20469566.888   -26983942.50349 -21011243.33648  20469566.384    20469571.850
  21494178.038   -21076742.30449 -16397804.24647  21494177.431    21494184.362
 03  2 27  1 54 30.0000000  0 10G 6G14G17G16G26G 9G15G 3G18G23
  23690455.446   -12251225.43649  -9532583.55645  23690455.179    23690465.944
  23462533.896   -10841861.81449  -8418486.31545  23462533.347    23462542.786
  20883111.601   -25883468.47649 -20121739.50047  20883110.913    20883118.159
  24464359.736    -4383093.99749  -3105639.85245  24464359.256    24464369.295
  23305264.098   -13369909.63749 -10401268.92945  23305264.042    23305271.711
  24433534.266    -9263057.92949  -6699573.65145  24433533.806    24433543.988
  20443769.622   -26931797.71849 -20958974.19748  20443768.863    20443775.842
  22912563.835   -12543575.77449  -9130990.93746  22912563.472    22912571.727
  20470816.844   -26977373.83749 -21006124.88948  20470816.339    20470821.799
  21503707.713   -21026663.47049 -16358781.76847  21503707.103    21503714.029
 03  2 27  1 55  0.0000000  0 10G 6G14G17G16G26G 9G15G 3G18G23
  23711196.474   -12142230.92149  -9447652.84945  23711196.270    23711206.931
  23441665.398   -10951525.53149  -8503938.38045  23441664.824    23441674.221
  20886937.611   -25863362.28249 -20106072.31147  20886936.935    20886944.195
  24475452.825    -4324799.75949  -3060215.85345  24475452.277    24475462.420
  23323530.990   -13273916.10849 -10326468.78045  23323530.986    23323538.690
  24420364.934    -9332262.90249  -6753499.47145  24420364.523    24420374.590
  20438780.800   -26958014.02549 -20979402.45648  20438780.057    20438787.019
  22898964.193   -12615042.35949  -9186679.12846  22898963.787    22898972.012
  20472127.047   -26970488.66649 -21000759.80748  20472126.542    20472132.001
  21513265.914   -20976434.64449 -16319642.40847  21513265.316    21513272.237
 03  2 27  1 55 30.0000000  0 10G 6G14G17G16G26G 9G15G 3G18G23
  23731960.873   -12033114.10549  -9362626.83745  23731960.566    23731971.222
  23420824.846   -11061042.74549  -8589276.27645  23420824.191    23420833.565
  20890818.148   -25842969.82949 -20090182.07347  20890817.478    20890824.741
  24486589.174    -4266277.97649  -3014614.52045  24486588.627    24486598.945
  23341863.837   -13177576.26749 -10251398.76445  23341863.894    23341871.583
  24407232.504    -9401274.05449  -6807274.27245  24407232.025    24407242.135
  20433842.445   -26983965.18749 -20999624.11248  20433841.706    20433848.655
  22885440.582   -12686108.97649  -9242055.66746  22885440.199    22885448.399
  20473496.973   -26963289.56949 -20995150.10748  20473496.463    20473501.930
  21522852.142   -20926058.80249 -16280388.49947  21522851.540    21522858.425
 03  2 27  1 56  0.0000000  0 10G 6G14G17G16G26G 9G15G 3G18G23
  23752748.277   -11923875.54049  -9277505.95945  23752748.045    23752758.607
  23400013.023   -11170408.71049  -8674496.30445  23400012.429    23400021.726
  20894753.680   -25822288.38149 -20074066.64847  20894753.014    20894760.266
  24497768.661    -4207529.54849  -2968836.60045  24497768.218    24497778.454
  23360262.366   -13080891.52449 -10176059.96945  23360262.397    23360270.173
  24394137.732    -9470086.72549  -6860894.40345  24394137.460    24394147.483
  20428955.127   -27009648.23249 -21019636.85448  20428954.369    20428961.277
  22871993.845   -12756771.74349  -9297117.50946  22871993.468    22872001.606
  20474926.772   -26955775.83549 -20989295.23148  20474926.283    20474931.726
  21532466.411   -20875535.60449 -16241019.78047  21532465.804    21532472.672
 03  2 27  1 56 30.0000000  0 10G 6G14G17G16G26G 9G15G 3G18G23
  23773558.269   -11814518.45849  -9192292.71745  23773558.078    23773568.691
  23379230.255   -11279621.60149  -8759597.04445  23379229.646    23379239.047
  20898744.264   -25801317.68249 -20057725.83447  20898743.601    20898750.837
  24508990.494    -4148558.07149  -2922884.87145  24508990.079    24509000.433
  23378725.710   -12983865.72049 -10100455.45845  23378725.735    23378733.552
  24381081.149    -9538698.48949  -6914357.97245  24381080.990    24381090.986
  20424118.916   -27035062.70449 -21039440.31648  20424118.147    20424125.065
  22858624.267   -12827029.24649  -9351863.54946  22858623.864    22858631.994
  20476416.108   -26947949.35349 -20983196.65348  20476415.602    20476421.063
  21542108.241   -20824867.41449 -16201538.08547  21542107.639    21542114.512
 03  2 27  1 57  0.0000000  0 10G 6G14G17G16G26G 9G15G 3G18G23
  23794390.447   -11705045.14749  -9106988.90845  23794390.206    23794400.812
  23358477.206   -11388678.36649  -8844576.12445  23358476.643    23358486.113
  20902790.041   -25780056.90749 -20041158.99247  20902789.370    20902796.600
  24520254.446    -4089365.92649  -2876761.21045  24520254.051    24520264.468
  23397253.437   -12886501.54449 -10024587.29445  23397253.459    23397261.349
  24368063.645    -9607105.74649  -6967662.20545  24368063.361    24368073.416
  20419334.106   -27060206.82149 -21059033.11348  20419333.360    20419340.245
  22845332.236   -12896878.93549  -9406291.82446  22845331.836    22845339.975
  20477964.755   -26939811.03049 -20976855.08448  20477964.270    20477969.701
  21551777.391   -20774055.42049 -16161944.32047  21551776.806    21551783.694
 03  2 27  1 57 30.0000000  0 10G 6G14G17G16G26G 9G15G 3G18G23
  23815244.106   -11595458.92649  -9021597.10945  23815243.829    23815254.473
  23337754.261   -11497577.12449  -8929432.07045  23337753.720    23337763.249
  20906891.104   -25758505.69849 -20024365.84447  20906890.431    20906897.639
  24531559.725    -4029957.06449  -2830468.65545  24531559.315    24531569.613
  23415844.870   -12788802.71049  -9948458.29145  23415844.938    23415852.789
  24355085.399    -9675306.16949  -7020805.27945  24355085.156    24355095.137
  20414600.910   -27085080.03849 -21078414.82748  20414600.136    20414607.023
  22832118.100   -12966319.24349  -9460401.09346  22832117.674    22832125.927
  20479572.418   -26931362.70549 -20970271.95548  20479571.927    20479577.333
  21561473.531   -20723101.90149 -16122240.27147  21561472.943    21561479.819
 03  2 27  1 58  0.0000000  0 10G 6G14G17G16G26G 9G15G 3G18G23
  23836118.934   -11485761.20249  -8936118.44445  23836118.568    23836129.274
  23317062.125   -11606314.22349  -9014162.05645  23317061.535    23317071.100
  20911047.787   -25736662.23749 -20007344.96347  20911047.113    20911054.296
  24542905.851    -3970333.30749  -2784008.66545  24542905.490    24542915.762
  23434499.652   -12690771.31849  -9872070.22445  23434499.694    23434507.553
  24342147.307    -9743295.51649  -7073783.89345  24342147.042    24342157.197
  20409919.627   -27109680.15349 -21097583.73448  20409918.867    20409925.732
  22818982.481   -13035347.01449  -9514188.90946  22818982.088    22818990.370
  20481239.013   -26922604.79749 -20963447.59348  20481238.514    20481243.910
  21571196.528   -20672007.10549 -16082426.12247  21571195.932    21571202.829
 03  2 27  1 58 30.0000000  0 10G 6G14G17G16G26G 9G15G 3G18G23
  23857014.298   -11375955.33949  -8850555.52545  23857014.023    23857024.775
  23296401.051   -11714888.13749  -9098764.88246  23296400.488    23296409.985
  20915260.099   -25714526.39149 -19990096.24347  20915259.417    20915266.611
  24554292.147    -3910498.67449  -2737384.33945  24554291.717    24554301.982
  23453216.879   -12592411.34449  -9795426.10745  23453216.946    23453224.807
  24329249.855    -9811071.40149  -7126596.20445  24329249.641    24329259.788
  20405290.418   -27134006.89349 -21116539.62648  20405289.652    20405296.513
  22805925.541   -13103961.10549  -9567654.38146  22805925.207    22805933.476
  20482964.079   -26913539.37949 -20956383.61448  20482963.589    20482968.990
  21580945.921   -20620773.55049 -16042503.86047  21580945.333    21580952.265
 03  2 27  1 59  0.0000000  0 10G 6G14G17G16G26G 9G15G 3G18G23
  23877929.888   -11266043.36749  -8764909.90045  23877929.564    23877940.469
  23275771.620   -11823295.68749  -9183238.06246  23275771.029    23275780.532
  20919528.241   -25692096.96049 -19972618.76247  20919527.573    20919534.762
  24565717.900    -3850455.56849  -2690597.58245  24565717.618    24565727.936
  23471996.265   -12493725.45549  -9718528.04145  23471996.265    23472004.135
  24316393.826    -9878629.99249  -7179239.19445  24316393.641    24316403.664
  20400713.585   -27158058.29149 -21135280.96048  20400712.810    20400719.643
  22792947.895   -13172158.77149  -9620795.38046  22792947.561    22792955.828
  20484747.572   -26904167.00049 -20949080.44948  20484747.085    20484752.474
  21590721.581   -20569402.14649 -16002474.17847  21590720.985    21590727.903
 03  2 27  1 59 30.0000000  0 10G 6G14G17G16G26G 9G15G 3G18G23
  23898865.101   -11156028.33949  -8679183.98445  23898864.770    23898875.730
  23255174.379   -11931534.44049  -9267579.73146  23255173.828    23255183.209
  20923852.324   -25669373.61849 -19954912.24747  20923851.649    20923858.848
  24577182.739    -3790207.29449  -2643650.94345  24577182.321    24577192.904
  23490836.908   -12394717.21749  -9641378.81045  23490836.942    23490844.794
  24303579.629    -9945968.73049  -7231710.86745  24303579.412    24303589.468
  20396189.245   -27181833.83049 -21153807.33348  20396188.463    20396195.279
  22780049.876   -13239938.27049  -9673610.53046  22780049.490    22780057.740
  20486589.132   -26894489.54449 -20941539.56348  20486588.630    20486593.994
  21600523.080   -20517895.03749 -15962338.74647  21600522.480    21600529.389
 03  2 27  2  0  0.0000000  0 10G 6G14G17G16G26G 9G15G 3G18G23
  23919819.601   -11045912.11749  -8593379.23345  23919819.353    23919830.224
  23234609.872   -12039601.26449  -9351787.41946  23234609.285    23234618.578
  20928232.517   -25646355.39049 -19936975.94647  20928231.847    20928239.066
  24588686.157    -3729756.12849  -2596546.20645  24588685.718    24588696.350
  23509738.442   -12295388.98349  -9563980.21745  23509738.507    23509746.357
  24290808.063   -10013083.64949  -7284008.14745  24290807.864    24290817.831
  20391717.787   -27205331.46049 -21172117.15748  20391717.008    20391723.833
  22767231.970   -13307296.85649  -9726097.68546  22767231.564    22767239.795
  20488488.656   -26884507.32949 -20933761.19948  20488488.165    20488493.532
  21610350.221   -20466252.90149 -15922098.09147  21610349.626    21610356.531
 03  2 27  2  0 30.0000000  0 10G 6G14G17G16G26G 9G15G 3G18G23
  23940792.874   -10935697.35949  -8507497.68145  23940792.634    23940803.525
  23214078.435   -12147493.78049  -9435859.28046  23214077.869    23214087.160
  20932669.112   -25623040.82849 -19918808.73847  20932668.445    20932675.677
  24600227.502    -3669105.30049  -2549285.90245  24600227.087    24600237.796
  23528700.292   -12195744.11549  -9486334.91645  23528700.319    23528708.143
  24278079.703   -10079971.69049  -7336128.60145  24278079.495    24278089.356
  20387299.351   -27228550.22649 -21190209.67548  20387298.587    20387305.416
  22754494.426   -13374232.56349  -9778255.33946  22754494.022    22754502.298
  20490445.914   -26874221.87049 -20925746.54648  20490445.410    20490450.798
  21620202.751   -20414477.39849 -15881753.51247  21620202.156    21620209.069
 03  2 27  2  1  0.0000000  0 10G 6G14G17G16G26G 9G15G 3G18G23
  23961784.261   -10825387.28649  -8421541.87245  23961784.082    23961794.928
  23193580.505   -12255210.06349  -9519793.79846  23193579.989    23193589.225
  20937162.038   -25599430.18349 -19900410.80647  20937161.365    20937168.624
  24611806.353    -3608258.31349  -2501872.76845  24611805.982    24611816.643
  23547721.743   -12095786.23749  -9408445.69545  23547721.742    23547729.495
  24265395.025   -10146630.18749  -7388070.18645  24265394.717    24265404.559
  20382934.155   -27251489.32249 -21208084.25648  20382933.399    20382940.236
  22741837.690   -13440744.17249  -9830082.52446  22741837.273    22741845.530
  20492460.511   -26863635.03449 -20917497.04748  20492460.005    20492465.387
  21630080.238   -20362570.70449 -15841306.72247  21630079.648    21630086.540
 03  2 27  2  1 30.0000000  0 10G 6G14G17G16G26G 9G15G 3G18G23
  23982793.416   -10714983.53849  -8335513.04345  23982793.167    23982804.123
  23173116.889   -12362746.60449  -9603588.27346  23173116.346    23173125.461
  20941711.611   -25575521.90349 -19881780.95647  20941710.945    20941718.204
  24623422.187    -3547217.40749  -2454308.48245  24623421.689    24623432.426
  23566802.280   -11995517.62549  -9330314.34445  23566802.222    23566810.011
  24252754.726   -10213055.29149  -7439829.88545  24252754.358    24252764.305
  20378622.555   -27274146.80249 -21225739.39348  20378621.794    20378628.623
  22729262.204   -13506828.57049  -9881576.81946  22729261.790    22729270.031
  20494532.374   -26852747.13749 -20909012.94948  20494531.861    20494537.269
  21639982.618   -20310533.31749 -15800758.09747  21639982.032    21639988.926
 03  2 27  2  2  0.0000000  0 10G 6G14G17G16G26G 9G15G 3G18G23
  24003819.965   -10604488.42849  -8249413.04045  24003819.781    24003830.696
  23152688.024   -12470100.33649  -9687240.29446  23152687.458    23152696.431
  20946318.054   -25551314.73749 -19862918.19947  20946317.376    20946324.626
  24635074.156    -3485985.32749  -2406595.24245  24635073.743    24635084.505
  23585941.337   -11894941.14349  -9251943.07445  23585941.233    23585949.085
  24240159.369   -10279243.47049  -7491404.94745  24240159.077    24240168.949
  20374364.854   -27296521.14549 -21243173.89748  20374364.091    20374370.920
  22716768.506   -13572483.10249  -9932736.13846  22716768.119    22716776.364
  20496661.385   -26841559.07849 -20900294.94848  20496660.867    20496666.284
  21649909.639   -20258366.35549 -15760108.49447  21649909.050    21649915.952
 03  2 27  2  2 30.0000000  0 10G 6G14G17G16G26G 9G15G 3G18G23
  24024863.309   -10493905.28849  -8163244.42645  24024863.133    24024874.116
  23132294.178   -12577269.65649  -9770748.62446  23132293.677    23132302.530
  20950981.380   -25526808.72649 -19843822.58247  20950980.718    20950987.946
  24646762.111    -3424565.80249  -2358735.94845  24646761.622    24646772.383
  23605138.241   -11794060.68349  -9173334.95745  23605138.133    23605145.958
  24227609.592   -10345192.55949  -7542793.69445  24227609.365    24227619.184
  20370161.114   -27318611.71449 -21260387.28448  20370160.352    20370167.192
  22704356.843   -13637706.89849  -9983559.82546  22704356.471    22704364.708
  20498847.106   -26830072.94949 -20891344.68848  20498846.584    20498852.013
  21659860.870   -20206072.22649 -15719359.79647  21659860.281    21659867.190
 03  2 27  2  3  0.0000000  0 10G 6G14G17G16G26G 9G15G 3G18G23
  24045922.987   -10383236.35249  -8077008.96345  24045922.794    24045933.840
  23111936.005   -12684251.55049  -9854110.91546  23111935.511    23111944.286
  20955701.784   -25502002.88349 -19824493.33447  20955701.120    20955708.310
  24658485.181    -3362961.36949  -2310732.57345  24658484.786    24658495.404
  23624392.423   -11692878.97649  -9094492.07045  23624392.403    23624400.259
  24215105.982   -10410898.90849  -7593993.29645  24215105.652    24215115.493
  20366011.662   -27340416.93349 -21277378.31648  20366010.904    20366017.754
  22692027.569   -13702497.52949 -10034045.97846  22692027.187    22692035.426
  20501089.362   -26818289.68649 -20882162.89648  20501088.842    20501094.263
  21669836.088   -20153651.86749 -15678512.74947  21669835.495    21669842.402
 03  2 27  2  3 30.0000000  0 10G 6G14G17G16G26G 9G15G 3G18G23
  24066998.654   -10272483.62249  -7990708.19945  24066998.423    24067009.415
  23091614.100   -12791042.88649  -9937324.72546  23091613.589    23091622.353
  20960479.543   -25476895.68849 -19804929.27347  20960478.862    20960486.045
  24670242.822    -3301174.67749  -2262587.16445  24670242.327    24670253.021
  23643703.482   -11591398.72049  -9015416.55845  23643703.405    23643711.342
  24202649.189   -10476358.86149  -7645000.92045  24202648.925    24202658.710
  20361916.855   -27361935.23849 -21294145.77848  20361916.099    20361922.944
  22679781.300   -13766852.13349 -10084192.35946  22679780.914    22679789.082
  20503387.990   -26806210.15249 -20872750.23648  20503387.460    20503392.885
  21679835.159   -20101106.36549 -15637568.18647  21679834.563    21679841.479
 03  2 27  2  4  0.0000000  0 10G 6G14G17G16G26G 9G15G 3G18G23
  24088089.502   -10161650.84249  -7904345.06845  24088089.213    24088100.218
  23071328.739   -12897642.10749 -10020388.84046  23071328.232    23071336.928
  20965314.453   -25451487.88349 -19785130.97047  20965313.795    20965320.979
  24682034.429    -3239209.76649  -2214302.88645  24682033.943    24682044.641
  23663070.549   -11489624.11649  -8936111.69945  23663070.478    23663078.447
  24190239.830   -10541570.20349  -7695814.81945  24190239.646    24190249.252
  20357876.646   -27383166.44249 -21310689.52448  20357875.896    20357882.709
  22667618.116   -13830770.01649 -10133998.43846  22667617.705    22667625.848
  20505742.600   -26793836.41949 -20863108.32948  20505742.090    20505747.519
  21689857.558   -20048438.18049 -15596528.01947  21689856.945    21689863.851
 03  2 27  2  4 30.0000000  0 10G 6G14G17G16G26G 9G15G 3G18G23
  24109195.252   -10050739.80249  -7817920.95445  24109194.972    24109205.919
  23051080.603   -13004045.93849 -10103300.70846  23051080.100    23051088.638
  20970206.922   -25425777.75649 -19765097.09347  20970206.268    20970213.432
  24693859.454    -3177068.70649  -2165881.35945  24693859.057    24693869.810
  23682493.136   -11387557.64049  -8856579.46145  23682493.091    23682500.972
  24177878.392   -10606529.28249  -7746432.14545  24177878.193    24177887.793
  20353891.506   -27404108.56249 -21327008.02948  20353890.745    20353897.531
  22655538.454   -13894248.54749 -10183462.15746  22655538.087    22655546.217
  20508153.085   -26781168.98149 -20853237.56248  20508152.581    20508158.011
  21699903.131   -19995648.04449 -15555392.82247  21699902.520    21699909.461
 03  2 27  2  5  0.0000000  0  9G 6G14G17G26G 9G15G 3G18G23
  24130315.917    -9939749.94949  -7731435.42745  24130315.670    24130326.687
  23030870.647   -13110248.72549 -10186055.93246  23030870.171    23030878.682
  20975157.669   -25399761.43149 -19744824.61547  20975157.001    20975164.175
  23701971.266   -11285199.22349  -8776819.74145  23701971.256    23701979.126
  24165566.277   -10671229.68749  -7796847.88445  24165566.077    24165575.572
  20349962.116   -27424757.24149 -21343097.86548  20349961.365    20349968.163
  22643543.407   -13957282.61949 -10232579.53646  22643543.031    22643551.192
  20510619.795   -26768206.20249 -20843136.66148  20510619.284    20510624.679
  21709972.264   -19942734.28649 -15514161.28947  21709971.689    21709978.605
 03  2 27  2  5 30.0000000  0  9G 6G14G17G26G 9G15G 3G18G23
  24151451.136    -9828684.14549  -7644890.72145  24151450.749    24151461.935
  23010699.314   -13216248.29249 -10268652.80346  23010698.915    23010707.439
  20980166.724   -25373438.46549 -19724313.19947  20980166.043    20980173.225
  23721504.345   -11182552.29049  -8696835.17645  23721504.335    23721512.185
  24153303.874   -10735668.81849  -7847060.05345  24153303.616    24153313.043
  20346088.762   -27445111.70649 -21358958.44548  20346088.017    20346094.809
  22631633.279   -14019870.43649 -10281349.19846  22631632.957    22631641.083
  20513142.471   -26754949.41849 -20832806.66648  20513141.947    20513147.326
  21720064.552   -19889698.72949 -15472834.85547  21720063.973    21720070.918
 03  2 27  2  6  0.0000000  0  9G 6G14G17G26G 9G15G 3G18G23
  24172599.539    -9717549.03249  -7558292.02945  24172599.108    24172610.168
  22990566.497   -13322045.92149 -10351092.32946  22990566.102    22990574.590
  20985233.548   -25346812.19049 -19703565.43747  20985232.866    20985240.012
  23741090.946   -11079624.03949  -8616631.40145  23741091.015    23741098.866
  24141090.929   -10799847.33849  -7897069.14945  24141090.621    24141100.105
  20342270.858   -27465174.65349 -21374591.86948  20342270.110    20342276.905
  22619807.704   -14082014.10349 -10329772.75446  22619807.353    22619815.414
  20515720.023   -26741404.18049 -20822251.90948  20515719.513    20515724.869
  21730179.034   -19836546.70149 -15431417.65547  21730178.451    21730185.396
 03  2 27  2  6 30.0000000  0  9G 6G14G17G26G 9G15G 3G18G23
  24193760.587    -9606347.08749  -7471641.23945  24193760.318    24193771.294
  22970472.644   -13427639.14949 -10433372.58146  22970472.163    22970480.723
  20990358.272   -25319881.62349 -19682580.55947  20990357.598    20990364.705
  23760730.569   -10976417.55749  -8536210.86445  23760730.618    23760738.489
  24128928.231   -10863762.30649  -7946872.87545  24128927.781    24128937.353
  20338508.656   -27484944.90549 -21389997.22648  20338507.894    20338514.704
  22608067.016   -14143711.72349 -10377848.74546  22608066.631    22608074.645
  20518352.228   -26727571.67849 -20811473.29648  20518351.721    20518357.063
  21740315.373   -19783279.69449 -15389910.86447  21740314.783    21740321.723
 03  2 27  2  7  0.0000000  0  9G 6G14G17G26G 9G15G 3G18G23
  24214934.133    -9495079.47149  -7384939.29345  24214933.850    24214944.787
  22950418.399   -13533024.33149 -10515490.73746  22950417.907    22950426.429
  20995541.189   -25292645.01449 -19661357.20047  20995540.520    20995547.649
  23780422.726   -10872934.62149  -8455574.91845  23780422.825    23780430.693
  24116816.518   -10927409.12949  -7996467.67045  24116816.145    24116825.592
  20334802.662   -27504419.94649 -21405172.54148  20334801.930    20334808.712
  22596411.790   -14204960.07749 -10425574.65246  22596411.430    22596419.407
  20521039.145   -26713451.72549 -20800470.70448  20521038.631    20521043.964
  21750473.639   -19729897.67249 -15348314.45147  21750473.041    21750479.946
 03  2 27  2  7 30.0000000  0  9G 6G14G17G26G 9G15G 3G18G23
  24236119.720    -9383748.52049  -7298187.99545  24236119.563    24236130.387
  22930404.325   -13638198.24649 -10597444.26346  22930403.862    22930412.276
  21000782.520   -25265101.66549 -19639894.82747  21000781.831    21000788.972
  23800167.000   -10769177.98349  -8374725.63845  23800167.127    23800174.959
  24104756.535   -10990784.28749  -8045850.77045  24104756.125    24104765.436
  20331153.174   -27523598.11949 -21420116.52948  20331152.406    20331159.198
  22584842.490   -14265756.74649 -10472948.59446  22584842.149    22584850.099
  20523780.516   -26699045.64449 -20789245.17148  20523780.003    20523785.344
  21760653.534   -19676401.88249 -15306629.39547  21760652.933    21760659.815
 03  2 27  2  8  0.0000000  0  9G 6G14G17G26G 9G15G 3G18G23
  24257316.854    -9272357.54649  -7211389.92745  24257316.609    24257327.528
  22910430.882   -13743159.12149 -10679231.78546  22910430.369    22910438.722
  21006082.368   -25237250.76649 -19618192.79847  21006081.692    21006088.815
  23819962.616   -10665151.64249  -8293666.16645  23819962.763    23819970.625
  24092748.482   -11053885.88149  -8095020.69545  24092748.097    24092757.409
  20327560.211   -27542478.92449 -21434828.79348  20327559.464    20327566.230
  22573359.317   -14326100.95149 -10519969.97246  22573358.929    22573366.907
  20526575.966   -26684355.18249 -20777798.02348  20526575.458    20526580.807
  21770854.651   -19622794.55249 -15264857.41547  21770854.051    21770860.908
 03  2 27  2  8 30.0000000  0  9G 6G14G17G26G 9G15G 3G18G23
  24278525.050    -9160907.98849  -7124546.20545  24278524.867    24278535.862
  22890498.614   -13847903.44849 -10760850.56346  22890498.048    22890506.368
  21011440.885   -25209091.49449 -19596250.48247  21011440.213    21011447.321
  23839809.237   -10560857.63649  -8212398.09945  23839809.333    23839817.246
  24080793.491   -11116709.45249  -8143973.97445  24080793.164    24080802.357
  20324024.314   -27561059.97449 -21449307.48448  20324023.551    20324030.330
  22561962.817   -14385989.56949 -10566636.34646  22561962.448    22561970.418
  20529425.509   -26669380.61549 -20766129.49548  20529425.005    20529430.335
  21781076.928   -19569075.94949 -15222998.74347  21781076.345    21781083.183
 03  2 27  2  9  0.0000000  0  9G 6G14G17G26G 9G15G 3G18G23
  24299744.076    -9049401.88949  -7037658.45745  24299743.887    24299754.815
  22870608.064   -13952428.15949 -10842298.21846  22870607.508    22870615.838
  21016858.365   -25180622.39849 -19574066.74647  21016857.672    21016864.766
  23859706.153   -10456298.59249  -8130923.56445  23859706.199    23859714.237
  24068892.030   -11179251.41149  -8192707.83545  24068891.793    24068900.930
  20320545.721   -27579340.00849 -21463551.62548  20320544.960    20320551.733
  22550653.536   -14445419.97849 -10612945.68246  22550653.158    22550661.105
  20532328.985   -26654122.57049 -20754240.07948  20532328.485    20532333.792
  21791320.241   -19515246.87549 -15181053.99447  21791319.673    21791326.472
 03  2 27  2  9 30.0000000  0  9G 6G14G17G26G 9G15G 3G18G23
  24320973.080    -8937842.96949  -6950729.53945  24320972.851    24320983.908
  22850759.615   -14056731.71849 -10923573.55146  22850759.069    22850767.361
  21022334.811   -25151843.40049 -19551641.53347  21022334.141    21022341.191
  23879652.733   -10351478.71949  -8049245.79845  23879652.740    23879660.870
  24057044.657   -11241509.61649  -8241220.60045  24057044.455    24057053.523
  20317124.453   -27597318.69249 -21477560.95048  20317123.688    20317130.473
  22539431.574   -14504391.61649 -10658897.53446  22539431.177    22539439.102
  20535285.953   -26638583.55949 -20742131.72748  20535285.448    20535290.750
  21801584.089   -19461309.81049 -15139025.09847  21801583.518    21801590.300
 03  2 27  2 10  0.0000000  0  9G 6G14G17G26G 9G15G 3G18G23
  24342211.791    -8826232.59349  -6863760.54745  24342211.637    24342222.804
  22830953.885   -14160810.53549 -11004673.76646  22830953.350    22830961.658
  21027870.430   -25122753.34549 -19528973.94047  21027869.759    21027876.824
  23899648.438   -10246399.99949  -7967366.31045  23899648.547    23899656.816
  24045251.979   -11303479.99749  -8289509.08145  24045251.829    24045260.716
  20313760.982   -27614993.69049 -21491333.63548  20313760.216    20313766.974
  22528297.510   -14562901.26949 -10704489.39646  22528297.075    22528305.005
  20538296.399   -26622763.59849 -20729804.44248  20538295.894    20538301.179
  21811868.491   -19407265.00349 -15096912.23847  21811867.898    21811874.696
 03  2 27  2 10 30.0000000  0  9G 6G14G17G26G 9G15G 3G18G23
  24363459.932    -8714573.56549  -6776753.63745  24363459.797    24363470.944
  22811191.437   -14264662.32449 -11085597.06946  22811190.891    22811199.142
  21033465.454   -25093351.24649 -19506063.20447  21033464.785    21033471.839
  23919692.890   -10141065.76049  -7885287.73345  23919693.051    23919701.315
  24033514.478   -11365159.68749  -8337571.02445  24033514.335    24033523.319
  20310455.556   -27632363.67549 -21504868.64148  20310454.785    20310461.521
  22517251.560   -14620947.51149 -10749720.15646  22517251.162    22517259.089
  20541359.927   -26606664.31849 -20717259.50848  20541359.433    20541364.721
  21822173.022   -19353114.09749 -15054716.70047  21822172.424    21822179.235
 03  2 27  2 11  0.0000000  0  9G 6G14G17G26G 9G15G 3G18G23
  24384716.758    -8602868.74749  -6689711.02445  24384716.582    24384727.738
  22791472.609   -14368284.68149 -11166341.59946  22791472.052    22791480.246
  21039119.855   -25063636.93449 -19482909.19147  21039119.181    21039126.230
  23939785.487   -10035479.31549  -7803012.59645  23939785.642    23939793.818
  24021832.886   -11426545.99949  -8385404.36045  24021832.652    24021841.613
  20307208.312   -27649427.88349 -21518165.38148  20307207.533    20307214.252
  22506294.130   -14678528.81249 -10794588.63246  22506293.768    22506301.660
  20544476.399   -26590287.05249 -20704497.96648  20544475.905    20544481.193
  21832497.462   -19298858.57149 -15012439.65947  21832496.887    21832503.677
 03  2 27  2 11 30.0000000  0  9G 6G14G17G26G 9G15G 3G18G23
  24405981.868    -8491120.34749  -6602634.45145  24405981.710    24405992.894
  22771797.965   -14471675.03549 -11246905.33546  22771797.413    22771805.587
  21044833.834   -25033609.78449 -19459511.41047  21044833.155    21044840.203
  23959925.398    -9929643.67949  -7720543.29945  23959925.399    23959933.655
  24010207.749   -11487635.56049  -8433006.46745  24010207.480    24010216.550
  20304019.515   -27666184.83449 -21531222.70648  20304018.750    20304025.480
  22495425.519   -14735643.30749 -10839093.35146  22495425.151    22495433.037
  20547645.490   -26573633.16649 -20691520.87848  20547645.001    20547650.269
  21842841.632   -19244499.66149 -14970082.04947  21842841.046    21842847.815
 03  2 27  2 12  0.0000000  0  9G 6G14G17G26G 9G15G 3G18G23
  24427254.867    -8379330.66849  -6515525.71645  24427254.594    24427265.841
  22752168.048   -14574830.46649 -11327286.02346  22752167.512    22752175.610
  21050607.605   -25003268.18649 -19435868.60447  21050606.928    21050613.983
  23980112.250    -9823561.50849  -7637881.84145  23980112.304    23980120.504
  23998639.788   -11548424.90449  -8480374.62545  23998639.408    23998648.625
  20300889.479   -27682632.96749 -21544039.39748  20300888.717    20300895.434
  22484646.207   -14792288.58749 -10883232.45046  22484645.864    22484653.751
  20550867.051   -26556703.49849 -20678328.90348  20550866.561    20550871.837
  21853205.241   -19190038.31549 -14927644.61547  21853204.661    21853211.435
 03  2 27  2 12 30.0000000  0  9G 6G14G17G26G 9G15G 3G18G23
  24448535.126    -8267502.62549  -6428387.09745  24448534.782    24448546.131
  22732583.204   -14677748.88049 -11407482.01646  22732582.681    22732590.701
  21056441.232   -24972612.21749 -19411980.83647  21056440.579    21056447.619
  24000345.309    -9717236.48349  -7555031.18245  24000345.167    24000353.415
  23987129.499   -11608911.61849  -8527506.99545  23987129.156    23987138.266
  20297818.361   -27698771.76949 -21556615.05248  20297817.593    20297824.288
  22473956.401   -14848463.42949 -10927004.97446  22473956.064    22473963.989
  20554140.785   -26539499.67549 -20664923.30948  20554140.305    20554145.563
  21863588.083   -19135476.28749 -14885128.73447  21863587.483    21863594.246
 03  2 27  2 13  0.0000000  0  9G 6G14G17G26G 9G15G 3G18G23
  24469822.305    -8155638.05249  -6341220.01645  24469821.905    24469833.354
  22713044.062   -14780427.09749 -11487490.84746  22713043.547    22713051.526
  21062334.964   -24941640.63149 -19387847.13547  21062334.289    21062341.299
  24020623.982    -9610670.92549  -7471993.04745  24020623.759    24020632.260
  23975677.572   -11669091.73849  -8574400.46945  23975677.254    23975686.238
  20294806.472   -27714599.16749 -21568948.06148  20294805.708    20294812.370
  22463356.606   -14904165.30049 -10970408.95046  22463356.262    22463364.188
  20557466.638   -26522022.22249 -20651304.50548  20557466.132    20557471.388
  21873989.900   -19080814.18449 -14842534.87747  21873989.332    21873996.062
 03  2 27  2 13 30.0000000  0  9G 6G14G17G26G 9G15G 3G18G23
  24491115.957    -8043739.52149  -6254026.47645  24491115.603    24491127.107
  22693551.091   -14882862.62749 -11567310.56546  22693550.592    22693558.512
  21068288.845   -24910352.61449 -19363466.85747  21068288.167    21068295.214
  24040947.771    -9503868.06349  -7388769.99745  24040947.698    24040956.033
  23964284.451   -11728962.25049  -8621052.66845  23964284.122    23964293.086
  20291854.029   -27730114.10649 -21581037.59548  20291853.272    20291859.935
  22452847.239   -14959392.49949 -11013443.05346  22452846.848    22452854.726
  20560844.199   -26504272.76349 -20637473.73448  20560843.694    20560848.953
  21884410.488   -19026053.54649 -14799864.23647  21884409.898    21884416.644
 03  2 27  2 14  0.0000000  0  9G 6G14G17G26G 9G15G 3G18G23
  24512415.617    -7931809.77349  -6166808.60045  24512415.088    24512426.630
  22674104.772   -14985053.07449 -11646939.31246  22674104.294    22674112.148
  21074302.982   -24878747.93949 -19338839.83047  21074302.314    21074309.405
  24061316.143    -9396831.01249  -7305364.46345  24061316.107    24061324.460
  23952950.804   -11788520.41249  -8667461.50345  23952950.458    23952959.438
  20288961.341   -27745315.33949 -21592882.69248  20288960.585    20288967.233
  22442428.420   -15014143.40949 -11056106.02046  22442428.001    22442435.884
  20564273.331   -26486252.39849 -20623431.86848  20564272.830    20564278.091
  21894849.558   -18971195.68549 -14757117.84447  21894848.972    21894855.767
 03  2 27  2 14 30.0000000  0  9G 6G14G17G26G 9G15G 3G18G23
  24533720.551    -7819851.73049  -6079568.67645  24533720.029    24533731.592
  22654705.469   -15086996.46849 -11726375.55646  22654704.974    22654712.773
  21080377.582   -24846826.00549 -19313965.58947  21080376.859    21080383.962
  24081728.403    -9289563.26449  -7221779.19545  24081728.446    24081736.861
  23941677.250   -11847763.48749  -8713624.82145  23941676.852    23941685.784
  20286128.454   -27760202.00649 -21604482.67148  20286127.686    20286134.347
  22432100.432   -15068416.74249 -11098396.85746  22432100.070    22432107.891
  20567753.663   -26467963.01649 -20609180.38148  20567753.151    20567758.414
  21905306.855   -18916242.21149 -14714296.94547  21905306.272    21905313.075
 03  2 27  2 15  0.0000000  0  8G14G17G26G 9G15G 3G18G23
  22635354.057   -15188688.19449 -11805615.70046  22635353.541    22635361.290
  21086512.882   -24814584.64649 -19288842.44447  21086512.191    21086519.242
  24102184.473    -9182065.94349  -7138014.99845  24102184.565    24102192.780
  23930464.486   -11906686.51949  -8759538.73445  23930464.075    23930473.061
  20283356.037   -27774770.99049 -21615835.09848  20283355.285    20283361.950
  22421864.117   -15122208.76849 -11140312.65546  22421863.767    22421871.549
  20571285.378   -26449403.55349 -20594718.44248  20571284.876    20571290.164
  21915782.425   -18861192.46449 -14671401.03347  21915781.860    21915788.685
 03  2 27  2 15 30.0000000  0  8G14G17G26G 9G15G 3G18G23
  22616050.768   -15290127.01549 -11884658.77146  22616050.255    22616057.911
  21092708.841   -24782024.84249 -19263471.15847  21092708.132    21092715.162
  24122683.490    -9074343.36749  -7054075.15045  24122683.493    24122691.669
  23919312.889   -11965287.89649  -8805202.02445  23919312.565    23919321.475
  20280644.031   -27789022.53349 -21626940.15948  20280643.293    20280649.940
  22411719.331   -15175519.47949 -11181853.41346  22411719.010    22411726.781
  20574867.935   -26430576.88449 -20580048.28248  20574867.426    20574872.722
  21926275.823   -18806049.07049 -14628432.15647  21926275.266    21926282.071
 03  2 27  2 16  0.0000000  0  8G14G17G26G 9G15G 3G18G23
  22596796.013   -15391310.79049 -11963503.11646  22596795.494    22596803.084
  21098965.456   -24749145.96949 -19237851.25347  21098964.761    21098971.779
  24143224.703    -8966398.82649  -6969962.30145  24143224.723    24143232.787
  23908223.097   -12023564.70549  -8850612.40145  23908222.762    23908231.606
  20277992.656   -27802955.52349 -21637797.00248  20277991.908    20277998.555
  22401666.538   -15228347.10649 -11223017.75746  22401666.199    22401673.920
  20578501.106   -26411484.44249 -20565171.03348  20578500.601    20578505.863
  21936786.796   -18750813.57949 -14585391.53147  21936786.229    21936793.015
 03  2 27  2 16 30.0000000  0  8G14G17G26G 9G15G 3G18G23
  22577590.161   -15492237.69249 -12042147.29846  22577589.620    22577597.170
  21105282.914   -24715947.39849 -19211982.23247  21105282.217    21105289.273
  24163807.305    -8858236.04349  -6885679.37845  24163807.504    24163815.407
  23897195.463   -12081514.55549  -8895768.00445  23897195.176    23897204.024
  20275402.031   -27816569.15349 -21648404.99948  20275401.282    20275407.925
  22391705.891   -15280690.59449 -11263804.85946  22391705.535    22391713.205
  20582184.483   -26392128.09649 -20550088.14548  20582183.991    20582189.239
  21947314.978   -18695487.66949 -14542280.44047  21947314.430    21947321.175
 03  2 27  2 17  0.0000000  0  8G14G17G26G 9G15G 3G18G23
  22558433.795   -15592904.46249 -12120588.79346  22558433.242    22558440.793
  21111661.366   -24682428.26449 -19185863.41947  21111660.691    21111667.776
  24184430.953    -8749857.47949  -6801228.36745  24184430.958    24184439.037
  23886230.873   -12139133.66549  -8940665.86645  23886230.577    23886239.381
  20272872.574   -27829861.49749 -21658762.63648  20272871.803    20272878.435
  22381837.875   -15332547.47049 -11304212.77646  22381837.507    22381845.130
  20585917.943   -26372508.48949 -20534800.11548  20585917.446    20585922.679
  21957860.268   -18640071.85449 -14499099.28547  21957859.700    21957866.452
 03  2 27  2 17 30.0000000  0  9G14G17G26G 9G15G 3G31G18G23
  22539326.390   -15693313.69949 -12198829.61046  22539325.860    22539333.373
  21118099.964   -24648592.99349 -19159498.26647  21118099.304    21118106.412
  24205094.029    -8641271.82049  -6716616.18945  24205094.022    24205102.231
  23875328.706   -12196424.64949  -8985308.06645  23875328.444    23875337.148
  20270403.428   -27842836.70349 -21668873.16348  20270402.672    20270409.315
  22372061.673   -15383921.43049 -11344244.41646  22372061.284    22372068.895
  24372154.729    -4160718.28349  -3214158.03845  24372154.139    24372163.583
  20589700.303   -26352631.97949 -20519311.91948  20589699.817    20589705.018
  21968421.394   -18584572.77949 -14455853.26547  21968420.809    21968427.547
 03  2 27  2 18  0.0000000  0  9G14G17G26G 9G15G 3G31G18G23
  22520269.868   -15793455.46049 -12276862.01446  22520269.402    22520276.832
  21124600.269   -24614433.59249 -19132880.54747  21124599.604    21124606.738
  24225797.512    -8532473.84949  -6631838.44445  24225797.500    24225805.755
  23864491.058   -12253376.49749  -9029685.98045  23864490.807    23864499.460
  20267996.314   -27855486.04049 -21678729.77048  20267995.559    20268002.191
  22362379.128   -15434803.33249 -11383892.62846  22362378.727    22362386.365
  24355184.162    -4249898.74549  -3283649.23145  24355183.498    24355193.033
  20593532.750   -26332492.38049 -20503618.71648  20593532.264    20593537.431
  21978999.600   -18528984.11049 -14412537.43647  21978999.015    21979005.724
 03  2 27  2 18 30.0000000  0  9G14G17G26G 9G15G 3G31G18G23
  22501264.907   -15893326.77549 -12354683.68846  22501264.399    22501271.785
  21131162.414   -24579949.24349 -19106009.61947  21131161.741    21131168.870
  24246540.884    -8423466.16249  -6546897.24245  24246540.899    24246549.207
  23853718.461   -12309985.81549  -9073797.00545  23853718.205    23853726.976
  20265651.582   -27867807.59549 -21688330.97148  20265650.822    20265657.445
  22352790.660   -15485191.10549 -11423155.80246  22352790.245    22352797.842
  24338273.302    -4338765.67549  -3352896.08245  24338272.605    24338282.022
  20597415.182   -26312090.05449 -20487720.77748  20597414.677    20597419.852
  21989594.704   -18473306.57449 -14369152.36347  21989594.121    21989600.809
 03  2 27  2 19  0.0000000  0  9G14G17G26G 9G15G 3G31G18G23
  22482311.536   -15992927.02249 -12432294.13846  22482311.000    22482318.361
  21137786.220   -24545140.87349 -19078886.21247  21137785.565    21137792.655
  24267323.083    -8314253.91549  -6461796.66445  24267323.142    24267331.436
  23843011.370   -12366251.43149  -9117640.19145  23843011.127    23843019.939
  20263369.082   -27879802.15749 -21697677.35748  20263368.322    20263374.941
  22343296.088   -15535085.08749 -11462034.21546  22343295.718    22343303.310
  24321422.129    -4427318.46649  -3421898.15745  24321421.400    24321430.922
  20601346.937   -26291428.35449 -20471620.73848  20601346.445    20601351.605
  22000206.133   -18417543.14049 -14325700.35647  22000205.555    22000212.236
 03  2 27  2 19 30.0000000  0  9G14G17G26G 9G15G 3G31G18G23
  22463410.167   -16092253.42749 -12509691.20646  22463409.655    22463417.028
  21144471.853   -24510007.62549 -19051509.65347  21144471.177    21144478.291
  24288143.811    -8204839.53549  -6376538.52445  24288143.898    24288152.109
  23832370.311   -12422170.16649  -9161213.11445  23832370.084    23832378.780
  20261149.038   -27891468.44549 -21706767.94448  20261148.289    20261154.900
  22333895.864   -15584483.00849 -11500526.09046  22333895.546    22333903.156
  24304631.307    -4515554.26349  -3490653.21545  24304630.714    24304640.045
  20605327.897   -26270508.28549 -20455319.37848  20605327.399    20605332.562
  22010833.778   -18361694.73349 -14282182.13447  22010833.187    22010839.840
 03  2 27  2 20  0.0000000  0  9G14G17G26G 9G15G 3G31G18G23
  22444561.473   -16191303.22849 -12586872.74446  22444561.014    22444568.378
  21151219.460   -24474548.70149 -19023879.32047  21151218.796    21151225.917
  24309002.472    -8095225.89749  -6291125.02145  24309002.558    24309010.654
  23821795.834   -12477738.77849  -9204513.22945  23821795.545    23821804.209
  20258991.806   -27902804.63449 -21715601.32048  20258991.052    20258997.678
  22324590.467   -15633383.12549 -11538630.06546  22324590.158    22324597.779
  24287901.334    -4603470.34949  -3559159.14745  24287900.776    24287910.079
  20609357.844   -26249330.69949 -20438817.35548  20609357.339    20609362.498
  22021477.449   -18305762.07949 -14238598.25347  22021476.829    22021483.485
 03  2 27  2 20 30.0000000  0  9G14G17G26G 9G15G 3G31G18G23
  22425765.587   -16290075.73649 -12663838.20446  22425765.126    22425772.451
  21158028.791   -24438765.26749 -18995996.12747  21158028.152    21158035.258
  24329898.114    -7985417.63149  -6205559.84045  24329898.162    24329906.443
  23811288.143   -12532956.06049  -9247539.57745  23811287.919    23811296.665
  20256897.338   -27913811.15749 -21724177.81448  20256896.582    20256903.187
  22315379.787   -15681785.68749 -11576346.33746  22315379.484    22315387.041
  24271232.280    -4691065.68149  -3627415.14745  24271231.836    24271241.078
  20613436.284   -26227898.36349 -20422116.82848  20613435.785    20613440.939
  22032136.530   -18249748.14549 -14194951.04147  22032135.920    22032142.572
 03  2 27  2 21  0.0000000  0  9G14G17G26G 9G15G 3G31G18G23
  22407023.129   -16388567.89549 -12740585.21546  22407022.631    22407029.912
  21164900.120   -24402656.06649 -18967859.08847  21164899.485    21164906.591
  24350830.154    -7875417.62449  -6119845.35845  24350830.241    24350838.606
  23800848.059   -12587818.56349  -9290289.47745  23800847.846    23800856.468
  20254865.848   -27924486.63349 -21732496.34948  20254865.099    20254871.661
  22306264.176   -15729688.82949 -11613673.44847  22306263.835    22306271.344
  24254624.739    -4778337.60949  -3695419.16945  24254624.344    24254633.793
  20617562.987   -26206212.43149 -20405218.68848  20617562.489    20617567.656
  22042810.981   -18193653.75549 -14151241.13947  22042810.380    22042816.991
 03  2 27  2 21 30.0000000  0  9G14G17G26G 9G15G 3G31G18G23
  22388334.698   -16486775.97549 -12817110.87146  22388334.179    22388341.406
  21171833.870   -24366219.15049 -18939466.68347  21171833.225    21171840.287
  24371798.450    -7765227.32749  -6033982.58845  24371798.505    24371806.946
  23790476.411   -12642321.85849  -9332759.48745  23790476.196    23790484.739
  20252897.865   -27934828.40749 -21740554.85048  20252897.111    20252903.651
  22297244.038   -15777089.57149 -11650609.07247  22297243.719    22297251.219
  24238079.670    -4865282.07049  -3763168.02445  24238079.137    24238088.644
  20621737.989   -26184272.47949 -20388122.61548  20621737.498    20621742.644
  22053500.800   -18137478.66449 -14107468.34647  22053500.189    22053506.752
 03  2 27  2 22  0.0000000  0  9G14G17G26G 9G15G 3G31G18G23
  22369700.312   -16584699.64549 -12893414.91246  22369699.789    22369707.020
  21178829.630   -24329456.16449 -18910820.20347  21178828.992    21178836.026
  24392802.064    -7654851.99949  -5947975.66045  24392802.075    24392810.499
  23780173.220   -12696465.37549  -9374949.15845  23780172.869    23780181.478
  20250993.244   -27944837.28749 -21748353.95548  20250992.480    20250999.001
  22288319.502   -15823988.52449 -11687153.69747  22288319.177    22288326.626
  24221596.997    -4951898.74549  -3830661.46345  24221596.478    24221605.832
  20625960.715   -26162081.87249 -20370831.22648  20625960.235    20625965.377
  22064205.300   -18081226.08449 -14063635.17147  22064204.699    22064211.294
 03  2 27  2 22 30.0000000  0  9G14G17G26G 9G15G 3G31G18G23
  22351120.712   -16682335.44649 -12969494.65546  22351120.202    22351127.412
  21185887.705   -24292365.57549 -18881918.45947  21185887.056    21185894.098
  24413840.586    -7544293.77949  -5861826.52145  24413840.539    24413849.006
  23769939.122   -12750244.88149  -9416855.16645  23769938.854    23769947.421
  20249152.395   -27954510.83049 -21755891.77348  20249151.624    20249158.163
  22279490.946   -15870382.94549 -11723305.17647  22279490.640    22279498.055
  24205177.361    -5038184.02849  -3897896.67945  24205176.666    24205186.220
  20630231.072   -26139640.85149 -20353344.69948  20630230.599    20630235.746
  22074924.554   -18024895.97349 -14019741.58447  22074923.968    22074930.567
 03  2 27  2 23  0.0000000  0  9G14G17G26G 9G15G 3G31G18G23
  22332596.652   -16779679.72249 -13045347.22246  22332596.156    22332603.288
  21193008.485   -24254945.75749 -18852760.16847  21193007.836    21193014.851
  24434913.702    -7433553.99249  -5775535.77145  24434913.761    24434921.858
  23759775.144   -12803656.43749  -9458474.45645  23759774.850    23759783.489
  20247375.786   -27963846.89949 -21763166.61548  20247375.044    20247381.543
  22270758.862   -15916270.42949 -11759061.64147  22270758.525    22270765.931
  24188821.411    -5124134.29649  -3964870.83645  24188820.838    24188830.386
  20634549.070   -26116949.55949 -20335663.15348  20634548.589    20634553.748
  22085658.574   -17968488.50849 -13975787.71747  22085657.957    22085664.587
 03  2 27  2 23 30.0000000  0  8G14G17G 9G15G 3G31G18G23
  22314128.342   -16876730.77849 -13120971.32146  22314127.831    22314134.963
  21200191.902   -24217196.78349 -18823345.40347  21200191.253    21200198.276
  23749681.579   -12856697.86849  -9499805.34445  23749681.308    23749689.958
  20245663.538   -27972844.85849 -21770177.99348  20245662.779    20245669.265
  22262123.380   -15961650.12849 -11794422.43547  22262123.023    22262130.446
  24172529.614    -5209747.74249  -4031582.52245  24172528.947    24172538.503
  20638914.335   -26094009.75849 -20317787.97348  20638913.867    20638919.006
  22096406.888   -17912005.44449 -13931774.95047  22096406.296    22096412.942
 03  2 27  2 24  0.0000000  0  8G14G17G 9G15G 3G31G18G23
  22295716.363   -16973485.82449 -13196364.74946  22295715.857    22295722.956
  21207438.067   -24179118.01149 -18793673.64747  21207437.407    21207444.438
  23739659.081   -12909366.07049  -9540845.41645  23739658.866    23739667.435
  20244015.922   -27981503.10349 -21776924.65648  20244015.160    20244021.640
  22253584.838   -16006520.34049 -11829386.21747  22253584.484    22253591.899
  24156302.530    -5295021.53749  -4098029.54145  24156301.911    24156311.595
  20643326.733   -26070822.49849 -20299719.96248  20643326.233    20643331.367
  22107169.519   -17855447.52549 -13887703.85047  22107168.935    22107175.576
 03  2 27  2 24 30.0000000  0  8G14G17G 9G15G 3G31G18G23
  22277360.916   -17069944.00549 -13271526.86446  22277360.374    22277367.453
  21214746.879   -24140710.01849 -18763745.36747  21214746.207    21214753.245
  23729707.892   -12961659.38949  -9581593.37445  23729707.656    23729716.135
  20242432.893   -27989821.95249 -21783406.84848  20242432.136    20242438.616
  22245143.343   -16050880.91049 -11863952.87947  22245142.968    22245150.344
  24140140.296    -5379954.60449  -4164211.05845  24140139.690    24140149.346
  20647785.681   -26047390.46949 -20281461.21348  20647785.196    20647790.307
  22117945.915   -17798817.30149 -13843576.40647  22117945.335    22117951.962
 03  2 27  2 25  0.0000000  0  8G14G17G 9G15G 3G31G18G23
  22259062.650   -17166101.58449 -13346454.74146  22259062.102    22259069.176
  21222118.603   -24101971.31049 -18733559.38247  21222117.924    21222124.977
  23719828.795   -13013574.08749  -9622046.31045  23719828.505    23719837.028
  20240914.853   -27997799.09249 -21789622.78348  20240914.117    20240920.565
  22236799.222   -16094729.51749 -11898120.61347  22236798.844    22236806.209
  24124043.649    -5464543.30349  -4230124.21745  24124042.963    24124052.612
  20652291.223   -26023713.55249 -20263011.65048  20652290.747    20652295.853
  22128736.064   -17742114.70749 -13799392.56947  22128735.475    22128742.108
 03  2 27  2 25 30.0000000  0  8G14G17G 9G15G 3G31G18G23
  22240821.947   -17261956.61549 -13421146.86346  22240821.410    22240828.464
  21229553.250   -24062901.93049 -18703115.72847  21229552.577    21229559.645
  23710022.332   -13065107.24149  -9662201.94945  23710022.053    23710030.460
  20239462.018   -28005433.73649 -21795571.83348  20239461.263    20239467.705
  22228552.703   -16138065.18549 -11931888.64347  22228552.314    22228559.708
  24108012.901    -5548785.39449  -4295767.29245  24108012.200    24108021.836
  20656843.096   -25999793.34249 -20244372.51148  20656842.606    20656847.706
  22139539.736   -17685341.00149 -13755153.32147  22139539.126    22139545.807
 03  2 27  2 26  0.0000000  0  8G14G17G 9G15G 3G31G18G23
  22222639.293   -17357506.61449 -13495601.31346  22222638.758    22222645.801
  21237051.022   -24023500.98149 -18672413.70547  21237050.336    21237057.423
  23700288.861   -13116256.15949  -9702058.16045  23700288.542    23700297.043
  20238074.548   -28012724.79749 -21801253.16248  20238073.793    20238080.228
  22220404.012   -16180886.67449 -11965256.02047  22220403.615    22220411.037
  24092048.455    -5632678.60249  -4361138.48745  24092047.832    24092057.429
  20661440.968   -25975631.13549 -20225544.81348  20661440.483    20661445.608
  22150356.743   -17628497.45049 -13710859.64447  22150356.147    22150362.793
 03  2 27  2 26 30.0000000  0  8G14G17G 9G15G 3G31G18G23
  22204515.360   -17452748.20449 -13569815.44946  22204514.824    22204521.798
  21244611.986   -23983767.78449 -18641452.78447  21244611.322    21244618.413
  23690629.326   -13167017.10749  -9741612.04645  23690628.959    23690637.559
  20236752.899   -28019670.00049 -21806664.98748  20236752.138    20236758.591
  22212353.681   -16223191.39749 -11998220.71547  22212353.288    22212360.681
  24076151.061    -5716219.40949  -4426235.08345  24076150.478    24076159.959
  20666084.850   -25951227.08849 -20206528.65448  20666084.368    20666089.526
  22161186.973   -17571584.03149 -13666511.51047  22161186.380    22161193.051
 03  2 27  2 27  0.0000000  0  8G14G17G 9G15G 3G31G18G23
  22186450.248   -17547680.81149 -13643788.80946  22186449.691    22186456.614
  21252236.140   -23943702.61149 -18610233.17747  21252235.464    21252242.603
  23681043.958   -13217388.64649  -9780862.49345  23681043.555    23681052.098
  20235496.988   -28026269.74549 -21811807.62448  20235496.228    20235502.688
  22204401.645   -16264979.58649 -12030782.90347  22204401.253    22204408.629
  24060320.985    -5799406.87049  -4491056.34345  24060320.407    24060329.810
  20670774.285   -25926583.82149 -20187326.09148  20670773.811    20670778.965
  22172030.030   -17514603.36849 -13622110.98947  22172029.453    22172036.103
 03  2 27  2 27 30.0000000  0  8G14G17G 9G15G 3G31G18G23
  22168444.452   -17642301.34749 -13717519.01246  22168443.936    22168450.855
  21259923.648   -23903304.51549 -18578754.15047  21259923.001    21259930.120
  23671533.207   -13267367.57649  -9819806.99445  23671532.789    23671541.330
  20234307.166   -28032522.21149 -21816679.65748  20234306.411    20234312.851
  22196548.239   -16306249.33949 -12062941.11647  22196547.840    22196555.229
  24044558.617    -5882238.09949  -4555600.01545  24044558.119    24044567.467
  20675509.146   -25901702.04449 -20167937.68148  20675508.653    20675513.819
  22182885.755   -17457556.06249 -13577658.52947  22182885.178    22182891.851
 03  2 27  2 28  0.0000000  0  8G14G17G 9G15G 3G31G18G23
  22150498.769   -17736606.03549 -13791003.10447  22150498.269    22150505.176
  21267674.856   -23862571.82749 -18547014.40347  21267674.205    21267681.333
  23662097.862   -13316949.48649  -9858442.13145  23662097.631    23662106.099
  20233183.932   -28038424.74449 -21821279.01948  20233183.179    20233189.611
  22188793.945   -16346997.87149 -12094693.18547  22188793.598    22188801.001
  24028864.821    -5964709.05649  -4619862.94845  24028864.334    24028873.685
  20680289.398   -25876581.54449 -20148363.25748  20680288.924    20680294.054
  22193754.278   -17400441.57149 -13533153.71047  22193753.704    22193760.381
 03  2 27  2 28 30.0000000  0  8G14G17G 9G15G 3G31G18G23
  22132613.377   -17830593.95149 -13864240.36247  22132612.911    22132619.776
  21275489.491   -23821505.83949 -18515014.94147  21275488.816    21275495.943
  23652738.350   -13366133.16949  -9896766.97045  23652738.240    23652746.562
  20232127.258   -28043977.59549 -21825605.90248  20232126.530    20232132.946
  22181138.820   -16387225.49449 -12126039.33747  22181138.478    22181145.917
  24013239.691    -6046818.92149  -4683844.52045  24013239.251    24013248.572
  20685114.621   -25851224.96449 -20128604.87248  20685114.133    20685119.245
  22204635.108   -17343262.42049 -13488598.50647  22204634.531    22204641.181
 03  2 27  2 29  0.0000000  0  8G14G17G 9G15G 3G31G18G23
  22114789.007   -17924261.38449 -13937227.91147  22114788.511    22114795.393
  21283367.894   -23780104.32549 -18482754.03347  21283367.261    21283374.366
  23643455.440   -13414914.61349  -9934778.38345  23643455.376    23643463.635
  20231137.584   -28049178.21849 -21829658.31848  20231136.845    20231143.252
  22173583.314   -16426929.69049 -12156977.63047  22173582.988    22173590.430
  23997684.024    -6128563.90949  -4747541.77745  23997683.570    23997692.791
  20689984.707   -25825632.39749 -20108662.60248  20689984.212    20689989.315
  22215528.279   -17286018.34449 -13443992.71047  22215527.680    22215534.378
 03  2 27  2 29 30.0000000  0  8G14G17G 9G15G 3G31G18G23
  22097025.750   -18017607.76649 -14009965.26647  22097025.228    22097032.129
  21291309.919   -23738368.86749 -18450232.90647  21291309.263    21291316.369
  23634249.452   -13463292.86349  -9972475.63345  23634249.310    23634257.466
  20230214.786   -28054027.54549 -21833436.99848  20230214.044    20230220.442
  22166127.356   -16466110.93349 -12187508.42247  22166127.010    22166134.435
  23982197.809    -6209943.44149  -4810954.26045  23982197.471    23982206.557
  20694899.182   -25799806.62349 -20088538.61448  20694898.690    20694903.776
  22226433.266   -17228712.02749 -13399338.41147  22226432.681    22226439.408
 03  2 27  2 30  0.0000000  0  8G14G17G 9G15G 3G31G18G23
  22079324.367   -18110628.80249 -14082449.10747  22079323.852    22079330.721
  21299315.996   -23696296.66049 -18417449.38247  21299315.331    21299322.419
  23625121.082   -13511262.91049 -10009854.80945  23625120.819    23625128.912
  20229359.471   -28058522.26049 -21836939.35348  20229358.716    20229365.101
  22158771.523   -16504765.87149 -12217629.09847  22158771.172    22158778.624
  23966782.182    -6290952.93949  -4874078.40945  23966781.863    23966790.876
  20699858.237   -25773746.69649 -20068232.16548  20699857.747    20699862.818
  22237350.326   -17171342.38749 -13354634.76147  22237349.713    22237356.479
 03  2 27  2 30 30.0000000  0  8G14G17G 9G15G 3G31G18G23
  22061684.933   -18203324.39249 -14154679.35847  22061684.404    22061691.253
  21307385.784   -23653889.65249 -18384404.96347  21307385.124    21307392.189
  23616070.386   -13558824.25149 -10046915.50645  23616070.135    23616078.141
  20228571.416   -28062663.35349 -21840166.15948  20228570.662    20228577.062
  22151515.615   -16542895.84849 -12247340.72147  22151515.235    22151522.690
  23951437.020    -6371592.26449  -4936914.13645  23951436.616    23951445.503
  20704861.146   -25747456.10349 -20047745.98048  20704860.653    20704865.736
  22248278.738   -17113912.74249 -13309884.35747  22248278.158    22248284.926
 03  2 27  2 31  0.0000000  0  8G14G17G 9G15G 3G31G18G23
  22044108.089   -18295690.97649 -14226653.23847  22044107.562    22044114.429
  21315519.612   -23611146.17149 -18351098.36747  21315518.963    21315526.064
  23607098.215   -13605973.16449 -10083654.82545  23607097.946    23607105.950
  20227851.072   -28066448.66649 -21843115.73748  20227850.311    20227856.725
  22144360.052   -16580498.25649 -12276641.25147  22144359.699    22144367.118
  23936162.831    -6451857.90249  -4999458.66945  23936162.450    23936171.137
  20709907.938   -25720934.94449 -20027080.12648  20709907.449    20709912.533
  22259218.708   -17056422.79949 -13265086.97147  22259218.094    22259224.857
 03  2 27  2 31 30.0000000  0  8G14G17G 9G15G 3G31G18G23
  22026594.303   -18387726.13349 -14298368.87047  22026593.787    22026600.601
  21323717.482   -23568066.24049 -18317529.60047  21323716.818    21323723.927
  23598205.153   -13652706.68949 -10120070.46345  23598204.753    23598212.798
  20227198.727   -28069876.70549 -21845786.92048  20227197.982    20227204.375
  22137305.202   -16617571.69449 -12305529.60347  22137304.813    22137312.218
  23920960.280    -6531747.15349  -5061709.91645  23920959.875    23920968.597
  20714998.436   -25694184.00349 -20006235.22348  20714997.975    20715003.068
  22270169.988   -16998873.34549 -13220243.20747  22270169.393    22270176.127
 03  2 27  2 32  0.0000000  0  8G14G17G 9G15G 3G31G18G23
  22009144.078   -18479427.41549 -14369824.33647  22009143.537    22009150.348
  21331979.628   -23524648.46749 -18283697.57847  21331978.948    21331986.053
  23589391.411   -13699022.02349 -10156160.21145  23589391.165    23589399.134
  20226614.666   -28072945.89349 -21848178.47348  20226613.907    20226620.290
  22130351.243   -16654114.90949 -12334004.79147  22130350.847    22130358.240
  23905829.692    -6611257.54449  -5123665.95445  23905829.289    23905838.118
  20720132.499   -25667204.16349 -19985211.95748  20720132.021    20720137.135
  22281132.418   -16941265.37249 -13175353.84947  22281131.803    22281138.487
 03  2 27  2 32 30.0000000  0  8G14G17G 9G15G 3G31G18G23
  21991757.812   -18570792.55649 -14441017.87147  21991757.253    21991764.043
  21340306.038   -23480892.77849 -18249602.24147  21340305.344    21340312.471
  23580657.983   -13744916.35549 -10191921.90945  23580657.710    23580665.615
  20226099.051   -28075655.52849 -21850289.85448  20226098.293    20226104.664
  22123498.350   -16690126.94149 -12362066.07847  22123497.961    22123505.347
  23890771.794    -6690386.69349  -5185324.91045  23890771.334    23890780.182
  20725309.846   -25639996.90949 -19964011.48548  20725309.377    20725314.497
  22292105.779   -16883599.75049 -13130419.57147  22292105.157    22292111.845
 03  2 27  2 33  0.0000000  0  8G14G17G 9G15G 3G31G18G23
  21974435.921   -18661819.29049 -14511947.70347  21974435.355    21974442.114
  21348696.779   -23436799.17949 -18215243.59547  21348696.095    21348703.231
  23572005.118   -13790386.75549 -10227353.27845  23572004.881    23572012.731
  20225652.053   -28078004.31649 -21852120.04948  20225651.293    20225657.658
  22116746.769   -16725606.66249 -12389712.58047  22116746.345    22116753.771
  23875786.845    -6769132.15849  -5246684.88145  23875786.387    23875795.206
  20730530.271   -25612563.28049 -19942634.61248  20730529.783    20730534.911
  22303089.924   -16825877.32649 -13085441.02447  22303089.303    22303096.044
 03  2 27  2 33 30.0000000  0  8G14G17G 9G15G 3G31G18G23
  21957179.034   -18752504.58749 -14582611.49347  21957178.492    21957185.167
  21357152.058   -23392366.37249 -18180620.62447  21357151.392    21357158.497
  23563433.588   -13835430.18549 -10262451.93245  23563433.335    23563441.155
  20225274.049   -28079990.73849 -21853667.89048  20225273.295    20225279.650
  22110096.751   -16760552.54949 -12416943.10847  22110096.329    22110103.755
  23860875.606    -6847491.12149  -5307743.69745  23860875.120    23860883.777
  20735793.670   -25584903.93349 -19921081.86048  20735793.189    20735798.293
  22314084.767   -16768098.69449 -13040418.69447  22314084.151    22314090.935
 03  2 27  2 34  0.0000000  0  8G14G17G 9G15G 3G31G18G23
  21939987.116   -18842848.37349 -14653009.16247  21939986.583    21939993.214
  21365671.606   -23347595.92749 -18145734.56447  21365670.904    21365678.040
  23554943.316   -13880046.40749 -10297217.71045  23554943.093    23554950.802
  20224964.787   -28081615.55449 -21854933.95248  20224964.029    20224970.423
  22103548.159   -16794965.55149 -12443758.40447  22103547.752    22103555.145
  23846037.999    -6925463.28149  -5368501.10245  23846037.392    23846046.149
  20741099.376   -25557022.13349 -19899355.75648  20741098.906    20741103.997
  22325089.760   -16710266.72249 -12995354.78847  22325089.182    22325095.965
 03  2 27  2 34 30.0000000  0  8G14G17G 9G15G 3G31G18G23
  21922860.986   -18932846.45249 -14723137.44947  21922860.470    21922867.029
  21374255.722   -23302485.89949 -18110583.88947  21374255.031    21374262.174
  23546535.310   -13924230.66949 -10331646.90145  23546535.003    23546542.677
  20224724.994   -28082875.73049 -21855915.88048  20224724.255    20224730.639
  22097101.594   -16828842.42249 -12470155.92947  22097101.195    22097108.560
  23831274.710    -7003044.30049  -5428953.72445  23831274.172    23831282.995
  20746447.655   -25528916.82949 -19877455.48648  20746447.174    20746452.243
  22336105.189   -16652380.28249 -12950248.45447  22336104.606    22336111.330
 03  2 27  2 35  0.0000000  0  8G14G17G 9G15G 3G31G18G23
  21905801.018   -19022496.92049 -14792994.87847  21905800.490    21905807.033
  21382904.434   -23257036.44049 -18075168.73047  21382903.754    21382910.889
  23538209.961   -13967980.66549 -10365737.72145  23538209.666    23538217.124
  20224554.763   -28083770.33649 -21856612.94648  20224554.003    20224560.392
  22090757.105   -16862182.81049 -12496135.41147  22090756.708    22090764.058
  23816586.252    -7080232.17549  -5489100.01845  23816585.771    23816594.591
  20751838.110   -25500589.52149 -19855382.22548  20751837.632    20751842.693
  22347130.736   -16594440.74249 -12905100.74247  22347130.154    22347136.848
 03  2 27  2 35 30.0000000  0  8G14G17G 9G15G 3G31G18G23
  21888807.404   -19111798.41549 -14862580.37647  21888806.885    21888813.429
  21391617.778   -23211247.48349 -18039489.02047  21391617.102    21391624.260
  23529967.527   -14011294.69849 -10399488.82145  23529967.243    23529974.578
  20224454.088   -28084299.29749 -21857025.09248  20224453.332    20224459.706
  22084514.693   -16894986.53749 -12521696.71947  22084514.319    22084521.694
  23801972.905    -7157025.54749  -5548938.87845  23801972.397    23801981.242
  20757270.450   -25472042.40149 -19833137.69148  20757269.961    20757275.021
  22358166.021   -16536449.83149 -12859912.99147  22358165.444    22358172.171
 03  2 27  2 36  0.0000000  0  8G14G17G 9G15G 3G31G18G23
  21871880.961   -19200747.15849 -14931891.00047  21871880.453    21871886.989
  21400395.995   -23165117.54249 -18003543.60847  21400395.345    21400402.495
  23521808.786   -14054168.72749 -10432897.06545  23521808.520    23521815.863
  20224423.539   -28084459.75449 -21857150.09148  20224422.784    20224429.145
  22078374.936   -16927250.94349 -12546837.76747  22078374.540    22078381.923
  23787435.418    -7233420.35549  -5608467.19545  23787434.862    23787443.760
  20762744.736   -25443274.96049 -19810721.47948  20762744.221    20762749.269
  22369211.209   -16478406.73349 -12814684.57147  22369210.628    22369217.381
 03  2 27  2 36 30.0000000  0  8G14G17G 9G15G 3G31G18G23
  21855021.897   -19289341.78149 -15000925.67747  21855021.404    21855027.901
  21409239.070   -23118646.77749 -17967332.61147  21409238.423    21409245.566
  23513734.210   -14096600.76449 -10465960.89345  23513733.981    23513741.210
  20224463.219   -28084251.19949 -21856987.54348  20224462.456    20224468.812
  22072337.823   -16958975.96249 -12571558.50447  22072337.439    22072344.833
  23772973.902    -7309415.14449  -5667683.79645  23772973.363    23772982.325
  20768260.525   -25414289.04449 -19788135.01548  20768260.023    20768265.074
  22380266.021   -16420313.19349 -12769416.84047  22380265.435    22380272.220
 03  2 27  2 37  0.0000000  0  8G14G17G 9G15G 3G31G18G23
  21838230.796   -19377579.25949 -15069682.06847  21838230.278    21838236.777
  21418147.146   -23071834.53249 -17930855.53047  21418146.496    21418153.652
  23505744.336   -14138587.45749 -10498677.68245  23505744.052    23505751.320
  20224573.335   -28083672.16349 -21856536.31248  20224572.580    20224578.941
  22066403.688   -16990159.96449 -12595857.67447  22066403.307    22066410.690
  23758589.236    -7385006.90649  -5726586.35245  23758588.672    23758597.612
  20773817.862   -25385085.00949 -19765378.59848  20773817.366    20773822.396
  22391330.369   -16362169.43949 -12724109.98847  22391329.845    22391336.536
 03  2 27  2 37 30.0000000  0  8G14G17G 9G15G 3G31G18G23
  21821507.868   -19465458.36249 -15138159.19747  21821507.345    21821513.861
  21427120.103   -23024681.22349 -17894112.68547  21427119.464    21427126.651
  23497839.541   -14180127.10549 -10531046.12745  23497839.264    23497846.533
  20224754.030   -28082722.53249 -21855796.30848  20224753.275    20224759.619
  22060572.531   -17020802.83749 -12619735.18347  22060572.174    22060579.526
  23744281.512    -7460194.25549  -5785173.77945  23744280.957    23744289.829
  20779416.227   -25355665.18349 -19742454.03048  20779415.740    20779420.789
  22402403.978   -16303977.32949 -12678765.44447  22402403.419    22402410.090
 03  2 27  2 38  0.0000000  0  8G14G17G 9G15G 3G31G18G23
  21804853.637   -19552976.48649 -15206355.05547  21804853.125    21804859.650
  21436158.097   -22977186.38549 -17857103.71747  21436157.447    21436164.642
  23490020.274   -14221217.02749 -10563064.13345  23490020.008    23490027.269
  20225005.525   -28081400.78849 -21854766.34848  20225004.781    20225011.111
  22054844.541   -17050903.33849 -12643190.06647  22054844.179    22054851.494
  23730051.192    -7534974.50949  -5843443.99445  23730050.648    23730059.529
  20785055.561   -25326030.10249 -19719361.73448  20785055.086    20785060.122
  22413486.735   -16245737.10849 -12633383.42147  22413486.177    22413492.787
 03  2 27  2 38 30.0000000  0  8G14G17G 9G15G 3G31G18G23
  21788268.549   -19640131.02049 -15274267.58847  21788268.056    21788274.586
  21445261.248   -22929348.94149 -17819827.79047  21445260.595    21445267.796
  23482287.153   -14261854.27549 -10594729.40145  23482286.901    23482294.129
  20225328.127   -28079705.26649 -21853445.12948  20225327.377    20225333.698
  22049220.013   -17080460.19749 -12666221.31447  22049219.633    22049226.967
  23715898.880    -7609344.95949  -5901394.86746  23715898.385    23715907.197
  20790735.801   -25296180.24349 -19696102.07148  20790735.304    20790740.341
  22424578.503   -16187449.29749 -12587964.31447  22424577.948    22424584.569
 03  2 27  2 39  0.0000000  0  8G14G17G 9G15G 3G31G18G23
  21771752.867   -19726921.11149 -15341896.13747  21771752.380    21771758.922
  21454429.418   -22881170.11349 -17782285.84247  21454428.748    21454435.918
  23474640.389   -14302037.53649 -10626040.91645  23474640.195    23474647.454
  20225721.790   -28077636.41549 -21851833.01148  20225721.045    20225727.384
  22043698.818   -17109473.88049 -12688829.32347  22043698.455    22043705.779
  23701824.728    -7683304.64749  -5959025.67146  23701824.289    23701833.015
  20796456.382   -25266118.21849 -19672677.08448  20796455.903    20796460.933
  22435678.948   -16129115.98049 -12542509.74847  22435678.383    22435684.984
 03  2 27  2 39 30.0000000  0  8G14G17G 9G15G 3G31G18G23
  21755307.293   -19813343.02049 -15409237.79647  21755306.795    21755313.307
  21463662.898   -22832647.92449 -17744476.34747  21463662.226    21463669.393
  23467080.734   -14341762.98549 -10656995.68845  23467080.549    23467087.812
  20226187.039   -28075191.51349 -21849927.86248  20226186.283    20226192.616
  22038281.511   -17137941.85449 -12711012.10547  22038281.156    22038288.451
  23687829.482    -7756849.73949  -6016333.41045  23687829.058    23687837.786
  20802217.441   -25235843.65749 -19649086.48148  20802216.965    20802221.961
  22446788.191   -16070736.36149 -12497019.10447  22446787.622    22446794.212
 03  2 27  2 40  0.0000000  0  8G14G17G 9G15G 3G31G18G23
  21738932.089   -19899395.03349 -15476291.23047  21738931.591    21738938.078
  21472961.565   -22783782.87449 -17706399.69447  21472960.899    21472968.082
  23459608.616   -14381028.56049 -10687592.14145  23459608.421    23459615.753
  20226723.934   -28072369.96649 -21847729.22848  20226723.191    20226729.504
  22032968.080   -17165863.83749 -12732769.44147  22032967.724    22032975.029
  23673913.471    -7829978.38549  -6073316.65745  23673912.992    23673921.742
  20808018.694   -25205357.91349 -19625331.31748  20808018.199    20808023.180
  22457906.031   -16012311.71649 -12451493.39047  22457905.475    22457912.033
 03  2 27  2 40 30.0000000  0  8G14G17G 9G15G 3G31G18G23
  21722627.551   -19985075.51449 -15543055.15147  21722627.048    21722633.518
  21482325.505   -22734575.24449 -17668056.09447  21482324.846    21482332.031
  23452224.449   -14419832.27849 -10717828.70945  23452224.173    23452231.510
  20227332.582   -28069171.34949 -21845236.77048  20227331.830    20227338.160
  22027758.635   -17193239.49949 -12754101.07047  22027758.280    22027765.573
  23660076.997    -7902688.99949  -6129974.16045  23660076.550    23660085.296
  20813859.760   -25174662.67549 -19601412.90348  20813859.255    20813864.232
  22469032.158   -15953843.52749 -12405933.73747  22469031.573    22469038.115
 03  2 27  2 41  0.0000000  0  8G14G17G 9G15G 3G31G18G23
  21706394.195   -20070382.04349 -15609527.68547  21706393.706    21706400.150
  21491754.865   -22685023.71349 -17629444.51547  21491754.178    21491761.353
  23444928.737   -14458171.16649 -10747703.06645  23444928.444    23444935.740
  20228013.327   -28065594.00049 -21842449.19848  20228012.578    20228018.881
  22022653.356   -17220067.67849 -12775006.09747  22022652.995    22022660.287
  23646320.638    -7974978.72449  -6186303.70545  23646320.143    23646328.878
  20819740.623   -25143758.46849 -19577331.66348  20819740.114    20819745.081
  22480166.531   -15895331.92349 -12360340.26447  22480165.945    22480172.468
 03  2 27  2 41 30.0000000  0  8G14G17G 9G15G 3G31G18G23
  21690232.251   -20155313.33649 -15675707.81747  21690231.765    21690238.186
  21501249.383   -22635129.60249 -17590565.99047  21501248.695    21501255.897
  23437721.739   -14496043.80349 -10777214.13445  23437721.423    23437728.741
  20228766.097   -28061637.90249 -21839366.49048  20228765.347    20228771.641
  22017652.212   -17246348.78149 -12795484.83147  22017651.837    22017659.084
  23632644.629    -8046846.45349  -6242304.42445  23632644.111    23632652.783
  20825660.801   -25112647.45149 -19553089.26348  20825660.295    20825665.256
  22491308.754   -15836778.80449 -12314714.44047  22491308.211    22491314.710
 03  2 27  2 42  0.0000000  0  8G14G17G 9G15G 3G31G18G23
  21674142.554   -20239865.03149 -15741592.16547  21674142.054    21674148.477
  21510809.560   -22584890.44149 -17551418.60047  21510808.887    21510816.095
  23430604.328   -14533445.53949 -10806358.25445  23430604.011    23430611.327
  20229591.556   -28057299.93249 -21835986.22048  20229590.816    20229597.084
  22012755.728   -17272079.89349 -12815535.00147  22012755.357    22012762.593
  23619049.747    -8118287.83949  -6297972.93445  23619049.183    23619057.837
  20831620.579   -25081328.54449 -19528684.88448  20831620.070    20831625.016
  22502459.166   -15778182.75649 -12269055.16346  22502458.592    22502465.163
 03  2 27  2 42 30.0000000  0  8G14G17G 9G15G 3G31G18G23
  21658124.985   -20324037.52049 -15807181.02247  21658124.483    21658130.894
  21520434.956   -22534308.77649 -17512004.31947  21520434.273    21520441.489
  23423576.446   -14570376.45249 -10835135.49645  23423576.176    23423583.599
  20230489.463   -28052581.20949 -21832309.26448  20230488.734    20230495.001
  22007963.589   -17297262.47449 -12835157.74747  22007963.224    22007970.442
  23605535.914    -8189302.87749  -6353309.22745  23605535.358    23605544.001
  20837619.252   -25049805.22249 -19504121.22448  20837618.737    20837623.655
  22513617.140   -15719546.81249 -12223364.79646  22513616.628    22513623.221
 03  2 27  2 43  0.0000000  0  8G14G17G 9G15G 3G31G18G23
  21642180.279   -20407827.15149 -15872471.55747  21642179.771    21642186.187
  21530125.881   -22483382.66549 -17472321.64447  21530125.184    21530132.393
  23416638.987   -14606832.63949 -10863542.82145  23416638.729    23416646.181
  20231460.297   -28047479.37049 -21828333.76948  20231459.552    20231465.822
  22003276.295   -17321894.46149 -12854351.46847  22003275.909    22003283.096
  23592103.980    -8259887.99349  -6408310.52045  23592103.347    23592111.965
  20843656.948   -25018076.88149 -19479397.80948  20843656.447    20843661.319
  22524782.957   -15660870.09449 -12177642.65446  22524782.418    22524789.033
 03  2 27  2 43 30.0000000  0  8G14G17G 9G15G 3G31G18G23
  21626308.785   -20491231.97549 -15937462.23447  21626308.278    21626314.676
  21539882.511   -22432111.32849 -17432369.96147  21539881.820    21539889.018
  23409792.357   -14642811.69449 -10891578.35945  23409792.158    23409799.489
  20232504.214   -28041993.42049 -21824058.96948  20232503.469    20232509.738
  21998693.881   -17345975.10349 -12873115.56247  21998693.501    21998700.666
  23578754.171    -8330040.94749  -6462975.06045  23578753.529    23578762.154
  20849733.394   -24986144.88449 -19454515.70548  20849732.880    20849737.721
  22535956.314   -15602153.41849 -12131889.37646  22535955.803    22535962.416
 03  2 27  2 44  0.0000000  0  8G14G17G 9G15G 3G31G18G23
  21610510.792   -20574250.49849 -16002151.90247  21610510.285    21610516.675
  21549704.696   -22380495.48649 -17392149.81847  21549704.000    21549711.179
  23403036.817   -14678312.05749 -10919240.87545  23403036.595    23403043.975
  20233621.313   -28036122.92249 -21819484.52348  20233620.566    20233626.826
  21994216.292   -17369504.57449 -12891450.17447  21994215.911    21994223.080
  23565486.871    -8399760.34149  -6517301.76445  23565486.293    23565494.856
  20855848.289   -24954010.75849 -19429476.10048  20855847.777    20855852.620
  22547137.020   -15543398.29249 -12086106.13346  22547136.482    22547143.101
 03  2 27  2 44 30.0000000  0  8G14G17G 9G15G 3G31G18G23
  21594786.759   -20656880.61849 -16066538.92747  21594786.251    21594792.611
  21559592.400   -22328535.31549 -17351661.38347  21559591.705    21559598.883
  23396372.801   -14713331.30949 -10946528.50045  23396372.599    23396379.968
  20234811.755   -28029866.92149 -21814609.69248  20234811.012    20234817.256
  21989843.730   -17392482.26349 -12909354.83047  21989843.359    21989850.520
  23552302.581    -8469043.88249  -6571288.84745  23552301.991    23552310.544
  20862001.471   -24921675.44649 -19404279.72848  20862000.957    20862005.793
  22558324.951   -15484605.29549 -12040293.39446  22558324.407    22558330.988
 03  2 27  2 45  0.0000000  0  8G14G17G 9G15G 3G31G18G23
  21579137.062   -20739119.83949 -16130621.34547  21579136.545    21579142.913
  21569545.698   -22276230.23149 -17310904.17947  21569545.004    21569552.197
  23389800.856   -14747866.73749 -10973439.14645  23389800.678    23389807.991
  20236075.918   -28023223.73249 -21809433.15448  20236075.167    20236081.388
  21985576.378   -17414907.04449 -12926828.65347  21985576.023    21985583.163
  23539201.699    -8537889.04049  -6624934.33545  23539201.130    23539209.597
  20868192.797   -24889139.50749 -19378927.02248  20868192.291    20868197.137
  22569520.022   -15425774.65249 -11994451.32146  22569519.497    22569526.053
 03  2 27  2 45 30.0000000  0  8G14G17G 9G15G 3G31G18G23
  21563562.138   -20820966.22249 -16194397.65947  21563561.637    21563567.982
  21579564.780   -22223579.70149 -17269877.80947  21579564.079    21579571.243
  23383321.396   -14781916.14149 -10999971.06445  23383321.213    23383328.502
  20237413.834   -28016192.68549 -21803954.40248  20237413.090    20237419.272
  21981414.371   -17436778.36849 -12943871.21547  21981414.014    21981421.136
  23526184.702    -8606293.73449  -6678236.60645  23526184.132    23526192.533
  20874422.116   -24856404.22549 -19353418.98348  20874421.619    20874426.434
  22580722.151   -15366907.24949 -11948580.59846  22580721.582    22580728.136
 03  2 27  2 46  0.0000000  0  8G14G17G 9G15G 3G31G18G23
  21548062.345   -20902417.92449 -16257866.42647  21548061.837    21548068.155
  21589649.480   -22170584.16049 -17228582.59147  21589648.807    21589655.993
  23376934.924   -14815477.46749 -11026122.67245  23376934.705    23376941.928
  20238825.733   -28008773.13049 -21798172.90948  20238824.993    20238831.163
  21977357.801   -17458095.76349 -12960482.14047  21977357.452    21977364.548
  23513251.833    -8674256.14649  -6731194.23545  23513251.265    23513259.575
  20880689.131   -24823470.77449 -19327756.52448  20880688.620    20880693.433
  22591931.086   -15308004.05649 -11902681.97846  22591930.472    22591937.029
 03  2 27  2 46 30.0000000  0  8G14G17G 9G15G 3G31G18G23
  21532637.931   -20983473.62249 -16321026.62347  21532637.406    21532643.679
  21599799.737   -22117244.24249 -17187019.03647  21599799.060    21599806.221
  23370641.533   -14848549.09649 -11051892.69545  23370641.262    23370648.515
  20240311.666   -28000964.36049 -21792088.13848  20240310.914    20240317.099
  21973406.567   -17478859.35049 -12976661.52647  21973406.237    21973413.316
  23500403.382    -8741774.63749  -6783805.93645  23500402.810    23500411.133
  20886993.510   -24790340.76849 -19301940.91648  20886993.006    20886997.813
  22603146.509   -15249066.31349 -11856756.45746  22603145.928    22603152.473
 03  2 27  2 47  0.0000000  0  8G14G17G 9G15G 3G31G18G23
  21517289.456   -21064129.94449 -16383875.62347  21517288.961    21517295.188
  21610015.895   -22063557.95749 -17145185.59447  21610015.198    21610022.375
  23364441.853   -14881127.52749 -11077278.41545  23364441.654    23364448.873
  20241872.118   -27992764.05949 -21785698.28148  20241871.364    20241877.547
  21969561.101   -17499067.40049 -12992408.02247  21969560.750    21969567.840
  23487640.065    -8808845.78049  -6836069.06545  23487639.556    23487647.892
  20893335.434   -24757013.61449 -19275971.68148  20893334.935    20893339.742
  22614368.708   -15190093.35649 -11810803.48246  22614368.129    22614374.621
 03  2 27  2 47 30.0000000  0  8G14G17G 9G15G 3G31G18G23
  21502017.325   -21144385.30149 -16446412.17947  21502016.843    21502022.999
  21620297.859   -22009525.99049 -17103082.77447  21620297.160    21620304.368
  23358336.647   -14913210.95149 -11102278.41845  23358336.360    23358343.550
  20243507.172   -27984171.67249 -21779002.89748  20243506.412    20243512.593
  21965821.361   -17518719.83549 -13007721.57047  21965820.999    21965828.109
  23474962.237    -8875467.91149  -6887982.30845  23474961.782    23474969.972
  20899714.559   -24723490.88849 -19249850.05448  20899714.069    20899718.879
  22625597.403   -15131086.27049 -11764823.93146  22625596.815    22625603.270
 03  2 27  2 48  0.0000000  0  8G14G17G 9G15G 3G31G18G23
  21486821.841   -21224237.85449 -16508634.86847  21486821.363    21486827.480
  21630645.657   -21955147.90849 -17060710.25647  21630644.966    21630652.162
  23352325.987   -14944796.95249 -11126890.80545  23352325.702    23352332.874
  20245217.030   -27975186.25149 -21772001.25348  20245216.278    20245222.444
  21962187.414   -17537816.15749 -13022601.78747  21962187.054    21962194.141
  23462370.309    -8941638.87649  -6939544.00245  23462369.860    23462377.950
  20906130.735   -24689773.56049 -19223576.78448  20906130.237    20906135.051
  22636832.510   -15072045.46649 -11718818.10246  22636831.917    22636838.362
 03  2 27  2 48 30.0000000  0  8G14G17G 9G15G 3G31G18G23
  21471703.367   -21303685.69049 -16570542.18847  21471702.880    21471708.956
  21641059.256   -21900424.12349 -17018068.36047  21641058.577    21641065.741
  23346410.295   -14975883.71349 -11151114.18245  23346410.027    23346417.171
  20247001.784   -27965807.20849 -21764692.88948  20247001.023    20247007.176
  21958659.337   -17556356.17749 -13037048.52047  21958658.967    21958666.073
  23449864.417    -9007356.92849  -6990752.77945  23449863.977    23449872.120
  20912583.726   -24655862.75449 -19197152.76248  20912583.230    20912588.029
  22648073.810   -15012972.00649 -11672786.81846  22648073.215    22648079.682
 03  2 27  2 49  0.0000000  0  8G14G17G 9G15G 3G31G18G23
  21456662.105   -21382727.72549 -16632133.30247  21456661.622    21456667.673
  21651538.524   -21845355.20249 -16975157.51647  21651537.832    21651545.000
  23340589.806   -15006470.00049 -11174947.56845  23340589.457    23340596.808
  20248861.471   -27956034.46749 -21757077.74648  20248860.725    20248866.868
  21955236.987   -17574340.32749 -13051062.10747  21955236.646    21955243.707
  23437445.036    -9072620.89249  -7041607.71845  23437444.595    23437452.698
  20919073.105   -24621760.61749 -19170579.65048  20919072.607    20919077.419
  22659320.981   -14953867.43549 -11626731.30546  22659320.419    22659326.858
 03  2 27  2 49 30.0000000  0  8G14G17G 9G15G 3G31G18G23
  21441698.874   -21461359.65749 -16693404.86247  21441698.411    21441704.424
  21662083.966   -21789938.56449 -16931975.71847  21662083.292    21662090.463
  23334865.317   -15036551.34949 -11198387.51545  23334865.069    23334872.407
  20250796.636   -27945864.90649 -21749153.39148  20250795.886    20250802.036
  21951920.996   -17591765.81749 -13064640.36947  21951920.681    21951927.710
  23425112.959    -9137426.34349  -7092105.38646  23425112.462    23425120.522
  20925599.195   -24587465.57949 -19143856.22747  20925598.729    20925603.528
  22670574.516   -14894729.83449 -11580650.04346  22670573.908    22670580.372
 03  2 27  2 50  0.0000000  0  8G14G17G 9G15G 3G31G18G23
  21426813.566   -21539582.29949 -16754357.48647  21426813.076    21426819.059
  21672695.070   -21734176.99349 -16888525.15747  21672694.376    21672701.540
  23329236.915   -15066128.24649 -11221434.37445  23329236.686    23329244.084
  20252807.040   -27935300.06549 -21740921.02848  20252806.284    20252812.441
  21948710.969   -17608634.85249 -13077785.04147  21948710.614    21948717.611
  23412867.951    -9201773.98149  -7142246.30246  23412867.380    23412875.463
  20932161.377   -24552981.10949 -19116985.19647  20932160.887    20932165.679
  22681833.674   -14835562.43749 -11534545.57146  22681833.064    22681839.529
 03  2 27  2 50 30.0000000  0  8G14G17G 9G15G 3G31G18G23
  21412006.818   -21617392.04649 -16814988.37847  21412006.337    21412012.261
  21683372.054   -21678069.02649 -16844804.66147  21683371.365    21683378.536
  23323705.259   -15095196.81849 -11244085.12745  23323704.955    23323712.462
  20254893.210   -27924337.21949 -21732378.53148  20254892.450    20254898.593
  21945607.097   -17624945.53549 -13090494.62147  21945606.753    21945613.766
  23400710.697    -9265660.02149  -7192027.53746  23400710.176    23400718.337
  20938759.690   -24518306.67849 -19089966.13847  20938759.199    20938763.993
  22693098.719   -14776364.25849 -11488417.11546  22693098.105    22693104.559
 03  2 27  2 51  0.0000000  0  8G14G17G 9G15G 3G31G18G23
  21397278.896   -21694787.36849 -16875296.33847  21397278.413    21397284.315
  21694114.942   -21621614.56949 -16800814.17747  21694114.277    21694121.457
  23318270.552   -15123755.66349 -11266338.72345  23318270.328    23318277.802
  20257055.181   -27912975.80649 -21723525.46548  20257054.443    20257060.583
  21942609.506   -17640697.83749 -13102769.10247  21942609.148    21942616.173
  23388641.668    -9329082.83949  -7241447.83346  23388641.201    23388649.245
  20945393.917   -24483443.65949 -19062800.13547  20945393.406    20945398.186
  22704369.490   -14717136.20449 -11442265.37846  22704368.833    22704375.345
 03  2 27  2 51 30.0000000  0  8G14G17G 9G15G 3G31G18G23
  21382630.158   -21771766.42249 -16935279.94047  21382629.704    21382635.597
  21704923.712   -21564814.03649 -16756554.03247  21704923.035    21704930.228
  23312933.396   -15151802.66649 -11288193.47245  23312933.152    23312940.537
  20259293.122   -27901215.33249 -21714361.44748  20259292.374    20259298.495
  21939718.181   -17655891.55649 -13114608.32347  21939717.820    21939724.888
  23376661.180    -9392040.63649  -7290505.77146  23376660.625    23376668.713
  20952063.786   -24448393.04349 -19035487.95047  20952063.298    20952068.062
  22715645.745   -14657879.00249 -11396090.94246  22715645.116    22715651.632
 03  2 27  2 52  0.0000000  0  8G14G17G 9G15G 3G31G18G23
  21368060.912   -21848328.05049 -16994938.27647  21368060.430    21368066.320
  21715798.247   -21507667.96949 -16712024.64247  21715797.576    21715804.764
  23307693.711   -15179336.38749 -11309648.27345  23307693.650    23307700.954
  20261607.073   -27889055.43249 -21704886.19348  20261606.322    20261612.440
  21936933.129   -17670526.95249 -13126012.48847  21936932.767    21936939.822
  23364769.472    -9454532.05949  -7339200.31146  23364768.907    23364776.952
  20958769.028   -24413156.54849 -19008030.92147  20958768.526    20958773.338
  22726927.326   -14598593.88249 -11349894.75646  22726926.686    22726933.186
 03  2 27  2 52 30.0000000  0  8G14G17G 9G15G 3G31G18G23
  21353571.672   -21924469.17149 -17054268.94247  21353571.190    21353577.093
  21726738.794   -21450175.16549 -16667225.06647  21726738.112    21726745.299
  23302552.513   -15206353.69849 -11330700.66645  23302552.339    23302559.635
  20263997.457   -27876493.95049 -21695098.01548  20263996.697    20264002.810
  21934254.536   -17684602.82649 -13136980.66147  21934254.162    21934261.195
  23352966.973    -9516553.99649  -7387529.01746  23352966.428    23352974.437
  20965509.750   -24377733.79649 -18980428.74547  20965509.260    20965514.041
  22738214.288   -14539280.37349 -11303676.43146  22738213.632    22738220.107
 03  2 27  2 53  0.0000000  0  8G14G17G 9G15G 3G31G18G23
  21339162.711   -22000188.57549 -17113271.01047  21339162.215    21339168.094
  21737745.280   -21392335.85449 -16622155.49747  21737744.603    21737751.799
  23297509.778   -15232853.06849 -11351349.47246  23297509.680    23297516.937
  20266464.295   -27863530.56349 -21684996.66548  20266463.539    20266469.629
  21931682.295   -17698119.66549 -13147513.22447  21931681.943    21931688.984
  23341254.086    -9578105.02049  -7435490.78346  23341253.557    23341261.562
  20972285.639   -24342126.29349 -18952682.61547  20972285.119    20972289.908
  22749506.447   -14479939.42749 -11257436.73146  22749505.835    22749512.350
 03  2 27  2 53 30.0000000  0  8G14G17G 9G15G 3G31G18G23
  21324834.111   -22075485.49549 -17171943.85347  21324833.595    21324839.467
  21748817.496   -21334151.15049 -16576816.78447  21748816.837    21748823.978
  23292565.911   -15258833.64649 -11371594.01646  23292565.722    23292573.024
  20269007.582   -27850165.43449 -21674582.26448  20269006.819    20269012.929
  21929216.381   -17711077.96649 -13157610.55747  21929216.050    21929223.066
  23329631.034    -9639184.27249  -7483084.93346  23329630.463    23329638.506
  20979096.266   -24306336.05549 -18924794.08947  20979095.784    20979100.552
  22760803.582   -14420572.52749 -11211176.79746  22760802.974    22760809.517
 03  2 27  2 54  0.0000000  0  8G14G17G 9G15G 3G31G18G23
  21310586.412   -22150357.04849 -17230285.24747  21310585.928    21310591.801
  21759955.537   -21275620.43449 -16531208.44847  21759954.867    21759961.992
  23287721.285   -15284292.54349 -11391432.05746  23287721.056    23287728.292
  20271627.721   -27836396.61049 -21663853.29648  20271626.955    20271633.033
  21926856.986   -17723476.58949 -13167271.78047  21926856.623    21926863.652
  23318098.371    -9699788.75449  -7530309.14046  23318097.817    23318105.783
  20985941.689   -24270362.98149 -18896763.10647  20985941.195    20985945.955
  22772105.773   -14361179.27549 -11164896.33546  22772105.150    22772111.644
 03  2 27  2 54 30.0000000  0  8G14G17G 9G15G 3G31G18G23
  21296420.241   -22224800.66449 -17288293.19347  21296419.746    21296425.578
  21771159.542   -21216742.98049 -16485329.92847  21771158.910    21771166.005
  23282976.351   -15309227.02449 -11410861.46246  23282976.181    23282983.369
  20274324.974   -27822222.41249 -21652808.44948  20274324.227    20274330.288
  21924604.236   -17735314.62549 -13176496.18747  21924603.892    21924610.910
  23306656.496    -9759915.90549  -7577161.41646  23306655.918    23306663.849
  20992821.866   -24234207.12349 -18868589.70047  20992821.402    20992826.154
  22783412.962   -14301759.38349 -11118595.09146  22783412.342    22783418.833
 03  2 27  2 55  0.0000000  0  8G14G17G 9G15G 3G31G18G23
  21282335.708   -22298815.02649 -17345966.64547  21282335.216    21282341.044
  21782429.476   -21157519.07349 -16439181.44547  21782428.808    21782435.954
  23278331.699   -15333635.55449 -11429881.03946  23278331.436    23278338.538
  20277099.400   -27807642.76049 -21641447.67148  20277098.637    20277104.712
  21922458.115   -17746592.31449 -13185283.95547  21922457.758    21922464.794
  23295305.651    -9819564.33049  -7623640.65346  23295305.096    23295313.073
  20999736.589   -24197869.92049 -18840274.98447  20999736.115    20999740.847
  22794725.001   -14242314.02449 -11072274.02446  22794724.420    22794730.919
 03  2 27  2 55 30.0000000  0  8G14G17G 9G15G 3G31G18G23
  21268332.932   -22372399.84549 -17403305.39847  21268332.430    21268338.270
  21793765.039   -21097950.19649 -16392764.15447  21793764.381    21793771.590
  23273787.033   -15357517.84349 -11448490.55146  23273786.793    23273793.842
  20279950.826   -27792658.24949 -21629771.41148  20279950.063    20279956.135
  21920418.385   -17757311.12849 -13193636.24147  21920418.020    21920425.037
  23284045.992    -9878733.71349  -7669746.61546  23284045.511    23284053.418
  21006685.309   -24161354.03649 -18811821.03847  21006684.845    21006689.576
  22806041.503   -14182845.22949 -11025934.69746  22806040.927    22806047.431
 03  2 27  2 56  0.0000000  0  8G14G17G 9G15G 3G31G18G23
  21254412.563   -22445551.46649 -17460306.58947  21254412.077    21254417.923
  21805166.530   -21038034.87949 -16346076.90846  21805165.868    21805173.107
  23269343.216   -15380869.87649 -11466686.88446  23269342.990    23269350.049
  20282879.859   -27777266.12749 -21617777.53548  20282879.105    20282885.159
  21918485.389   -17767469.03649 -13201551.45547  21918484.999    21918492.019
  23272878.246    -9937420.18449  -7715476.28446  23272877.792    23272885.629
  21013668.330   -24124658.05149 -18783226.74547  21013667.841    21013672.583
  22817362.803   -14123351.39849 -10979575.86446  22817362.209    22817368.705
 03  2 27  2 56 30.0000000  0  8G14G17G 9G15G 3G31G18G23
  21240574.769   -22518269.09549 -17516969.60347  21240574.287    21240580.130
  21816633.946   -20977773.48549 -16299119.99546  21816633.239    21816640.498
  23265000.341   -15403690.90749 -11484469.44846  23265000.216    23265007.310
  20285886.411   -27761466.55149 -21605466.16448  20285885.644    20285891.691
  21916658.945   -17777066.94149 -13209030.30747  21916658.553    21916665.537
  23261802.594    -9995622.76649  -7760828.87346  23261802.149    23261810.013
  21020685.219   -24087783.90649 -18754493.62747  21020684.743    21020689.498
  22828688.570   -14063834.11849 -10933198.78846  22828687.998    22828694.456
 03  2 27  2 57  0.0000000  0  8G14G17G 9G15G 3G31G18G23
  21226819.928   -22590550.87149 -17573292.99847  21226819.459    21226825.276
  21828167.131   -20917166.36249 -16251893.68946  21828166.425    21828173.682
  23260758.994   -15425979.11849 -11501836.83346  23260758.862    23260765.996
  20288970.714   -27745258.16549 -21592836.24148  20288969.968    20288976.035
  21914939.158   -17786104.35749 -13216072.42047  21914938.794    21914945.728
  23250819.457   -10053339.67149  -7805803.03946  23250818.973    23250826.763
  21027735.832   -24050732.52149 -18725622.41147  21027735.362    21027740.134
  22840018.680   -14004293.70649 -10886803.67546  22840018.154    22840024.597
 03  2 27  2 57 30.0000000  0  8G14G17G 9G15G 3G31G18G23
  21213148.400   -22662394.92349 -17629275.30847  21213147.933    21213153.707
  21839766.057   -20856213.46949 -16204397.95746  21839765.345    21839772.639
  23256619.432   -15447732.62749 -11518787.57446  23256619.188    23256626.370
  20292132.915   -27728640.54249 -21579887.43048  20292132.169    20292138.250
  21913325.972   -17794581.49449 -13222677.95547  21913325.620    21913332.537
  23239929.125   -10110568.92649  -7850397.19846  23239928.642    23239936.367
  21034820.074   -24013504.60749 -18696613.63647  21034819.588    21034824.364
  22851353.225   -13944730.42049 -10840390.70246  22851352.678    22851359.108
 03  2 27  2 58  0.0000000  0  8G14G17G 9G15G 3G31G18G23
  21199560.494   -22733799.78749 -17684915.39647  21199560.020    21199565.752
  21851430.745   -20794915.21349 -16156633.11046  21851430.040    21851437.343
  23252581.832   -15468949.88249 -11535320.46046  23252581.593    23252588.739
  20295373.078   -27711613.36449 -21566619.49048  20295372.316    20295378.405
  21911819.422   -17802498.54849 -13228847.05447  21911819.033    21911825.931
  23229131.810   -10167308.99049  -7894610.16446  23229131.348    23229139.005
  21041937.721   -23976101.14149 -18667468.04847  21041937.220    21041942.000
  22862691.988   -13885145.07149 -10793960.56046  22862691.408    22862697.824
 03  2 27  2 58 30.0000000  0  8G14G17G 9G15G 3G31G18G23
  21186056.503   -22804763.52849 -17740211.74447  21186056.009    21186061.701
  21863161.163   -20733271.47549 -16108599.05646  21863160.479    21863167.795
  23248646.707   -15489628.94149 -11551433.96746  23248646.497    23248653.637
  20298691.403   -27694175.25949 -21553031.34748  20298690.659    20298696.727
  21910419.444   -17809855.22249 -13234579.49547  21910419.033    21910425.932
  23218427.968   -10223557.84149  -7938440.37446  23218427.497    23218435.125
  21049088.589   -23938522.88049 -18638186.26147  21049088.100    21049092.857
  22874034.943   -13825537.77049 -10747513.34946  22874034.345    22874040.726
 03  2 27  2 59  0.0000000  0  8G14G17G 9G15G 3G31G18G23
  21172636.677   -22875285.01349 -17795163.48847  21172636.189    21172641.856
  21874957.228   -20671282.78049 -16060296.21246  21874956.533    21874963.861
  23244814.225   -15509768.33349 -11567126.96146  23244814.020    23244821.116
  20302088.018   -27676325.85349 -21539122.70748  20302087.267    20302093.347
  21909126.031   -17816651.93049 -13239875.60547  21909125.638    21909132.574
  23207817.908   -10279314.04349  -7981886.69146  23207817.392    23207825.036
  21056272.543   -23900770.84549 -18608769.05947  21056272.056    21056276.823
  22885381.798   -13765909.40149 -10701049.68746  22885381.210    22885387.631
 03  2 27  2 59 30.0000000  0  8G14G17G 9G15G 3G31G18G23
  21159301.167   -22945363.33349 -17849769.90647  21159300.661    21159306.307
  21886818.739   -20608950.07649 -16011725.29446  21886818.031    21886825.383
  23241084.672   -15529367.15049 -11582398.72446  23241084.462    23241091.506
  20305562.910   -27658065.19949 -21524893.61348  20305562.142    20305568.234
  21907939.064   -17822889.52549 -13244736.04047  21907938.680    21907945.557
  23197301.722   -10334576.80249  -8024948.51246  23197301.193    23197308.869
  21063489.207   -23862846.89349 -18579217.89647  21063488.720    21063493.501
  22896732.422   -13706261.17649 -10654570.56046  22896731.862    22896738.315
 03  2 27  3  0  0.0000000  0  8G14G17G 9G15G 3G31G18G23
  21146050.688   -23014994.78649 -17904028.11247  21146050.194    21146055.836
  21898746.140   -20546271.34049 -15962884.75246  21898745.444    21898752.805
  23237458.692   -15548421.92549 -11597246.56346  23237458.452    23237465.444
  20309116.576   -27639390.34649 -21510341.77048  20309115.812    20309121.921
  21906858.794   -17828566.26249 -13249159.44647  21906858.398    21906865.306
  23186880.132   -10389342.32849  -8067622.87846  23186879.627    23186887.287
  21070738.763   -23824750.01349 -18549531.99847  21070738.271    21070743.037
  22908087.152   -13646591.44449 -10608074.67246  22908086.592    22908093.139
 03  2 27  3  0 30.0000000  0  8G14G17G 9G15G 3G31G18G23
  21132885.408   -23084178.63349 -17957937.53747  21132884.898    21132890.530
  21910739.160   -20483247.57349 -15913775.35246  21910738.471    21910745.864
  23233936.453   -15566931.71549 -11611669.73746  23233936.161    23233943.137
  20312748.997   -27620301.68449 -21495467.47248  20312748.237    20312754.359
  21905884.959   -17833683.29349 -13253146.71947  21905884.602    21905891.548
  23176553.324   -10443609.74449  -8109909.10046  23176552.816    23176560.436
  21078021.001   -23786481.64249 -18519712.46347  21078020.480    21078025.254
  22919445.801   -13586901.54949 -10561563.05546  22919445.198    22919451.748
 03  2 27  3  1  0.0000000  0  8G14G17G 9G15G 3G31G18G23
  21119805.613   -23152913.03149 -18011496.74047  21119805.113    21119810.752
  21922797.855   -20419878.60449 -15864396.96546  21922797.184    21922804.603
  23230518.214   -15584894.47549 -11625666.65246  23230517.957    23230524.921
  20316460.397   -27600798.13749 -21480269.88348  20316459.648    20316465.752
  21905017.813   -17838240.13349 -13256697.48047  21905017.442    21905024.368
  23166321.713   -10497377.14849  -8151805.71146  23166321.160    23166328.817
  21085335.733   -23748042.46449 -18489759.84547  21085335.216    21085339.971
  22930808.275   -13527191.49649 -10515035.71646  22930807.662    22930814.231
 03  2 27  3  1 30.0000000  0  8G14G17G 9G15G 3G31G18G23
  21106811.643   -23221196.50449 -18064704.57647  21106811.159    21106816.756
  21934922.082   -20356165.41249 -15814750.35346  21934921.430    21934928.821
  23227204.333   -15602308.98049 -11639236.36346  23227204.011    23227211.016
  20320250.776   -27580879.60749 -21464748.93648  20320250.024    20320256.093
  21904257.190   -17842237.47449 -13259812.26847  21904256.789    21904263.684
  23156185.460   -10550643.18449  -8193311.64646  23156184.897    23156192.579
  21092682.689   -23709433.72649 -18459675.10147  21092682.190    21092686.934
  22942174.369   -13467462.29549 -10468493.47046  22942173.773    22942180.283
 03  2 27  3  2  0.0000000  0  8G14G17G 9G15G 3G31G18G23
  21093903.443   -23289029.41249 -18117561.31947  21093902.935    21093908.510
  21947111.556   -20292109.57549 -15764836.73746  21947110.881    21947118.263
  23223994.886   -15619175.25849 -11652378.86946  23223994.493    23224001.385
  20324119.942   -27560546.82149 -21448905.18648  20324119.185    20324125.253
  21903602.635   -17845676.98949 -13262492.38747  21903602.242    21903609.145
  23146144.612   -10603407.86449  -8234426.91846  23146144.058    23146151.718
  21100061.528   -23670657.56149 -18429459.88947  21100061.032    21100065.776
  22953543.656   -13407715.90049 -10421937.87046  22953543.093    22953549.626
 03  2 27  3  2 30.0000000  0  8G14G17G 9G15G 3G31G18G23
  21081081.630   -23356408.06949 -18170064.11047  21081081.141    21081086.721
  21959366.632   -20227709.06449 -15714654.53446  21959365.937    21959373.253
  23220890.245   -15635489.67949 -11665091.36146  23220889.902    23220896.823
  20328068.483   -27539796.92449 -21432736.40948  20328067.722    20328073.828
  21903054.638   -17848556.78049 -13264736.35447  21903054.241    21903061.128
  23136199.889   -10655667.45849  -8275148.61446  23136199.293    23136207.000
  21107472.432   -23631712.94149 -18399113.41147  21107471.941    21107476.684
  22964916.654   -13347950.46949 -10375367.38346  22964916.079    22964922.654
 03  2 27  3  3  0.0000000  0  8G14G17G 9G15G 3G31G18G23
  21068346.420   -23423331.74449 -18222212.36747  21068345.938    21068351.525
  21971686.988   -20162965.29849 -15664204.85746  21971686.288    21971693.609
  23217890.759   -15651251.81449 -11677373.50046  23217890.489    23217897.321
  20332096.343   -27518630.26149 -21416242.89348  20332095.603    20332101.703
  21902612.891   -17850878.13349 -13266545.17347  21902612.497    21902619.380
  23126351.393   -10707421.29049  -8315476.22146  23126350.831    23126358.452
  21114915.089   -23592601.47249 -18368636.93547  21114914.589    21114919.350
  22976292.961   -13288167.39649 -10328783.17746  22976292.394    22976299.035
 03  2 27  3  3 30.0000000  0  8G14G17G 9G15G 3G31G18G23
  21055698.196   -23489798.17449 -18274004.33147  21055697.714    21055703.301
  21984072.765   -20097877.36149 -15613487.01546  21984072.093    21984079.472
  23214996.844   -15666459.27949 -11689223.44246  23214996.583    23215003.506
  20336203.807   -27497045.40249 -21399423.50748  20336203.060    20336209.160
  21902277.517   -17852640.50449 -13267918.43147  21902277.109    21902283.976
  23116599.633   -10758667.00649  -8355407.89046  23116599.091    23116606.578
  21122389.444   -23553323.39049 -18338030.63347  21122388.944    21122393.687
  22987672.728   -13228366.23249 -10282184.87146  22987672.176    22987678.819
 03  2 27  3  4  0.0000000  0  8G14G17G 9G15G 3G31G18G23
  21043137.171   -23555806.65149 -18325439.45347  21043136.680    21043142.258
  21996523.857   -20032446.74349 -15562502.14046  21996523.164    21996530.536
  23212208.559   -15681111.20349 -11700640.48746  23212208.323    23212215.273
  20340390.827   -27475042.33249 -21382278.24548  20340390.081    20340396.178
  21902048.312   -17853844.99349 -13268856.96247  21902047.888    21902054.754
  23106944.761   -10809403.80749  -8394943.00046  23106944.176    23106951.638
  21129895.229   -23513880.10349 -18307295.60247  21129894.738    21129899.456
  22999055.743   -13168548.06749 -10235573.32046  22999055.185    22999061.852
 03  2 27  3  4 30.0000000  0  8G14G17G 9G15G 3G31G18G23
  21030663.665   -23621355.17049 -18376516.15347  21030663.185    21030668.722
  22009040.235   -19966673.04349 -15511249.93246  22009039.499    22009046.919
  23209526.438   -15695205.69449 -11711623.18046  23209526.239    23209533.085
  20344657.627   -27452619.97749 -21364806.26848  20344656.887    20344662.980
  21901925.244   -17854491.39349 -13269360.62647  21901924.843    21901931.672
  23097386.997   -10859629.62949  -8434079.94346  23097386.462    23097393.948
  21137432.376   -23474272.10849 -18276432.21947  21137431.890    21137436.598
  23010442.033   -13108712.83649 -10188948.46746  23010441.413    23010448.041
 03  2 27  3  5  0.0000000  0  8G14G17G 9G15G 3G31G18G23
  21018278.074   -23686441.68649 -18427232.86247  21018277.589    21018283.128
  22021621.918   -19900555.83349 -15459730.04946  22021621.209    22021628.628
  23206950.792   -15708740.95949 -11722170.10646  23206950.522    23206957.427
  20349004.483   -27429777.23949 -21347006.72448  20349003.738    20349009.821
  21901908.473   -17854579.39749 -13269429.17547  21901908.065    21901914.879
  23087926.983   -10909342.32249  -8472817.04846  23087926.421    23087933.900
  21145000.896   -23434499.36049 -18245440.45447  21145000.391    21145005.080
  23021831.635   -13048860.43249 -10142310.25746  23021830.978    23021837.583
 03  2 27  3  5 30.0000000  0  8G14G17G 9G15G 3G31G18G23
  21005980.379   -23751066.24149 -18477589.59447  21005979.883    21005985.423
  22034268.577   -19834097.16149 -15407944.10746  22034267.874    22034275.291
  23204481.350   -15721717.13749 -11732281.40046  23204481.212    23204488.062
  20353431.120   -27406515.01649 -21328880.31148  20353430.373    20353436.440
  21901997.580   -17854110.97049 -13269064.14047  21901997.183    21902003.981
  23078564.523   -10958542.01949  -8511154.41646  23078563.983    23078571.420
  21152600.235   -23394564.42749 -18214322.31747  21152599.730    21152604.438
  23033224.123   -12988992.56449 -10095659.96846  23033223.491    23033230.078
 03  2 27  3  6  0.0000000  0  8G14G17G 9G15G 3G31G18G23
  20993770.835   -23815227.64549 -18527585.43347  20993770.335    20993775.861
  22046980.261   -19767297.02649 -15355892.07146  22046979.583    22046986.964
  23202118.826   -15734132.70649 -11741955.83446  23202118.548    23202125.402
  20357937.707   -27382832.77849 -21310426.61648  20357936.964    20357943.021
  21902192.516   -17853086.29549 -13268265.66647  21902192.148    21902198.952
  23069299.964   -11007227.21749  -8549090.85346  23069299.456    23069306.857
  21160230.325   -23354468.00549 -18183078.33647  21160229.838    21160234.523
  23044619.402   -12929109.70549 -10048998.02646  23044618.803    23044625.396
 03  2 27  3  6 30.0000000  0  8G14G17G 9G15G 3G31G18G23
  20981650.027   -23878922.51749 -18577217.74047  20981649.536    20981655.052
  22059757.197   -19700153.99749 -15303572.84946  22059756.519    22059763.885
  23199863.537   -15745984.65549 -11751191.07546  23199863.139    23199870.012
  20362524.637   -27358728.25349 -21291643.85948  20362523.888    20362529.960
  21902493.536   -17851504.40149 -13267032.99947  21902493.149    21902499.938
  23060133.949   -11055394.66049  -8586623.85646  23060133.452    23060140.859
  21167891.329   -23314209.15149 -18151707.78247  21167890.844    21167895.523
  23056017.896   -12869210.48849 -10002323.29546  23056017.291    23056023.872
 03  2 27  3  7  0.0000000  0  8G14G17G 9G15G 3G31G18G23
  20969617.835   -23942151.89749 -18626487.31847  20969617.346    20969622.844
  22072598.746   -19632671.18449 -15250988.84346  22072598.069    22072605.418
  23197715.158   -15757274.05549 -11759987.96346  23197714.847    23197721.627
  20367191.621   -27334203.09949 -21272533.34348  20367190.877    20367196.927
  21902900.054   -17849367.68249 -13265368.00047  21902899.708    21902906.504
  23051066.259   -11103045.20749  -8623754.07346  23051065.779    23051073.234
  21175582.659   -23273790.96349 -18120213.06147  21175582.169    21175586.817
  23067418.963   -12809297.43449  -9955637.79446  23067418.399    23067424.986
 03  2 27  3  7 30.0000000  0  8G14G17G 9G15G 3G31G18G23
  20957674.878   -24004912.31149 -18675391.47247  20957674.384    20957679.868
  22085505.429   -19564846.19949 -15198138.23446  22085504.753    22085512.080
  23195674.472   -15767997.35049 -11768343.73746  23195674.189    23195680.956
  20371939.189   -27309254.43349 -21253092.82248  20371938.440    20371944.487
  21903412.506   -17846674.77349 -13263269.61047  21903412.153    21903418.954
  23042097.576   -11150175.35749  -8660478.79246  23042097.098    23042104.554
  21183304.571   -23233212.02749 -18088593.08547  21183304.094    21183308.722
  23078823.000   -12749368.79649  -9908940.14846  23078822.403    23078829.002
 03  2 27  3  8  0.0000000  0  8G14G17G 9G15G 3G31G18G23
  20945821.284   -24067203.25549 -18723929.81147  20945820.780    20945826.236
  22098476.902   -19496680.87749 -15145022.42646  22098476.193    22098483.548
  23193741.522   -15778154.11949 -11776258.06346  23193741.377    23193748.172
  20376767.255   -27283882.77649 -21233322.68648  20376766.508    20376772.528
  21904030.560   -17843427.06849 -13260738.91947  21904030.215    21904036.954
  23033228.022   -11196784.69749  -8696797.67246  23033227.558    23033235.014
  21191056.756   -23192474.08249 -18056849.23347  21191056.257    21191060.839
  23090229.773   -12689425.90249  -9862231.40146  23090229.137    23090235.761
 03  2 27  3  8 30.0000000  0  8G14G17G 9G15G 3G31G18G23
  20934057.472   -24129022.30649 -18772100.43947  20934056.964    20934062.389
  22111513.171   -19428174.68749 -15091641.00946  22111512.499    22111519.888
  23191917.014   -15787741.94049 -11783729.04446  23191916.880    23191923.612
  20381676.114   -27258086.53949 -21213221.71548  20381675.370    20381681.395
  21904754.217   -17839624.07049 -13257775.53047  21904753.874    21904760.605
  23024458.145   -11242870.60749  -8732708.67846  23024457.620    23024465.090
  21198839.272   -23151576.68349 -18024981.11647  21198838.779    21198843.352
  23101639.433   -12629467.85449  -9815510.85446  23101638.788    23101645.414
 03  2 27  3  9  0.0000000  0  8G14G17G 9G15G 3G31G18G23
  20922383.335   -24190370.07449 -18819903.83747  20922382.826    20922388.240
  22124614.024   -19359329.27049 -15037995.25446  22124613.369    22124620.757
  23190200.666   -15796761.95349 -11790757.59446  23190200.448    23190207.126
  20386665.465   -27231867.26549 -21192791.10348  20386664.716    20386670.736
  21905583.094   -17835268.28549 -13254381.40347  21905582.731    21905589.472
  23015787.753   -11288433.66349  -8768212.27246  23015787.192    23015794.611
  21206651.578   -23110522.71749 -17992991.01547  21206651.081    21206655.659
  23113051.525   -12569496.92049  -9768780.25646  23113050.887    23113057.483
 03  2 27  3  9 30.0000000  0  8G14G17G 9G15G 3G31G18G23
  20910799.311   -24251244.47149 -18867338.37247  20910798.805    20910804.194
  22137779.554   -19290143.86549 -14984084.56446  22137778.914    22137786.322
  23188592.685   -15805211.69249 -11797341.78846  23188592.432    23188599.127
  20391735.583   -27205223.45349 -21172029.68448  20391734.846    20391740.878
  21906517.225   -17830359.36349 -13250556.25547  21906516.864    21906523.608
  23007217.272   -11333471.72349  -8803306.78246  23007216.656    23007224.111
  21214493.717   -23069311.85249 -17960878.63047  21214493.222    21214497.834
  23124466.237   -12509512.30549  -9722038.99646  23124465.625    23124472.202
 03  2 27  3 10  0.0000000  0  8G14G17G 9G15G 3G31G18G23
  20899305.563   -24311644.22149 -18914403.05047  20899305.052    20899310.429
  22151009.592   -19220619.54449 -14929909.80246  22151008.946    22151016.400
  23187093.498   -15813090.31449 -11803480.92946  23187093.229    23187099.818
  20396886.575   -27178154.84849 -21150937.25048  20396885.820    20396891.847
  21907556.541   -17824897.93649 -13246300.58847  21907556.164    21907562.879
  22998746.813   -11377983.59649  -8837991.27246  22998746.240    22998753.679
  21222365.529   -23027944.94749 -17928644.66647  21222365.033    21222369.666
  23135883.461   -12449514.58649  -9675287.50446  23135882.852    23135889.374
 03  2 27  3 10 30.0000000  0  8G14G17G 9G15G 3G31G18G23
  20887902.451   -24371567.77049 -18961096.66648  20887901.936    20887907.305
  22164304.043   -19150756.71849 -14875471.26246  22164303.422    22164310.861
  23185703.216   -15820396.25549 -11809173.85146  23185703.002    23185709.533
  20402118.515   -27150660.85649 -21129513.35248  20402117.768    20402123.771
  21908700.866   -17818884.29149 -13241614.62247  21908700.482    21908707.180
  22990376.811   -11421967.67949  -8872264.51046  22990376.294    22990383.729
  21230267.005   -22986422.42749 -17896289.42447  21230266.512    21230271.136
  23147303.187   -12389503.71149  -9628525.78746  23147302.536    23147309.063
 03  2 27  3 11  0.0000000  0  8G14G17G 9G15G 3G31G18G23
  20876590.102   -24431014.28049 -19007418.55448  20876589.598    20876594.942
  22177662.809   -19080556.12049 -14820769.53346  22177662.174    22177669.609
  23184422.065   -15827129.14849 -11814420.24846  23184421.769    23184428.293
  20407431.465   -27122741.25249 -21107757.79748  20407430.690    20407436.698
  21909950.110   -17812319.50949 -13236499.19347  21909949.717    21909956.384
  22982107.499   -11465423.10149  -8906125.80846  22982106.919    22982114.390
  21238197.803   -22944745.64249 -17863813.98147  21238197.312    21238201.926
  23158725.161   -12329480.53449  -9581754.47946  23158724.558    23158731.116
 03  2 27  3 11 30.0000000  0  8G14G17G 9G15G 3G31G18G23
  20865368.862   -24489982.12349 -19053367.46548  20865368.366    20865373.682
  22191085.940   -19010017.44949 -14765804.36346  22191085.301    22191092.738
  23183250.139   -15833287.18449 -11819218.69346  23183249.940    23183256.430
  20412825.562   -27094394.95549 -21085669.77148  20412824.796    20412830.811
  21911304.153   -17805203.69849 -13230954.39847  21911303.780    21911310.440
  22973939.062   -11508348.03749  -8939573.74146  22973938.513    22973945.969
  21246157.958   -22902914.64749 -17831218.38747  21246157.471    21246162.065
  23170149.569   -12269444.76449  -9534973.37446  23170149.020    23170155.543
 03  2 27  3 12  0.0000000  0  8G14G17G 9G15G 3G31G18G23
  20854238.968   -24548469.93749 -19098942.32548  20854238.461    20854243.769
  22204573.346   -18939140.92649 -14710575.93546  22204572.704    22204580.114
  23182187.942   -15838869.09449 -11823568.20946  23182187.616    23182194.203
  20418300.927   -27065621.46749 -21063248.86248  20418300.175    20418306.189
  21912762.969   -17797537.55649 -13224980.76547  21912762.590    21912769.251
  22965871.851   -11550741.24349  -8972607.36146  22965871.308    22965878.761
  21254147.304   -22860930.20149 -17798503.22247  21254146.820    21254151.445
  23181576.413   -12209396.33149  -9488182.37246  23181575.859    23181582.321
 03  2 27  3 12 30.0000000  0  8G14G17G 9G15G 3G31G18G23
  20843200.417   -24606477.50449 -19144142.96348  20843199.933    20843205.235
  22218124.711   -18867927.84749 -14655085.25146  22218124.093    22218131.496
  23181235.338   -15843874.89649 -11827468.79746  23181235.095    23181241.606
  20423857.527   -27036421.18349 -21040495.38948  20423856.778    20423862.830
  21914326.198   -17789322.64649 -13218579.52047  21914325.828    21914332.495
  22957905.875   -11592602.35249  -9005226.35046  22957905.293    22957912.777
  21262165.543   -22818793.91949 -17765669.73847  21262165.069    21262169.696
  23193005.387   -12149336.49749  -9441382.48646  23193004.847    23193011.296
 03  2 27  3 13  0.0000000  0  8G14G17G 9G15G 3G31G18G23
  20832253.698   -24664002.61349 -19188967.66348  20832253.221    20832258.503
  22231740.195   -18796378.24049 -14599332.33146  22231739.547    22231746.963
  23180392.795   -15848302.55449 -11830918.89046  23180392.519    23180399.006
  20429495.635   -27006792.68649 -21017408.24148  20429494.885    20429500.970
  21915993.949   -17780558.43749 -13211750.24647  21915993.583    21916000.285
  22950041.581   -11633929.07149  -9037428.94246  22950041.047    22950048.504
  21270212.805   -22776505.19849 -17732717.46147  21270212.309    21270216.934
  23204436.680   -12089264.44049  -9394573.07446  23204436.153    23204442.603
 03  2 27  3 13 30.0000000  0  8G14G17G 9G15G 3G31G18G23
  20821398.888   -24721044.67249 -19233415.96048  20821398.406    20821403.688
  22245419.519   -18724492.83149 -14543317.74446  22245418.897    22245426.341
  23179660.249   -15852151.58549 -11833918.08246  23179660.035    23179666.460
  20435215.178   -26976736.30249 -20993987.67548  20435214.415    20435220.474
  21917765.911   -17771246.68949 -13204494.31447  21917765.547    21917772.257
  22942279.064   -11674720.91749  -9069214.76146  22942278.561    22942285.993
  21278288.794   -22734065.41349 -17699647.48247  21278288.308    21278292.955
  23215870.133   -12029181.04549  -9347754.83146  23215869.578    23215876.034
 03  2 27  3 14  0.0000000  0  8G14G17G 9G15G 3G31G18G23
  20810636.280   -24777602.45149 -19277486.89648  20810635.807    20810641.069
  22259162.731   -18652272.11249 -14487041.90346  22259162.083    22259169.512
  23179038.040   -15855420.95049 -11836465.60146  23179037.816    23179044.317
  20441016.261   -26946251.45049 -20970233.23748  20441015.489    20441021.554
  21919641.926   -17761387.94549 -13196812.15347  21919641.568    21919648.272
  22934618.676   -11714976.59149  -9100582.76846  22934618.134    22934625.511
  21286393.450   -22691475.16849 -17666460.25747  21286392.967    21286397.607
  23227305.731   -11969086.51149  -9300927.92746  23227305.162    23227311.602
 03  2 27  3 14 30.0000000  0  8G14G17G 9G15G 3G31G18G23
  20799966.133   -24833674.21249 -19321179.11748  20799965.644    20799970.881
  22272969.660   -18579715.85349 -14430504.58246  22272969.064    22272976.510
  23178526.519   -15858109.26849 -11838560.36446  23178526.250    23178532.779
  20446899.029   -26915337.11749 -20946144.14348  20446898.267    20446904.343
  21921622.042   -17750982.34849 -13188703.86547  21921621.667    21921628.392
  22927060.611   -11754694.37049  -9131531.62646  22927060.017    22927067.418
  21294526.658   -22648734.69449 -17633155.96647  21294526.166    21294530.813
  23238743.457   -11908980.44849  -9254092.02646  23238742.893    23238749.451
 03  2 27  3 15  0.0000000  0  8G14G17G 9G15G 3G31G18G23
  20789388.612   -24889259.40749 -19364492.19748  20789388.096    20789393.314
  22286840.327   -18506824.97549 -14373706.52646  22286839.742    22286847.223
  23178125.716   -15860216.11049 -11840202.02546  23178125.348    23178131.821
  20452863.467   -26883993.58649 -20921720.61148  20452862.708    20452868.788
  21923705.892   -17740031.46949 -13180170.68047  21923705.525    21923712.251
  22919604.952   -11793873.77949  -9162060.98746  22919604.358    22919611.757
  21302688.233   -22605845.32349 -17599735.66047  21302687.736    21302692.371
  23250183.268   -11848863.62149  -9207247.73446  23250182.753    23250189.319
